[[{"header":{"parameterUnit":"m.s-1","parameterCategory":1,"la1":31.0,"la2":29.5877,"lo1":-88.7671,"lo2":-86.6584,"dy":0.0162,"dx":0.0185,"nx":115,"ny":88,"refTime":"2024-08-26T00:00:00:Z","depth":0,"parameterNumber":2,"parameterNumberName":"U-component_of_WINDS"},"data":[0.0,0.0,0.0,0.0,0.0,0.0,0.0,0.0,0.0,0.0,0.0,0.0,0.0,0.0,0.0,0.0,0.0,0.0,0.0,0.0,0.0,0.0,0.0,0.0,0.0,0.0,0.0,0.0,0.0,0.0,0.0,0.0,0.0,0.0,0.0,0.0,0.0,0.0,0.0,0.0,0.0,0.0,0.0,0.0,0.0,0.0,0.0,0.0,0.0,0.0,0.0,0.0,0.0,0.0,0.0,0.0,0.0,0.0,0.0,0.0,0.0,0.0,0.0,0.0,0.0,0.0,0.0,0.0,0.0,0.0,0.0,0.0,0.0,0.0,0.0,0.0,0.0,0.0,0.0,0.0,0.0,0.0,0.0,0.0,0.0,0.0,0.0,0.0,0.0,0.0,0.0,0.0,0.0,0.0,0.0,0.0,0.0,0.0,0.0,0.0,0.0,0.0,0.0,0.0,0.0,0.0,0.0,0.0,0.0,0.0,0.0,0.0,0.0,0.0,0.0,0.0,0.0,0.0,0.0,0.0,0.0,0.0,0.0,0.0,0.0,0.0,0.0,0.0,0.0,0.0,0.0,0.0,0.0,0.0,0.0,0.0,0.0,0.0,0.0,0.0,0.0,0.0,0.0,0.0,0.0,0.0,0.0,0.0,0.0,0.0,0.0,0.0,0.0,0.0,0.0,0.0,0.0,0.0,0.0,0.0,0.0,0.0,0.0,0.0,0.0,0.0,0.0,0.0,0.0,0.0,0.0,0.0,0.0,0.0,0.0,0.0,0.0,0.0,0.0,0.0,0.0,0.0,0.0,0.0,0.0,0.0,0.0,0.0,0.0,0.0,0.0,0.0,0.0,0.0,0.0,0.0,0.0,0.0,0.0,0.0,0.0,0.0,0.0,0.0,0.0,0.0,0.0,0.0,0.0,0.0,0.0,0.0,0.0,0.0,0.0,0.0,0.0,0.0,0.0,0.0,0.0,0.0,0.0,0.0,0.0,0.0,0.0,0.0,0.0,0.0,0.0,0.0,0.0,0.0,0.0,0.0,0.0,0.0,0.0,0.0,0.0,0.0,0.0,0.0,0.0,0.0,0.0,0.0,0.0,0.0,0.0,0.0,0.0,0.0,0.0,0.0,0.0,0.0,0.0,0.0,0.0,0.0,0.0,0.0,0.0,0.0,0.0,0.0,0.0,0.0,0.0,0.0,0.0,0.0,0.0,0.0,0.0,0.0,0.0,0.0,0.0,0.0,0.0,0.0,0.0,0.0,0.0,0.0,0.0,0.0,0.0,0.0,0.0,0.0,0.0,0.0,0.0,0.0,0.0,0.0,0.0,0.0,0.0,0.0,0.0,0.0,0.0,0.0,0.0,0.0,0.0,0.0,0.0,0.0,0.0,0.0,0.0,0.0,0.0,0.0,0.0,0.0,0.0,0.0,0.0,0.0,0.0,0.0,0.0,0.0,0.0,0.0,0.0,0.0,0.0,0.0,0.0,0.0,0.0,0.0,0.0,0.0,0.0,0.0,0.0,0.0,0.0,0.0,0.0,0.0,0.0,0.0,0.0,0.0,0.0,0.0,0.0,0.0,0.0,0.0,0.0,0.0,0.0,0.0,0.0,0.0,0.0,0.0,0.0,0.0,0.0,0.0,0.0,0.0,0.0,0.0,0.0,0.0,0.0,0.0,0.0,0.0,0.0,0.0,0.0,0.0,0.0,0.0,0.0,0.0,0.0,0.0,0.0,0.0,0.0,0.0,0.0,0.0,0.0,0.0,0.0,0.0,0.0,0.0,0.0,0.0,0.0,0.0,0.0,0.0,0.0,0.0,0.0,0.0,0.0,0.0,0.0,0.0,0.0,0.0,0.0,0.0,0.0,0.0,0.0,0.0,0.0,0.0,0.0,0.0,0.0,0.0,0.0,0.0,0.0,0.0,0.0,0.0,0.0,0.0,0.0,0.0,0.0,0.0,0.0,0.0,0.0,0.0,0.0,0.0,0.0,0.0,0.0,0.0,0.0,0.0,0.0,0.0,0.0,0.0,0.0,0.0,0.0,0.0,0.0,0.0,0.0,0.0,0.0,0.0,0.0,0.0,0.0,0.0,0.0,0.0,0.0,0.0,0.0,0.0,0.0,0.0,0.0,0.0,0.0,0.0,0.0,0.0,0.0,0.0,0.0,0.0,0.0,0.0,0.0,0.0,0.0,0.0,0.0,0.0,0.0,0.0,0.0,0.0,0.0,0.0,0.0,0.0,0.0,0.0,0.0,0.0,0.0,0.0,0.0,0.0,0.0,0.0,0.0,0.0,0.0,0.0,0.0,0.0,0.0,0.0,0.0,0.0,0.0,0.0,0.0,0.0,0.0,0.0,0.0,0.0,0.0,0.0,0.0,0.0,0.0,0.0,0.0,0.0,0.0,0.0,0.0,0.0,0.0,0.0,0.0,0.0,0.0,0.0,0.0,0.0,0.0,0.0,0.0,0.0,0.0,0.0,0.0,0.0,0.0,0.0,0.0,0.0,0.0,0.0,0.0,0.0,0.0,0.0,0.0,0.0,0.0,0.0,0.0,0.0,0.0,0.0,0.0,0.0,0.0,0.0,0.0,0.0,0.0,0.0,0.0,0.0,0.0,0.0,0.0,0.0,0.0,0.0,0.0,0.0,0.0,0.0,0.0,0.0,0.0,0.0,0.0,0.0,0.0,0.0,0.0,0.0,0.0,0.0,0.0,0.0,0.0,0.0,0.0,0.0,0.0,0.0,0.0,0.0,0.0,0.0,0.0,0.0,0.0,0.0,0.0,0.0,0.0,0.0,0.0,0.0,0.0,0.0,0.0,0.0,0.0,0.0,0.0,0.0,0.0,0.0,0.0,0.0,0.0,0.0,0.0,0.0,0.0,0.0,0.0,0.0,0.0,0.0,0.0,0.0,0.0,0.0,0.0,0.0,0.0,0.0,0.0,0.0,0.0,0.0,0.0,0.0,0.0,0.0,0.0,0.0,0.0,0.0,0.0,0.0,0.0,0.0,0.0,0.0,0.0,0.0,0.0,0.0,0.0,0.0,0.0,0.0,0.0,0.0,0.0,0.0,0.0,0.0,0.0,0.0,0.0,0.0,0.0,0.0,0.0,0.0,0.0,0.0,0.0,0.0,0.0,0.0,0.0,0.0,0.0,0.0,0.0,0.0,0.0,0.0,0.0,0.0,0.0,0.0,0.0,0.0,0.0,0.0,0.0,0.0,0.0,0.0,0.0,0.0,0.0,0.0,0.0,0.0,0.0,0.0,0.0,0.0,0.0,0.0,0.0,0.0,0.0,0.0,0.0,0.0,0.0,0.0,0.0,0.0,0.0,0.0,0.0,0.0,0.0,0.0,0.0,0.0,0.0,0.0,0.0,0.0,0.0,0.0,0.0,0.0,0.0,0.0,0.0,0.0,0.0,0.0,0.0,0.0,0.0,0.0,0.0,0.0,0.0,0.0,0.0,0.0,0.0,0.0,0.0,0.0,0.0,0.0,0.0,0.0,0.0,0.0,0.0,0.0,0.0,0.0,0.0,0.0,0.0,0.0,0.0,0.0,0.0,0.0,0.0,0.0,0.0,0.0,0.0,0.0,0.0,0.0,0.0,0.0,0.0,0.0,0.0,0.0,0.0,0.0,0.0,0.0,0.0,0.0,0.0,0.0,0.0,0.0,0.0,0.0,0.0,0.0,0.0,0.0,0.0,0.0,0.0,0.0,0.0,0.0,0.0,0.0,0.0,0.0,0.0,0.0,0.0,0.0,0.0,0.0,0.0,0.0,0.0,0.0,0.0,0.0,0.0,0.0,0.0,0.0,0.0,0.0,0.0,0.0,0.0,0.0,0.0,0.0,0.0,0.0,0.0,0.0,0.0,0.0,0.0,0.0,0.0,0.0,0.0,0.0,0.0,0.0,0.0,0.0,0.0,0.0,0.0,0.0,0.0,0.0,0.0,0.0,0.0,0.0,0.0,0.0,0.0,0.0,0.0,0.0,0.0,0.0,0.0,0.0,0.0,0.0,0.0,0.0,0.0,0.0,0.0,0.0,0.0,0.0,0.0,0.0,0.0,0.0,0.0,0.0,0.0,0.0,0.0,0.0,0.0,0.0,0.0,0.0,0.0,0.0,0.0,0.0,0.0,0.0,0.0,0.0,0.0,0.0,0.0,0.0,0.0,0.0,0.0,0.0,0.0,0.0,0.0,0.0,0.0,0.0,0.0,0.0,0.0,0.0,0.0,0.0,0.0,0.0,0.0,0.0,0.0,0.0,-0.4185,0.0,0.0,0.0,0.0,0.0,0.0,0.0,0.0,0.0,0.0,0.0,0.0,0.0,0.0,0.0,0.0,0.0,0.0,0.0,0.0,0.0,0.0,0.0,0.0,0.0,0.0,0.0,0.0,0.0,0.0,0.0,0.0,0.0,0.0,0.0,0.0,0.0,0.0,0.0,0.0,0.0,0.0,0.0,0.0,0.0,0.0,0.0,0.0,0.0,0.0,0.0,0.0,0.0,0.0,0.0,0.0,0.0,0.0,0.0,0.0,0.0,0.0,0.0,0.0,0.0,0.0,0.0,0.0,0.0,0.0,0.0,0.0,0.0,0.0,0.0,0.0,0.0,0.0,0.0,0.0,0.0,0.0,0.0,0.0,0.0,0.0,0.0,0.0,0.0,0.0,0.0,0.0,0.0,0.0,0.0,0.0,0.0,0.0,0.0,0.0,0.0,0.0,0.0,0.0,0.0,0.0,0.0,0.0,0.0,0.0,-1.0002,-1.0198,-1.0175,-0.9652,-0.8478,0.0,0.0,0.0,0.0,0.0,0.0,0.0,0.0,0.0,0.0,0.0,0.0,0.0,0.0,0.0,0.0,0.0,0.0,0.0,0.0,0.0,0.0,0.0,0.0,0.0,0.0,0.0,0.0,0.0,0.0,0.0,0.0,0.0,0.0,0.0,0.0,0.0,0.0,0.0,0.0,0.0,0.0,0.0,0.0,0.0,0.0,0.0,0.0,0.0,0.0,0.0,0.0,0.0,0.0,0.0,0.0,0.0,0.0,0.0,0.0,0.0,0.0,0.0,0.0,0.0,0.0,0.0,0.0,0.0,0.0,0.0,0.0,0.0,0.0,0.0,0.0,0.0,0.0,0.0,0.0,0.0,0.0,0.0,0.0,0.0,0.0,0.0,0.0,0.0,0.0,0.0,0.0,0.0,0.0,0.0,0.0,0.0,0.0,0.0,0.0,0.0,0.0,0.0,0.0,0.0,0.0,0.0,0.0,0.0,0.0,0.0,0.0,-1.5904,-1.4882,-1.2518,0.0,0.0,0.0,0.0,0.0,0.0,0.0,0.0,0.0,0.0,0.0,0.0,0.0,0.0,0.0,0.0,0.0,0.0,0.0,0.0,0.0,0.0,0.0,0.0,0.0,0.0,0.0,0.0,0.0,0.0,0.0,0.0,0.0,0.0,0.0,0.0,0.0,0.0,0.0,0.0,0.0,0.0,0.0,0.0,0.0,0.0,0.0,0.0,0.0,0.0,0.0,0.0,0.0,0.0,0.0,0.0,0.0,0.0,0.0,0.0,0.0,0.0,0.0,0.0,0.0,0.0,0.0,0.0,0.0,0.0,0.0,0.0,0.0,0.0,0.0,0.0,0.0,0.0,0.0,0.0,0.0,0.0,0.0,0.0,0.0,0.0,0.0,0.0,0.0,0.0,0.0,0.0,0.0,0.0,0.0,0.0,0.0,0.0,0.0,0.0,0.0,0.0,0.0,0.0,0.0,0.0,0.0,0.0,0.0,0.0,-2.0621,-2.1728,-2.135,0.0,-1.5898,0.0,0.0,0.0,0.0,0.0,0.0,0.0,0.0,0.0,0.0,0.0,0.0,0.0,0.0,0.0,0.0,0.0,0.0,0.0,0.0,0.0,0.0,0.0,0.0,0.0,0.0,0.0,0.0,0.0,0.0,0.0,0.0,0.0,0.0,0.0,0.0,0.0,0.0,0.0,0.0,0.0,0.0,0.0,0.0,0.0,0.0,0.0,0.0,0.0,0.0,0.0,0.0,0.0,0.0,0.0,0.0,0.0,0.0,0.0,0.0,0.0,0.0,0.0,0.0,0.0,0.0,0.0,0.0,0.0,0.0,0.0,0.0,0.0,0.0,0.0,0.0,0.0,0.0,0.0,0.0,0.0,0.0,0.0,0.0,0.0,0.0,0.0,0.0,0.0,0.0,0.0,0.0,0.0,0.0,0.0,0.0,0.0,0.0,0.0,0.0,0.0,0.0,0.0,0.0,0.0,0.0,0.0,0.0,0.0,0.0,0.0,-2.562,-2.4524,-2.2606,0.0,0.0,0.0,0.0,0.0,0.0,0.0,0.0,0.0,0.0,0.0,0.0,0.0,0.0,0.0,0.0,0.0,0.0,0.0,0.0,0.0,0.0,0.0,0.0,0.0,0.0,0.0,0.0,0.0,0.0,0.0,0.0,0.0,0.0,0.0,0.0,0.0,0.0,0.0,0.0,0.0,0.0,0.0,0.0,0.0,0.0,0.0,0.0,0.0,0.0,0.0,0.0,0.0,0.0,0.0,0.0,0.0,0.0,0.0,0.0,0.0,0.0,0.0,0.0,0.0,0.0,0.0,0.0,0.0,0.0,0.0,0.0,0.0,0.0,0.0,0.0,0.0,0.0,0.0,0.0,0.0,0.0,0.0,0.0,0.0,0.0,0.0,0.0,0.0,0.0,0.0,0.0,0.0,0.0,0.0,0.0,0.0,0.0,0.0,0.0,0.0,0.0,0.0,0.0,0.0,0.0,0.0,0.0,0.0,0.0,-2.6226,0.0,-2.9062,-2.7786,-2.5986,-2.3833,0.0,0.0,0.0,0.0,0.0,0.0,0.0,0.0,0.0,0.0,0.0,0.0,0.0,0.0,0.0,0.0,0.0,0.0,0.0,0.0,0.0,0.0,0.0,0.0,0.0,0.0,0.0,0.0,0.0,0.0,0.0,0.0,0.0,0.0,0.0,0.0,0.0,0.0,0.0,0.0,0.0,0.0,0.0,0.0,0.0,0.0,0.0,0.0,0.0,0.0,0.0,0.0,0.0,0.0,0.0,0.0,0.0,0.0,0.0,0.0,0.0,0.0,0.0,0.0,0.0,0.0,0.0,0.0,0.0,0.0,0.0,0.0,0.0,0.0,0.0,0.0,0.0,0.0,0.0,0.0,0.0,0.0,0.0,0.0,0.0,0.0,0.0,0.0,0.0,0.0,0.0,0.0,0.0,0.0,0.0,0.0,0.0,0.0,0.0,0.0,0.0,0.0,0.0,0.0,0.0,0.0,0.0,0.0,0.0,-2.8754,-3.0559,-3.2887,-3.1679,-2.9997,0.0,0.0,0.0,0.0,0.0,0.0,0.0,0.0,0.0,0.0,0.0,0.0,0.0,0.0,0.0,0.0,0.0,0.0,0.0,0.0,0.0,0.0,0.0,0.0,0.0,0.0,0.0,0.0,0.0,0.0,0.0,0.0,0.0,0.0,0.0,0.0,0.0,0.0,0.0,0.0,0.0,0.0,0.0,0.0,0.0,0.0,0.0,0.0,0.0,0.0,0.0,0.0,0.0,0.0,0.0,0.0,0.0,0.0,0.0,0.0,0.0,0.0,0.0,0.0,0.0,0.0,0.0,0.0,0.0,0.0,0.0,0.0,0.0,0.0,0.0,0.0,0.0,0.0,0.0,0.0,0.0,0.0,0.0,0.0,0.0,0.0,0.0,0.0,0.0,0.0,0.0,0.0,0.0,0.0,0.0,0.0,0.0,0.0,0.0,0.0,0.0,0.0,0.0,0.0,0.0,0.0,0.0,0.0,0.0,-2.9035,-3.17,-3.3583,0.0,-3.3423,-3.1855,0.0,0.0,0.0,0.0,0.0,0.0,0.0,0.0,0.0,0.0,0.0,0.0,0.0,0.0,0.0,0.0,0.0,0.0,0.0,0.0,0.0,0.0,0.0,0.0,0.0,0.0,0.0,0.0,0.0,0.0,0.0,0.0,0.0,0.0,0.0,0.0,0.0,0.0,0.0,0.0,0.0,0.0,0.0,0.0,0.0,0.0,0.0,0.0,0.0,0.0,0.0,0.0,0.0,0.0,0.0,0.0,0.0,0.0,0.0,0.0,0.0,0.0,0.0,0.0,0.0,0.0,0.0,0.0,0.0,0.0,0.0,0.0,0.0,0.0,0.0,0.0,0.0,0.0,0.0,0.0,0.0,0.0,0.0,0.0,0.0,0.0,0.0,0.0,0.0,0.0,0.0,0.0,0.0,0.0,0.0,0.0,0.0,0.0,0.0,0.0,0.0,0.0,0.0,0.0,0.0,0.0,0.0,0.0,0.0,-3.0865,0.0,-3.5686,0.0,-3.4714,-3.3218,0.0,0.0,0.0,0.0,0.0,0.0,0.0,0.0,0.0,0.0,0.0,0.0,0.0,0.0,0.0,0.0,0.0,0.0,0.0,0.0,0.0,0.0,0.0,0.0,0.0,0.0,0.0,0.0,0.0,0.0,0.0,0.0,0.0,0.0,0.0,0.0,0.0,0.0,0.0,0.0,0.0,0.0,0.0,0.0,0.0,0.0,0.0,0.0,0.0,0.0,0.0,0.0,0.0,0.0,0.0,0.0,0.0,0.0,0.0,0.0,0.0,0.0,0.0,0.0,0.0,0.0,0.0,0.0,0.0,0.0,0.0,0.0,0.0,0.0,0.0,0.0,0.0,0.0,0.0,0.0,0.0,0.0,0.0,0.0,0.0,0.0,0.0,0.0,0.0,0.0,0.0,0.0,0.0,0.0,0.0,0.0,0.0,0.0,0.0,0.0,0.0,0.0,0.0,0.0,0.0,0.0,0.0,0.0,-2.9193,-3.2885,-3.5214,-3.662,-3.7054,-3.5649,-3.4215,0.0,0.0,0.0,0.0,0.0,0.0,0.0,0.0,0.0,0.0,0.0,0.0,0.0,0.0,0.0,0.0,0.0,0.0,0.0,0.0,0.0,0.0,0.0,0.0,0.0,0.0,0.0,0.0,0.0,0.0,0.0,0.0,0.0,0.0,0.0,0.0,0.0,0.0,0.0,0.0,0.0,0.0,0.0,0.0,0.0,0.0,0.0,0.0,0.0,0.0,0.0,0.0,0.0,0.0,0.0,0.0,0.0,0.0,0.0,0.0,0.0,0.0,0.0,0.0,0.0,0.0,0.0,0.0,0.0,0.0,0.0,0.0,0.0,0.0,0.0,0.0,0.0,0.0,0.0,0.0,0.0,0.0,0.0,0.0,0.0,0.0,0.0,0.0,0.0,0.0,0.0,0.0,0.0,0.0,0.0,0.0,0.0,0.0,0.0,0.0,0.0,0.0,0.0,0.0,0.0,0.0,0.0,0.0,0.0,-3.4561,-3.6262,-3.7322,-3.7596,-3.631,-3.5183,0.0,0.0,0.0,0.0,0.0,0.0,0.0,0.0,0.0,0.0,0.0,0.0,0.0,0.0,0.0,0.0,0.0,0.0,0.0,0.0,0.0,0.0,0.0,0.0,0.0,0.0,0.0,0.0,0.0,0.0,0.0,0.0,0.0,0.0,0.0,0.0,0.0,0.0,0.0,0.0,0.0,0.0,0.0,0.0,0.0,0.0,0.0,0.0,0.0,0.0,0.0,0.0,0.0,0.0,0.0,0.0,0.0,0.0,0.0,0.0,0.0,0.0,0.0,0.0,0.0,0.0,0.0,0.0,0.0,0.0,0.0,0.0,0.0,0.0,0.0,0.0,0.0,0.0,0.0,0.0,0.0,0.0,0.0,0.0,0.0,0.0,0.0,0.0,0.0,0.0,0.0,0.0,0.0,0.0,0.0,0.0,0.0,0.0,0.0,0.0,0.0,0.0,0.0,0.0,0.0,0.0,0.0,0.0,0.0,-3.6468,-3.7398,-3.798,-3.8227,-3.6863,-3.5841,-3.5195,0.0,0.0,0.0,0.0,0.0,0.0,0.0,0.0,0.0,0.0,0.0,0.0,0.0,0.0,0.0,0.0,0.0,0.0,0.0,0.0,0.0,0.0,0.0,0.0,0.0,0.0,0.0,0.0,0.0,0.0,0.0,0.0,0.0,0.0,0.0,0.0,0.0,0.0,0.0,0.0,0.0,0.0,0.0,0.0,0.0,0.0,0.0,0.0,0.0,0.0,0.0,0.0,0.0,0.0,0.0,0.0,0.0,0.0,0.0,0.0,0.0,0.0,0.0,0.0,0.0,0.0,0.0,0.0,0.0,0.0,0.0,0.0,0.0,0.0,0.0,0.0,0.0,0.0,0.0,0.0,0.0,0.0,0.0,0.0,0.0,0.0,0.0,0.0,0.0,0.0,0.0,0.0,0.0,0.0,0.0,0.0,0.0,0.0,0.0,0.0,0.0,0.0,0.0,0.0,0.0,0.0,0.0,0.0,-3.8507,-3.8538,-3.8661,-3.8795,-3.7387,-3.6309,0.0,0.0,0.0,0.0,0.0,0.0,0.0,0.0,0.0,0.0,0.0,0.0,0.0,0.0,0.0,0.0,0.0,0.0,0.0,0.0,0.0,0.0,0.0,0.0,0.0,0.0,0.0,0.0,0.0,0.0,0.0,0.0,0.0,0.0,0.0,0.0,0.0,0.0,0.0,0.0,0.0,0.0,0.0,0.0,0.0,0.0,0.0,0.0,0.0,0.0,0.0,0.0,0.0,0.0,0.0,0.0,0.0,0.0,0.0,0.0,0.0,0.0,0.0,0.0,0.0,0.0,0.0,0.0,0.0,0.0,0.0,0.0,0.0,0.0,0.0,0.0,0.0,0.0,0.0,0.0,0.0,0.0,0.0,0.0,0.0,0.0,0.0,0.0,0.0,0.0,0.0,0.0,0.0,0.0,0.0,0.0,0.0,0.0,0.0,0.0,0.0,0.0,0.0,0.0,0.0,0.0,0.0,0.0,0.0,-3.889,-3.9132,-3.924,-3.9221,-3.8378,-3.7596,0.0,0.0,0.0,0.0,0.0,0.0,0.0,0.0,0.0,0.0,0.0,0.0,0.0,0.0,0.0,0.0,0.0,0.0,0.0,0.0,0.0,0.0,0.0,0.0,0.0,0.0,0.0,0.0,0.0,0.0,0.0,0.0,0.0,0.0,0.0,0.0,0.0,0.0,0.0,0.0,0.0,0.0,0.0,0.0,0.0,0.0,0.0,0.0,0.0,0.0,0.0,0.0,0.0,0.0,0.0,0.0,0.0,0.0,0.0,0.0,0.0,0.0,0.0,0.0,0.0,0.0,0.0,0.0,0.0,0.0,0.0,0.0,0.0,0.0,0.0,0.0,0.0,0.0,0.0,0.0,0.0,0.0,0.0,0.0,0.0,0.0,0.0,0.0,0.0,0.0,0.0,0.0,0.0,0.0,0.0,0.0,0.0,0.0,0.0,0.0,0.0,0.0,0.0,0.0,0.0,0.0,0.0,0.0,-3.8269,-3.924,-3.9452,-3.9575,-3.9647,-3.8924,-3.8201,0.0,0.0,0.0,0.0,0.0,0.0,0.0,0.0,0.0,0.0,0.0,0.0,0.0,0.0,0.0,0.0,0.0,0.0,0.0,0.0,0.0,0.0,0.0,0.0,0.0,0.0,0.0,0.0,0.0,0.0,0.0,0.0,0.0,0.0,0.0,0.0,0.0,0.0,0.0,0.0,0.0,0.0,0.0,0.0,0.0,0.0,0.0,0.0,0.0,0.0,0.0,0.0,0.0,0.0,0.0,0.0,0.0,0.0,0.0,0.0,0.0,0.0,0.0,0.0,0.0,0.0,0.0,0.0,0.0,0.0,0.0,0.0,0.0,0.0,0.0,0.0,0.0,0.0,0.0,0.0,0.0,0.0,0.0,0.0,0.0,0.0,0.0,0.0,0.0,0.0,0.0,0.0,0.0,0.0,0.0,0.0,0.0,0.0,0.0,0.0,0.0,0.0,0.0,0.0,0.0,0.0,0.0,0.0,-3.8923,-3.9483,-3.9587,-3.969,-3.9844,-3.9114,-3.8384,0.0,0.0,0.0,0.0,0.0,0.0,0.0,0.0,0.0,0.0,0.0,0.0,0.0,0.0,0.0,0.0,0.0,0.0,0.0,0.0,0.0,0.0,0.0,0.0,0.0,0.0,0.0,0.0,0.0,0.0,0.0,0.0,0.0,0.0,0.0,0.0,0.0,0.0,0.0,0.0,0.0,0.0,0.0,0.0,0.0,0.0,0.0,0.0,0.0,0.0,0.0,0.0,0.0,0.0,0.0,0.0,0.0,0.0,0.0,0.0,0.0,0.0,0.0,0.0,0.0,0.0,0.0,0.0,0.0,0.0,0.0,0.0,0.0,0.0,0.0,0.0,0.0,0.0,0.0,0.0,0.0,0.0,0.0,0.0,0.0,0.0,0.0,0.0,0.0,0.0,0.0,0.0,0.0,0.0,0.0,0.0,0.0,0.0,0.0,0.0,0.0,0.0,0.0,0.0,0.0,0.0,0.0,0.0,-3.9137,-3.9563,-3.9693,-3.9526,-3.9059,-3.8927,-3.8508,0.0,0.0,0.0,0.0,0.0,0.0,0.0,0.0,0.0,0.0,0.0,0.0,0.0,0.0,0.0,0.0,0.0,0.0,0.0,0.0,0.0,0.0,0.0,0.0,0.0,0.0,0.0,0.0,0.0,0.0,0.0,0.0,0.0,0.0,0.0,0.0,0.0,0.0,0.0,0.0,0.0,0.0,0.0,0.0,0.0,0.0,0.0,0.0,-2.988,0.0,0.0,0.0,0.0,0.0,0.0,0.0,0.0,0.0,0.0,0.0,0.0,0.0,0.0,0.0,0.0,0.0,0.0,0.0,0.0,0.0,0.0,0.0,0.0,0.0,0.0,0.0,0.0,0.0,0.0,0.0,0.0,0.0,0.0,0.0,0.0,0.0,0.0,0.0,0.0,0.0,0.0,0.0,0.0,0.0,0.0,0.0,0.0,0.0,0.0,0.0,0.0,0.0,0.0,0.0,0.0,0.0,0.0,0.0,-3.9219,-3.9568,-3.9335,-3.9064,-3.8784,-3.8136,-3.7623,0.0,0.0,0.0,0.0,0.0,0.0,0.0,0.0,0.0,0.0,0.0,0.0,0.0,0.0,0.0,0.0,0.0,0.0,0.0,0.0,0.0,0.0,0.0,0.0,0.0,0.0,0.0,0.0,0.0,0.0,0.0,0.0,0.0,0.0,0.0,0.0,0.0,0.0,0.0,0.0,0.0,0.0,0.0,0.0,0.0,0.0,0.0,0.0,0.0,0.0,0.0,0.0,0.0,0.0,0.0,0.0,0.0,0.0,0.0,0.0,0.0,0.0,0.0,0.0,0.0,0.0,0.0,0.0,0.0,0.0,0.0,0.0,0.0,0.0,0.0,0.0,0.0,0.0,0.0,0.0,0.0,0.0,0.0,0.0,0.0,0.0,0.0,0.0,0.0,0.0,0.0,0.0,0.0,0.0,0.0,0.0,0.0,0.0,0.0,0.0,0.0,0.0,0.0,0.0,0.0,0.0,0.0,-3.8789,-3.9176,-3.9344,-3.881,-3.8464,-3.8403,-3.7179,-3.6519,-3.6495,0.0,0.0,0.0,0.0,0.0,0.0,0.0,0.0,0.0,0.0,0.0,0.0,0.0,0.0,0.0,0.0,0.0,0.0,0.0,0.0,0.0,0.0,0.0,0.0,0.0,0.0,0.0,0.0,0.0,0.0,0.0,0.0,0.0,0.0,0.0,0.0,0.0,0.0,-2.6775,-2.881,0.0,0.0,0.0,0.0,0.0,0.0,0.0,0.0,-3.3222,0.0,0.0,0.0,0.0,0.0,0.0,0.0,0.0,0.0,0.0,0.0,0.0,0.0,0.0,0.0,0.0,0.0,0.0,0.0,0.0,0.0,0.0,0.0,0.0,0.0,0.0,0.0,0.0,0.0,0.0,0.0,0.0,0.0,0.0,0.0,0.0,0.0,0.0,0.0,0.0,0.0,0.0,0.0,0.0,0.0,0.0,0.0,0.0,0.0,0.0,0.0,0.0,0.0,0.0,0.0,0.0,-3.818,-3.8737,-3.8826,-3.8434,-3.8481,-3.7894,-3.6682,-3.6593,-3.6285,-3.5596,0.0,0.0,0.0,0.0,0.0,0.0,0.0,0.0,0.0,0.0,0.0,0.0,0.0,0.0,0.0,0.0,0.0,0.0,0.0,0.0,0.0,0.0,0.0,0.0,0.0,0.0,0.0,0.0,0.0,0.0,0.0,0.0,0.0,0.0,0.0,0.0,0.0,0.0,0.0,-3.0716,-3.1854,0.0,0.0,0.0,0.0,0.0,0.0,0.0,0.0,-3.3665,0.0,0.0,0.0,0.0,0.0,0.0,0.0,0.0,0.0,0.0,0.0,0.0,0.0,0.0,0.0,0.0,0.0,0.0,0.0,0.0,0.0,0.0,0.0,0.0,0.0,0.0,0.0,0.0,0.0,0.0,0.0,0.0,0.0,0.0,0.0,0.0,0.0,0.0,0.0,0.0,0.0,0.0,0.0,0.0,0.0,0.0,0.0,0.0,0.0,0.0,0.0,0.0,0.0,0.0,0.0,-3.756,-3.8158,-3.8311,-3.8071,-3.7444,-3.6796,-3.6178,-3.598,-3.5714,0.0,0.0,0.0,0.0,0.0,0.0,0.0,0.0,0.0,0.0,0.0,0.0,0.0,0.0,0.0,0.0,0.0,0.0,0.0,0.0,0.0,0.0,0.0,0.0,0.0,0.0,0.0,0.0,0.0,0.0,0.0,0.0,0.0,0.0,0.0,0.0,0.0,0.0,0.0,0.0,-3.147,-3.2386,-3.3332,0.0,0.0,0.0,0.0,0.0,0.0,-3.4328,-3.4274,0.0,0.0,0.0,0.0,0.0,0.0,0.0,0.0,0.0,0.0,0.0,0.0,0.0,0.0,0.0,0.0,0.0,0.0,0.0,0.0,0.0,0.0,0.0,0.0,0.0,0.0,0.0,0.0,0.0,0.0,0.0,0.0,0.0,0.0,0.0,0.0,0.0,0.0,0.0,0.0,0.0,0.0,0.0,0.0,0.0,0.0,0.0,0.0,0.0,0.0,0.0,0.0,0.0,0.0,0.0,-3.683,-3.7362,-3.7551,-3.7394,-3.6315,-3.5761,-3.5792,-3.5379,-3.5207,0.0,0.0,0.0,0.0,0.0,0.0,0.0,0.0,0.0,0.0,0.0,0.0,0.0,0.0,0.0,0.0,0.0,0.0,0.0,0.0,0.0,0.0,0.0,0.0,0.0,0.0,0.0,0.0,0.0,0.0,0.0,0.0,0.0,0.0,0.0,0.0,0.0,0.0,0.0,0.0,0.0,-3.2876,-3.3675,-3.3807,0.0,0.0,0.0,0.0,-3.4583,-3.4634,0.0,0.0,0.0,0.0,0.0,0.0,0.0,0.0,0.0,0.0,0.0,0.0,0.0,0.0,0.0,0.0,0.0,0.0,0.0,0.0,0.0,0.0,0.0,0.0,0.0,0.0,0.0,0.0,0.0,0.0,0.0,0.0,0.0,0.0,0.0,0.0,0.0,0.0,0.0,0.0,0.0,0.0,0.0,0.0,0.0,0.0,0.0,0.0,0.0,0.0,0.0,0.0,0.0,0.0,0.0,0.0,-3.6002,-3.6384,-3.6228,-3.5557,-3.5522,-3.5287,-3.4803,-3.4917,-3.5066,0.0,0.0,0.0,0.0,0.0,0.0,0.0,0.0,0.0,0.0,0.0,0.0,0.0,0.0,0.0,0.0,0.0,0.0,0.0,0.0,0.0,0.0,0.0,0.0,0.0,0.0,0.0,0.0,0.0,0.0,0.0,0.0,0.0,0.0,0.0,0.0,0.0,0.0,0.0,0.0,0.0,-3.3593,-3.3694,-3.382,-3.3959,0.0,0.0,0.0,-3.4666,-3.4747,0.0,0.0,0.0,0.0,0.0,0.0,0.0,0.0,0.0,0.0,0.0,0.0,0.0,0.0,0.0,0.0,0.0,0.0,0.0,0.0,0.0,0.0,0.0,0.0,0.0,0.0,0.0,0.0,0.0,0.0,0.0,0.0,0.0,0.0,0.0,0.0,0.0,0.0,0.0,0.0,0.0,0.0,0.0,0.0,0.0,0.0,0.0,0.0,0.0,0.0,0.0,0.0,0.0,0.0,0.0,-3.4702,-3.5139,-3.5436,-3.5427,-3.5101,-3.4794,-3.4574,-3.4439,-3.4693,-3.4917,0.0,0.0,0.0,0.0,0.0,0.0,0.0,0.0,0.0,0.0,0.0,0.0,0.0,0.0,0.0,0.0,0.0,0.0,0.0,0.0,0.0,0.0,0.0,0.0,0.0,0.0,0.0,0.0,0.0,0.0,0.0,0.0,0.0,0.0,0.0,0.0,0.0,0.0,0.0,0.0,0.0,0.0,-3.3753,-3.382,0.0,0.0,0.0,-3.4282,-3.3993,0.0,0.0,0.0,0.0,0.0,0.0,0.0,0.0,0.0,0.0,0.0,0.0,0.0,0.0,0.0,0.0,0.0,0.0,0.0,0.0,0.0,0.0,0.0,0.0,0.0,0.0,0.0,0.0,0.0,0.0,0.0,0.0,0.0,0.0,0.0,0.0,0.0,0.0,0.0,0.0,0.0,0.0,0.0,0.0,0.0,0.0,0.0,0.0,0.0,0.0,0.0,0.0,0.0,0.0,0.0,0.0,0.0,-3.434,-3.4538,-3.4651,-3.4637,-3.4181,-3.4023,-3.4197,-3.4461,0.0,0.0,0.0,0.0,0.0,0.0,0.0,0.0,0.0,0.0,0.0,0.0,0.0,0.0,0.0,0.0,0.0,0.0,0.0,0.0,0.0,0.0,0.0,0.0,0.0,0.0,0.0,-2.6971,0.0,0.0,0.0,0.0,0.0,0.0,0.0,0.0,0.0,0.0,0.0,0.0,0.0,0.0,-3.3675,-3.3698,-3.3721,-3.3829,0.0,0.0,-3.4146,-3.3762,-3.3785,-3.3658,0.0,0.0,0.0,0.0,0.0,0.0,0.0,0.0,0.0,0.0,0.0,0.0,0.0,0.0,0.0,0.0,0.0,0.0,0.0,0.0,0.0,0.0,0.0,0.0,0.0,0.0,0.0,0.0,0.0,0.0,0.0,0.0,0.0,0.0,0.0,0.0,0.0,0.0,0.0,0.0,0.0,0.0,0.0,0.0,0.0,0.0,0.0,0.0,0.0,0.0,0.0,0.0,0.0,0.0,0.0,-3.3582,-3.372,-3.378,-3.3724,-3.3789,-3.3842,-3.3939,-3.4227,-3.4498,0.0,0.0,0.0,0.0,0.0,0.0,0.0,0.0,0.0,0.0,0.0,0.0,0.0,0.0,0.0,0.0,0.0,0.0,0.0,0.0,0.0,0.0,0.0,0.0,0.0,0.0,0.0,0.0,0.0,0.0,0.0,0.0,0.0,0.0,0.0,0.0,0.0,0.0,0.0,0.0,0.0,-3.3495,-3.3437,-3.3591,-3.3734,0.0,0.0,-3.4344,-3.4486,-3.4617,-3.4766,-3.4876,0.0,0.0,0.0,0.0,0.0,0.0,0.0,0.0,0.0,0.0,0.0,0.0,0.0,0.0,0.0,0.0,0.0,0.0,0.0,0.0,0.0,0.0,0.0,0.0,0.0,0.0,0.0,0.0,0.0,0.0,0.0,0.0,0.0,0.0,0.0,0.0,0.0,0.0,0.0,0.0,0.0,0.0,0.0,0.0,0.0,0.0,0.0,0.0,0.0,0.0,0.0,0.0,0.0,-3.3538,-3.3437,-3.3577,-3.3605,-3.3534,-3.3591,-3.3657,-3.3762,-3.4042,-3.4215,0.0,0.0,0.0,0.0,0.0,0.0,0.0,0.0,0.0,0.0,0.0,0.0,0.0,0.0,0.0,0.0,0.0,0.0,0.0,0.0,0.0,0.0,0.0,0.0,0.0,0.0,0.0,0.0,-2.9432,-2.9317,-2.9916,0.0,0.0,0.0,0.0,0.0,0.0,0.0,0.0,0.0,0.0,-3.3081,-3.3147,-3.328,0.0,0.0,-3.3998,-3.4083,-3.3827,-3.3917,-3.3895,-3.3606,-3.4125,0.0,0.0,0.0,0.0,0.0,0.0,0.0,0.0,0.0,0.0,0.0,0.0,0.0,0.0,0.0,0.0,0.0,0.0,0.0,0.0,0.0,0.0,0.0,0.0,0.0,0.0,0.0,0.0,0.0,0.0,0.0,0.0,0.0,0.0,0.0,0.0,0.0,0.0,0.0,0.0,0.0,0.0,0.0,0.0,0.0,0.0,0.0,0.0,0.0,0.0,0.0,0.0,-3.3509,-3.3382,-3.3481,-3.3491,-3.3393,-3.3452,-3.3506,-3.3601,-3.3563,-3.3572,0.0,0.0,0.0,0.0,0.0,0.0,0.0,0.0,0.0,0.0,0.0,0.0,0.0,0.0,0.0,0.0,0.0,0.0,0.0,0.0,0.0,0.0,0.0,0.0,0.0,0.0,0.0,0.0,-3.0573,-3.0404,-3.0575,0.0,0.0,0.0,0.0,0.0,0.0,0.0,0.0,0.0,0.0,-3.2651,-3.2766,-3.2957,-3.322,-3.3587,-3.3881,-3.395,-3.3679,-3.3794,-3.3772,-3.3413,0.0,0.0,0.0,0.0,0.0,0.0,0.0,0.0,0.0,0.0,0.0,0.0,0.0,0.0,0.0,0.0,0.0,0.0,0.0,0.0,0.0,0.0,0.0,0.0,0.0,0.0,0.0,0.0,0.0,0.0,-3.2768,0.0,0.0,0.0,0.0,0.0,0.0,0.0,0.0,0.0,0.0,0.0,0.0,0.0,0.0,0.0,0.0,0.0,0.0,0.0,0.0,0.0,0.0,0.0,-3.3292,-3.3367,-3.3301,-3.3117,-3.3304,-3.3393,-3.339,-3.2853,-3.2554,-3.2535,0.0,0.0,0.0,0.0,0.0,0.0,0.0,0.0,0.0,0.0,0.0,0.0,0.0,0.0,0.0,0.0,0.0,0.0,0.0,0.0,0.0,0.0,0.0,0.0,0.0,0.0,-3.2516,-3.2127,-3.1548,0.0,0.0,0.0,0.0,0.0,0.0,0.0,0.0,0.0,0.0,-3.2214,-3.2249,-3.2318,-3.2603,-3.3006,-3.3466,-3.3812,-3.4099,-3.4333,-3.4632,-3.4917,0.0,0.0,0.0,0.0,0.0,0.0,0.0,0.0,0.0,0.0,0.0,0.0,0.0,0.0,0.0,0.0,0.0,0.0,0.0,0.0,0.0,0.0,0.0,0.0,0.0,0.0,0.0,-3.5577,-3.558,0.0,0.0,0.0,0.0,0.0,0.0,0.0,0.0,0.0,0.0,0.0,-3.4495,-3.4139,0.0,0.0,0.0,0.0,0.0,0.0,0.0,0.0,0.0,0.0,0.0,0.0,-3.3274,-3.3122,-3.3168,-3.3135,-3.2979,-3.3091,-3.3137,-3.3135,-3.2557,-3.1964,-3.1456,0.0,0.0,0.0,0.0,0.0,0.0,0.0,0.0,0.0,0.0,0.0,0.0,0.0,0.0,0.0,0.0,0.0,0.0,0.0,0.0,0.0,0.0,0.0,0.0,0.0,-3.2868,0.0,0.0,0.0,0.0,0.0,0.0,0.0,0.0,0.0,0.0,0.0,-3.202,-3.1714,-3.173,-3.1803,-3.2002,-3.2825,-3.358,0.0,0.0,0.0,0.0,0.0,0.0,0.0,0.0,0.0,0.0,0.0,0.0,0.0,0.0,-3.1072,-3.0074,-2.9901,-2.991,-2.9959,0.0,0.0,0.0,0.0,0.0,0.0,0.0,0.0,0.0,0.0,0.0,0.0,0.0,0.0,-3.6628,0.0,-3.6239,0.0,0.0,0.0,0.0,0.0,0.0,0.0,0.0,-3.5563,-3.5151,-3.4535,-3.4075,-3.3762,0.0,-3.3466,-3.3762,0.0,0.0,0.0,0.0,0.0,0.0,0.0,0.0,-3.2981,-3.2836,-3.2818,-3.2768,-3.2655,-3.2721,-3.2786,-3.285,-3.1959,-3.1239,-3.0736,-3.0438,-3.0265,0.0,0.0,0.0,0.0,0.0,0.0,0.0,0.0,0.0,0.0,0.0,0.0,0.0,0.0,0.0,0.0,0.0,0.0,0.0,0.0,0.0,0.0,0.0,-3.2673,0.0,0.0,0.0,0.0,0.0,0.0,0.0,0.0,0.0,-3.2379,-3.2333,-3.2276,-3.2004,-3.18,-3.1801,-3.2106,0.0,0.0,0.0,0.0,0.0,0.0,0.0,-3.4383,-3.4529,-3.4653,-3.461,-3.426,-3.3217,-3.2027,-3.0888,0.0,0.0,-2.9711,-2.9654,-2.9673,-2.969,-2.9708,-2.969,-2.9551,-2.9446,-2.9318,0.0,0.0,0.0,0.0,0.0,0.0,0.0,0.0,-3.5918,-3.5951,0.0,-3.608,0.0,0.0,0.0,0.0,0.0,0.0,0.0,0.0,-3.6242,-3.5985,-3.5311,-3.4783,-3.4374,-3.4101,-3.4152,-3.4185,-3.4145,-3.3876,0.0,0.0,0.0,0.0,0.0,0.0,-3.2539,-3.2473,-3.2353,-3.2249,-3.2179,-3.2231,-3.2369,-3.2501,-3.1085,-3.0318,-3.0323,-2.9541,-2.9467,-3.0288,-2.9833,0.0,0.0,0.0,0.0,0.0,0.0,0.0,0.0,0.0,0.0,0.0,0.0,0.0,0.0,0.0,0.0,0.0,0.0,0.0,0.0,-3.242,0.0,0.0,0.0,0.0,0.0,0.0,0.0,0.0,0.0,0.0,-3.257,-3.2919,-3.3186,-3.2942,0.0,0.0,0.0,0.0,-3.2179,-3.2609,-3.2963,-3.3271,-3.3433,-3.3733,-3.3981,-3.4,0.0,0.0,-3.295,-3.1413,-3.0305,-3.0229,-2.9494,-2.8991,-2.931,-2.9363,-2.9373,-2.9336,-2.9349,-2.9348,-2.923,-2.9155,-2.9038,-3.6627,0.0,0.0,0.0,0.0,-3.5916,-3.6185,-3.6649,-3.6649,-3.672,-3.6755,-3.6288,0.0,0.0,0.0,0.0,0.0,0.0,-3.6459,-3.5807,-3.5535,-3.5035,-3.4317,-3.3882,-3.3565,-3.3388,-3.3298,-3.3282,-3.3387,-3.3088,-3.2988,-3.3042,0.0,0.0,0.0,0.0,-3.1931,-3.1859,-3.1822,-3.1749,-3.1691,-3.1821,-3.1706,-3.1393,-3.0363,-2.9806,-2.9822,-2.8995,-2.8699,-2.9015,-2.8886,0.0,0.0,0.0,0.0,0.0,0.0,0.0,0.0,0.0,0.0,0.0,0.0,0.0,0.0,0.0,0.0,0.0,0.0,0.0,-3.2021,-3.1878,-3.201,0.0,0.0,0.0,0.0,0.0,0.0,0.0,0.0,0.0,-3.2754,-3.2671,-3.2481,0.0,0.0,-3.1654,-3.1483,-3.2104,-3.2692,-3.3073,0.0,0.0,0.0,-3.3478,-3.3064,-3.2601,-3.2137,-3.1539,-3.0677,-3.0132,-2.96,-2.8982,-2.8696,-2.8587,-2.8682,-2.8915,-2.9097,-2.916,-2.9141,-2.9079,-2.9014,-2.8875,-2.8731,-3.7104,-3.6056,-3.6631,-3.6856,-3.6856,-3.6798,-3.6806,-3.6866,-3.688,-3.6745,-3.6478,-3.6103,-3.5994,-3.6079,-3.5641,0.0,0.0,0.0,-3.5891,-3.534,-3.483,-3.4243,-3.3559,-3.3182,-3.2931,-3.273,-3.2617,-3.2505,-3.2353,-3.2253,-3.2071,-3.1855,0.0,0.0,-3.122,-3.1223,-3.1242,-3.1203,-3.1181,-3.1179,-3.1176,-3.1374,-3.1303,-3.0968,-2.9954,-2.9403,-2.9386,-2.8545,-2.8101,-2.8168,-2.8185,-2.8077,0.0,0.0,0.0,0.0,0.0,0.0,0.0,0.0,0.0,0.0,0.0,-3.1947,0.0,0.0,0.0,0.0,-3.2191,-3.2068,-3.1764,-3.1862,0.0,0.0,0.0,0.0,0.0,0.0,0.0,-3.2085,-3.266,-3.2873,-3.2187,-3.2119,-3.2239,-3.2501,-3.2214,-3.1868,-3.1692,0.0,-3.2098,-3.2294,-3.2574,-3.2844,-3.302,-3.252,-3.1888,-3.1296,-3.0519,-2.9887,-2.9422,-2.9062,-2.8631,-2.8231,-2.8169,-2.8264,-2.8259,-2.8523,-2.87,-2.881,-2.8803,-2.8779,-2.87,-2.8531,-2.8437,-3.7571,-3.7023,-3.7942,-3.8235,-3.8173,-3.8063,-3.7505,-3.6717,-3.6641,-3.6213,-3.5526,-3.5599,-3.5637,-3.5713,-3.5865,0.0,0.0,-3.5403,-3.5008,-3.4664,-3.4144,-3.3563,-3.2949,-3.2668,-3.241,-3.2163,-3.2117,-3.1766,-3.1228,-3.1327,-3.0876,-2.9901,-3.0612,-3.0827,-3.0514,-3.046,-3.046,-3.0502,-3.0472,-3.0489,-3.0651,-3.0902,-3.1044,-3.101,-2.9809,-2.91,-2.9016,-2.8142,-2.7647,-2.7647,-2.7649,-2.7737,-2.7911,0.0,0.0,0.0,0.0,0.0,0.0,0.0,0.0,0.0,0.0,0.0,0.0,0.0,0.0,0.0,-3.1807,0.0,-3.1748,-3.2111,0.0,0.0,0.0,-3.2266,-3.2248,-3.2739,-3.2603,-3.1424,0.0,0.0,0.0,0.0,-3.2321,-3.3817,-3.3074,-3.2362,-3.2447,-3.1432,-3.0727,-3.0838,-3.1106,-3.1342,-3.1462,-3.101,-3.0436,-2.9972,-2.9203,-2.8679,-2.8638,-2.8152,-2.7667,-2.7716,-2.7864,-2.7968,-2.8042,-2.8105,-2.8201,-2.8327,-2.8401,-2.8427,-2.8327,-2.825,-2.8182,-3.8335,-3.8199,-3.8308,-3.789,-3.7145,-3.712,-3.663,-3.5927,-3.5976,-3.5537,-3.4771,-3.489,-3.4927,-3.4901,-3.5018,-3.5018,-3.4925,-3.4496,-3.4087,-3.3716,-3.3277,-3.2857,-3.2398,-3.2203,-3.2107,-3.2007,-3.1422,-3.1104,-3.0989,-3.0079,-2.9526,-2.9375,-2.9175,-2.9287,-2.976,-2.981,-2.9793,-2.9766,-2.9881,-3.0027,-3.0167,-3.0321,-3.0414,-3.0464,-2.9756,-2.9062,-2.8515,-2.7684,-2.7245,-2.7245,-2.7247,-2.7533,-2.8175,-2.8196,0.0,0.0,0.0,0.0,0.0,0.0,0.0,0.0,0.0,-3.1469,-3.1376,0.0,-3.1163,0.0,-3.1565,-3.1553,-3.1238,-3.1221,0.0,0.0,-3.1997,-3.2209,-3.2748,-3.285,-3.2672,-3.2191,-3.2292,-3.2129,-3.1259,-3.1343,-3.1534,-3.1606,-3.1214,-3.0776,-3.0393,-3.0206,-3.014,-3.0377,-3.058,-3.062,-3.0306,-2.934,-2.8613,-2.8459,-2.7843,-2.7362,-2.7378,-2.7321,-2.7228,-2.7293,-2.7463,-2.7602,-2.7647,-2.7733,-2.7818,-2.7876,-2.8035,-2.8196,-2.8154,-2.8099,-2.8042,-3.8274,-3.8274,-3.8205,-3.7822,-3.7297,-3.7448,-3.6845,-3.5795,-3.5857,-3.5235,-3.4126,-3.4151,-3.4109,-3.4018,-3.4118,-3.4077,-3.4002,-3.3646,-3.3319,-3.3029,-3.2695,-3.2342,-3.201,-3.194,-3.1704,-3.133,-3.0814,-3.0321,-2.9816,-2.9042,-2.8557,-2.8384,-2.8187,-2.8268,-2.8732,-2.9059,-2.9213,-2.9152,-2.9371,-2.9566,-2.9687,-2.9913,-3.0022,-3.0011,-2.9489,-2.8936,-2.8425,-2.7679,-2.7261,-2.7205,-2.7221,-2.742,-2.7818,-2.7974,-2.8283,0.0,0.0,0.0,0.0,0.0,0.0,0.0,0.0,0.0,0.0,0.0,-3.0535,0.0,-3.1103,0.0,-3.0829,-3.0986,-3.1229,-3.1624,-3.1712,-3.1881,-3.2278,-3.2269,-3.2145,-3.1936,-3.1838,-3.1434,-3.0498,-3.0482,-3.0277,-2.9571,-2.9388,-2.9461,-2.9789,-2.9739,-2.9655,-2.9815,-3.0032,-2.9926,-2.9257,-2.8328,-2.7564,-2.7246,-2.6927,-2.6725,-2.6742,-2.6842,-2.6908,-2.7006,-2.7152,-2.7294,-2.7308,-2.7417,-2.7474,-2.7567,-2.7674,-2.7824,-2.7922,-2.7925,-2.7896,-3.7801,-3.7817,-3.7788,-3.7772,-3.7801,-3.8026,-3.7274,-3.5921,-3.5824,-3.4963,-3.3617,-3.3477,-3.3319,-3.3214,-3.3187,-3.3203,-3.3145,-3.2846,-3.2641,-3.2465,-3.2231,-3.1981,-3.1698,-3.1652,-3.1191,-3.0451,-3.0162,-2.9453,-2.8396,-2.8172,-2.7794,-2.7365,-2.7463,-2.756,-2.77,-2.8284,-2.8597,-2.8661,-2.8873,-2.9044,-2.9213,-2.9499,-2.9633,-2.9582,-2.9157,-2.8769,-2.8495,-2.7881,-2.7518,-2.7381,-2.7439,-2.7466,-2.7487,-2.7567,-2.7886,0.0,-2.8511,0.0,0.0,0.0,0.0,0.0,0.0,0.0,0.0,-2.9682,-2.9977,-3.0007,-3.0561,-3.0805,-3.0498,-3.0919,-3.1203,-3.1248,-3.1321,-3.1335,-3.1306,-3.1364,-3.135,-3.1219,-3.1219,-3.0701,-2.9487,-2.9359,-2.9002,-2.8086,-2.7981,-2.8489,-2.9522,-2.9438,-2.919,-2.9259,-2.9406,-2.9041,-2.8201,-2.7522,-2.6955,-2.641,-2.6364,-2.645,-2.6503,-2.6537,-2.6606,-2.6792,-2.6892,-2.6975,-2.7022,-2.7103,-2.7198,-2.731,-2.7341,-2.7465,-2.7689,-2.7733,-2.7701,-3.7328,-3.7314,-3.7225,-3.7197,-3.7134,-3.6658,-3.6153,-3.5637,-3.4922,-3.4089,-3.3219,-3.2888,-3.278,-3.2711,-3.2617,-3.2563,-3.2563,-3.2413,-3.2148,-3.1881,-3.168,-3.1481,-3.119,-3.0657,-3.0331,-3.011,-2.9091,-2.8471,-2.8246,-2.7559,-2.7187,-2.7081,-2.7034,-2.703,0.0,0.0,0.0,0.0,-2.8277,-2.8389,-2.87,-2.885,-2.8967,-2.9059,-2.8979,0.0,-2.8075,-2.7901,-2.78,-2.7778,-2.7835,0.0,0.0,0.0,0.0,0.0,0.0,0.0,0.0,0.0,0.0,0.0,-2.7476,-2.7943,-2.8617,-2.9325,-2.9714,-2.965,-3.0119,-3.029,-2.999,-3.006,-3.004,-2.9991,-3.019,-3.0358,-3.0358,-3.0613,-3.0777,-3.0747,-3.0747,-3.0265,-2.9167,-2.8988,-2.8626,-2.765,-2.759,-2.7821,-2.8206,-2.8488,-2.8716,-2.9012,-2.8531,-2.7743,-2.7016,-2.6455,-2.6112,-2.5954,-2.6045,-2.6099,-2.6118,-2.6242,-2.6348,-2.6418,-2.6572,-2.6674,-2.6708,-2.6826,-2.6958,-2.6992,-2.7057,-2.7185,-2.7496,-2.7557,-2.7557,-3.6831,0.0,-3.677,-3.6754,0.0,-3.5595,-3.5033,-3.4847,-3.4272,-3.349,-3.2664,-3.248,-3.237,-3.2287,-3.212,-3.2079,-3.2035,-3.1853,-3.1638,-3.1481,-3.1234,-3.1073,-3.0925,-3.0206,-2.9694,-2.9372,-2.8351,-2.7681,-2.7348,-2.6818,-2.6568,-2.6541,-2.6525,-2.651,-2.651,-2.651,-2.693,-2.7735,-2.7685,-2.7835,-2.8186,-2.8334,-2.8407,-2.84,0.0,0.0,0.0,0.0,0.0,0.0,0.0,0.0,0.0,0.0,0.0,-2.7063,-2.6776,-2.6579,-2.6512,-2.6277,-2.6179,-2.6327,-2.6742,-2.7402,-2.8324,-2.8726,-2.8972,-2.9146,-2.9395,-2.9467,-2.923,-2.9247,-2.9279,-2.923,-2.9498,-2.9701,-2.9716,-2.9946,-3.0083,-3.0127,-3.016,-2.9747,-2.8641,-2.8568,-2.8213,-2.7301,-2.7207,-2.7386,-2.7604,-2.8054,-2.8456,-2.8488,-2.7828,-2.7051,-2.6475,-2.5925,-2.5567,-2.5659,-2.5733,-2.5791,-2.5846,-2.5939,-2.6046,-2.6136,-2.6241,-2.6329,-2.6434,-2.6538,-2.6623,-2.6742,-2.6792,-2.6892,-2.7152,-2.7261,-2.7371,-3.6383,-3.6352,-3.6352,-3.632,-3.6182,-3.4714,-3.3923,-3.3664,0.0,0.0,0.0,-3.2051,-3.1966,-3.1868,-3.1697,-3.1567,-3.1523,-3.1307,-3.119,-3.1102,-3.0851,-3.0672,-3.0554,-2.9711,-2.903,-2.8511,-2.7635,-2.6906,-2.6379,-2.6096,-2.5975,-2.5948,-2.5921,-2.5879,-2.5866,-2.5757,-2.6028,-2.6613,-2.6916,-2.7229,-2.7524,-2.772,-2.7765,-2.765,-2.7625,-2.7434,-2.7104,-2.7195,-2.7195,-2.7078,-2.7119,-2.7001,-2.6823,-2.6573,-2.6267,-2.5918,-2.5631,-2.5481,-2.548,-2.5269,-2.5339,-2.5807,-2.6413,-2.7142,-2.8006,-2.8026,-2.8206,-2.8634,-2.8675,-2.8624,-2.8522,-2.8605,-2.8675,-2.8675,-2.8962,-2.9121,-2.9153,-2.9306,-2.9415,-2.9477,-2.9543,-2.9203,-2.8105,-2.8096,-2.7853,-2.6965,-2.6779,-2.7015,-2.7346,-2.7779,-2.7951,-2.7625,-2.703,-2.6514,-2.6016,-2.5584,-2.5333,-2.5339,-2.5432,-2.5543,-2.5605,-2.5645,-2.5735,-2.5846,-2.5919,-2.601,-2.6137,-2.6225,-2.6312,-2.6486,-2.6537,-2.6606,-2.6775,-2.6957,-2.7135,-3.5973,-3.5831,-3.5816,-3.572,-3.5471,-3.4147,-3.2871,-3.1735,-3.1891,-3.1814,-3.1595,-3.1481,-3.1423,-3.1409,-3.1249,-3.1073,-3.094,-3.0881,-3.0732,0.0,-3.0387,-3.0221,-2.9875,-2.8751,-2.811,-2.7752,-2.6679,-2.6032,-2.5811,-2.5619,-2.5453,-2.5328,-2.5202,-2.509,-2.4977,-2.4948,-2.4935,-2.4894,-2.5674,-2.6258,-2.651,-2.6654,-2.6707,-2.668,-2.6602,-2.6414,-2.6172,-2.6199,-2.6199,-2.6172,-2.6293,-2.6187,-2.5837,-2.5563,-2.5203,-2.4781,-2.4481,-2.4532,-2.4949,-2.4852,-2.5153,-2.5975,-2.6181,-2.6466,-2.7059,-2.7575,-2.7926,-2.8177,-2.8197,-2.8177,-2.8177,-2.8164,-2.8197,-2.821,-2.8333,-2.8449,-2.8436,-2.8624,-2.8798,-2.8899,-2.8931,-2.8619,-2.775,-2.7587,-2.7299,-2.6478,-2.6353,-2.6604,-2.7041,-2.7204,-2.7008,-2.6587,-2.6047,-2.5566,-2.5163,-2.4957,-2.4946,-2.5127,-2.513,-2.5204,-2.5336,-2.5378,-2.5435,-2.5473,-2.5607,-2.5719,-2.5777,-2.5937,-2.6081,-2.6222,-2.6293,-2.6399,-2.652,-2.6623,-2.6741,-3.5347,-3.5282,-3.5282,-3.5169,-3.4916,-3.3534,-3.2335,-3.1288,-3.1028,-3.1014,-3.1102,-3.0984,-3.094,-3.091,-3.0747,-3.0582,-3.0417,-3.0326,-3.0144,-2.9929,-2.9822,-2.9623,-2.9306,-2.807,-2.7367,-2.7136,-2.5991,-2.5342,-2.5202,-2.5034,-2.4823,-2.4694,-2.458,-2.4392,-2.4173,-2.4144,-2.4015,-2.3767,-2.4738,-2.5356,-2.5536,-2.5646,-2.5673,-2.5632,-2.5508,-2.537,-2.5204,-2.5176,-2.5189,-2.5176,-2.5189,-2.5063,-2.4794,-2.4481,-2.4147,-2.378,-2.3825,-2.3966,-2.4128,-2.4614,-2.5104,-2.5519,-2.5832,-2.6131,-2.6501,-2.7033,-2.7403,-2.7482,-2.7516,-2.7496,-2.7516,-2.7616,-2.7649,-2.7669,-2.7789,-2.7842,-2.7875,-2.8052,-2.8183,-2.8254,-2.8417,-2.8116,-2.707,-2.7129,-2.6851,-2.5966,-2.5947,-2.6338,-2.664,-2.6197,-2.5872,-2.594,-2.555,-2.5044,-2.4544,-2.4528,-2.4661,-2.4766,-2.4811,-2.4871,-2.4985,-2.5064,-2.5107,-2.5224,-2.5323,-2.54,-2.5495,-2.5677,-2.5807,-2.5917,-2.6008,-2.6117,-2.6276,-2.6166,-2.6017,-3.4769,-3.4735,-3.4735,-3.4528,-3.4128,-3.2865,-3.1867,-3.106,-3.0385,-3.019,-3.0401,-3.0431,-3.0403,-3.0371,-3.0205,-3.0038,-2.9915,-2.973,-2.9574,-2.9401,-2.923,-2.904,-2.8739,-2.7462,-2.6752,-2.6465,-2.5372,-2.4721,-2.4578,-2.4392,-2.4205,-2.4031,-2.3914,-2.3721,-2.345,-2.339,-2.3228,-2.3017,-2.3725,-2.4253,-2.4568,-2.4639,-2.4667,-2.4568,-2.4467,-2.435,-2.4205,-2.4205,-2.4163,-2.4163,-2.4089,-2.3943,-2.378,-2.3526,-2.3278,-2.3126,-2.3356,-2.3575,-2.3786,-2.4597,-2.5135,-2.5147,-2.5514,-2.5828,-2.6013,-2.6371,-2.6692,-2.6841,-2.6875,-2.6863,-2.6909,-2.6998,-2.71,-2.71,-2.7235,-2.7323,-2.7335,-2.7477,-2.7656,-2.7676,-2.7908,-2.7658,-2.6899,-2.6712,-2.6356,-2.5603,-2.5674,-2.5974,-2.6023,-2.5303,-2.4966,-2.5192,-2.5017,-2.4546,-2.4106,-2.4183,-2.4338,-2.4395,-2.4446,-2.4528,-2.4661,-2.4722,-2.4802,-2.4946,-2.5009,-2.5107,-2.5278,-2.5394,-2.5508,-2.5607,-2.5735,-2.5848,-2.5799,-2.5611,-2.5447,-3.4332,-3.4196,-3.4147,-3.3647,-3.2814,-3.2085,-3.1334,-3.0534,-2.9747,-2.9324,-2.9306,-2.9699,-2.9806,-2.9696,-2.9665,-2.9543,-2.9373,-2.923,-2.9053,-2.8867,-2.8734,-2.8457,-2.8044,-2.6903,-2.6215,-2.5792,-2.4711,-2.4115,-2.3966,-2.3776,-2.3514,-2.3258,-2.3185,-2.3108,-2.2939,-2.2775,-2.2622,-2.2482,-2.2451,-2.2787,-2.3497,-2.3649,-2.3649,-2.3526,-2.3539,-2.3407,-2.3245,-2.3228,-2.3228,-2.3215,-2.3228,-2.3065,-2.2805,-2.2702,-2.2769,-2.2918,-2.2963,-2.3352,-2.4312,-2.495,-2.5263,-2.5287,-2.5299,-2.5347,-2.5382,-2.5453,-2.5769,-2.6255,-2.6427,-2.6427,-2.6461,-2.6461,-2.6496,-2.6496,-2.6645,-2.6782,-2.6782,-2.6964,-2.7146,-2.7323,-2.7356,-2.7255,-2.6814,-2.6374,-2.5805,-2.5126,-2.5245,-2.5522,-2.5617,-2.4904,-2.4326,-2.4422,-2.4028,-2.3754,-2.3739,-2.3839,-2.3946,-2.4078,-2.4141,-2.4219,-2.4338,-2.4421,-2.4539,-2.4584,-2.4722,-2.4862,-2.4985,-2.5123,-2.5208,-2.5346,-2.5446,-2.5464,-2.5127,-2.4941,-2.5046,-3.3819,-3.3618,-3.3632,-3.3317,-3.2751,-3.1923,-3.1237,-3.0541,-2.9742,-2.908,-2.8651,-2.8707,-2.8817,-2.9004,-2.9004,-2.8894,-2.8693,-2.8527,-2.8365,-2.8203,-2.802,-2.7822,-2.7472,-2.6302,-2.5591,-2.5312,-2.4123,-2.345,-2.33,-2.303,-2.2787,-2.2574,-2.2574,-2.2482,-2.2328,-2.2161,-2.1982,-2.1808,-2.1663,-2.18,-2.2099,-2.2549,-2.2744,-2.2708,-2.2678,-2.2678,-2.2574,-2.2574,-2.2574,-2.2543,-2.2586,-2.2451,-2.2192,-2.2493,-2.2663,-2.2645,-2.3193,-2.3902,-2.4625,-2.4874,-2.5028,-2.5028,-2.4992,-2.4981,-2.4981,-2.5028,-2.5159,-2.5394,-2.5641,-2.5769,-2.5769,-2.5861,-2.5908,-2.5955,-2.6107,-2.6211,-2.6245,-2.6418,-2.6577,-2.6645,-2.6701,-2.6667,-2.6284,-2.5693,-2.5078,-2.4709,-2.4766,-2.4978,-2.5176,-2.4457,-2.3984,-2.392,-2.3378,-2.3073,-2.3304,-2.3473,-2.3581,-2.3674,-2.3782,-2.3867,-2.3967,-2.403,-2.4114,-2.4219,-2.44,-2.4559,-2.4681,-2.4846,-2.4985,-2.5098,-2.4925,-2.4818,-2.4655,-2.406,-2.3786,-3.3192,-3.3058,-3.2988,-3.2881,-3.2627,-3.1668,-3.092,-3.0289,-2.9477,-2.8705,-2.802,-2.7796,-2.7842,-2.8085,-2.8229,-2.8216,-2.8072,-2.7842,-2.7676,-2.7543,-2.7323,-2.7108,-2.6883,-2.5815,-2.5107,-2.4657,-2.3611,-2.2893,-2.2586,-2.2359,-2.2111,-2.1968,-2.1937,-2.1862,-2.1694,-2.1557,-2.1368,-2.1178,-2.1063,-2.0978,-2.0967,-2.138,-2.1726,-2.1906,-2.1925,-2.1937,-2.1937,-2.1937,-2.1937,-2.1937,-2.1937,-2.1831,-2.1655,-2.2125,-2.2425,-2.2564,-2.3364,-2.4071,-2.4442,-2.4502,-2.4465,-2.4454,-2.4454,-2.4454,-2.4502,-2.4454,-2.4465,-2.449,-2.4694,-2.4886,-2.5147,-2.53,-2.5371,-2.5407,-2.5535,-2.5653,-2.5676,-2.5804,-2.5943,-2.5943,-2.6082,-2.6015,-2.556,-2.5109,-2.4688,-2.4227,-2.4247,-2.4436,-2.4629,-2.4137,-2.3629,-2.3565,-2.2916,-2.264,-2.288,-2.3061,-2.3187,-2.3319,-2.3414,-2.3486,-2.361,-2.3631,-2.3732,-2.3882,-2.4067,-2.4213,-2.4338,-2.4503,-2.4686,-2.476,-2.4563,-2.4179,-2.3999,-2.3103,-2.2557,-3.2453,-3.2403,-3.2237,-3.2069,-3.1873,-3.1078,-3.0299,-2.9566,-2.873,-2.7983,-2.74,-2.7154,-2.6939,-2.685,-2.7289,-2.7536,-2.749,-2.7175,-2.704,-2.6973,-2.662,-2.6393,-2.6195,-2.5456,-2.4725,-2.4128,-2.3244,-2.248,-2.18,-2.1745,-2.1569,-2.1253,-2.1221,-2.1221,-2.119,-2.0999,-2.0839,-2.0667,-2.0496,-2.0324,-2.0204,-2.0204,-2.056,-2.1126,-2.1221,-2.1221,-2.1221,-2.1233,-2.1253,-2.1265,-2.1256,-2.1181,-2.1024,-2.1446,-2.2049,-2.2721,-2.3293,-2.3621,-2.3666,-2.3677,-2.3666,-2.3677,-2.3703,-2.3666,-2.3714,-2.3703,-2.3703,-2.3677,-2.374,-2.4043,-2.4598,-2.4778,-2.4814,-2.4825,-2.4969,-2.5028,-2.5052,-2.5194,-2.5312,-2.5382,-2.5523,-2.5318,-2.4707,-2.4815,-2.443,-2.3919,-2.3789,-2.4024,-2.4184,-2.3879,-2.3445,-2.3084,-2.2722,-2.2508,-2.2596,-2.2655,-2.2768,-2.2904,-2.2994,-2.3113,-2.3216,-2.3282,-2.3429,-2.3553,-2.3711,-2.3839,-2.3982,-2.4151,-2.4323,-2.429,-2.3991,-2.368,-2.339,-2.2635,-2.205,-3.1936,-3.1666,-3.1482,-3.136,-3.1259,-3.0751,-3.0136,-2.9432,-2.8554,-2.7802,-2.7199,-2.6603,-2.6245,-2.6211,-2.6117,-2.6358,-2.6722,-2.644,-2.6302,-2.6245,-2.5873,-2.5652,-2.5533,-2.4783,-2.4287,-2.3887,-2.2817,-2.1814,-2.1065,-2.1019,-2.0828,-2.056,-2.0495,-2.0495,-2.0463,-2.0345,-2.0226,-2.0129,-1.9878,-1.9638,-1.9594,-1.9485,-1.9584,-1.9857,-2.0269,-2.0495,-2.0506,-2.0506,-2.0495,-2.0506,-2.0785,-2.0908,-2.0919,-2.1571,-2.2264,-2.2845,-2.3136,-2.3224,-2.3224,-2.3224,-2.3224,-2.3224,-2.3224,-2.3213,-2.3224,-2.3224,-2.3224,-2.3224,-2.3224,-2.3409,-2.3629,-2.3982,-2.4236,-2.4273,-2.437,-2.4467,-2.4503,-2.4539,-2.4658,-2.4802,-2.5028,-2.4844,-2.4195,-2.4132,-2.3961,-2.3193,-2.3108,-2.342,-2.3657,-2.3376,-2.2944,-2.2629,-2.2338,-2.2003,-2.1553,-2.1983,-2.2287,-2.2426,-2.254,-2.2678,-2.2783,-2.2881,-2.2994,-2.315,-2.3304,-2.3458,-2.3603,-2.3861,-2.4015,-2.4003,-2.3685,-2.306,-2.2794,-2.1986,-2.1446,-3.1211,-3.0911,-3.0672,-3.0583,-3.0533,-3.0241,-2.9694,-2.9038,-2.8188,-2.7457,-2.6768,-2.5908,-2.5488,-2.543,-2.5111,-2.5206,-2.5664,-2.5558,-2.55,-2.55,-2.5099,-2.4921,-2.4838,-2.4213,-2.3781,-2.3444,-2.2366,-2.1363,-2.0632,-2.0522,-2.0282,-1.9868,-1.9813,-1.9781,-1.9748,-1.9693,-1.9605,-1.9506,-1.9274,-1.9119,-1.9052,-1.8952,-1.8875,-1.8929,-1.94,-1.9732,-1.9758,-1.9781,-1.9866,-1.9984,-2.0284,-2.0595,-2.0904,-2.1482,-2.206,-2.2515,-2.259,-2.2628,-2.2628,-2.259,-2.259,-2.2628,-2.259,-2.2617,-2.2628,-2.2628,-2.2628,-2.2628,-2.2628,-2.259,-2.2703,-2.2964,-2.3335,-2.353,-2.3751,-2.3861,-2.3897,-2.3897,-2.4055,-2.4273,-2.4503,-2.419,-2.3563,-2.3618,-2.3264,-2.2511,-2.2543,-2.2848,-2.3105,-2.2972,-2.249,-2.2203,-2.2007,-2.1537,-2.1111,-2.1215,-2.165,-2.1841,-2.21,-2.2231,-2.2347,-2.2434,-2.2572,-2.2731,-2.2904,-2.3075,-2.3297,-2.3545,-2.3681,-2.3743,-2.3112,-2.2378,-2.1911,-2.1339,-2.0936,-3.0292,-3.0075,-2.9793,-2.9704,-2.9678,-2.9445,-2.8966,-2.8306,-2.754,-2.6818,-2.6128,-2.5169,-2.4754,-2.4612,-2.4311,-2.4236,-2.4334,-2.4479,-2.4636,-2.4647,-2.4322,-2.4189,-2.4152,-2.3731,-2.322,-2.2713,-2.1894,-2.1136,-2.0522,-2.033,-1.998,-1.9444,-1.9277,-1.9241,-1.9127,-1.9176,-1.9068,-1.8964,-1.8893,-1.8741,-1.8536,-1.8558,-1.851,-1.8452,-1.877,-1.9042,-1.9135,-1.9158,-1.9354,-1.9651,-1.9765,-2.0193,-2.0964,-2.1192,-2.1352,-2.1762,-2.1845,-2.1807,-2.1835,-2.1845,-2.1845,-2.1883,-2.1845,-2.1845,-2.1883,-2.1883,-2.1845,-2.1883,-2.1845,-2.1845,-2.1845,-2.1921,-2.2252,-2.2852,-2.3038,-2.3113,-2.3213,-2.3298,-2.3457,-2.3751,-2.3886,-2.361,-2.3155,-2.3023,-2.278,-2.2139,-2.2049,-2.2266,-2.2561,-2.2524,-2.2256,-2.175,-2.1538,-2.1294,-2.0823,-2.046,-2.0871,-2.124,-2.1568,-2.1807,-2.1864,-2.1969,-2.2147,-2.231,-2.2472,-2.2669,-2.2904,-2.315,-2.3282,-2.3191,-2.2413,-2.1868,-2.1496,-2.1096,-2.0591,-2.947,-2.9353,-2.9013,-2.8882,-2.8803,-2.845,-2.8144,-2.7846,-2.7035,-2.6348,-2.5695,-2.4849,-2.424,-2.3895,-2.3556,-2.3372,-2.3383,-2.325,-2.3423,-2.379,-2.3519,-2.3383,-2.3298,-2.2953,-2.237,-2.1696,-2.137,-2.0885,-2.0286,-2.0047,-1.9753,-1.9475,-1.9248,-1.9187,-1.9112,-1.9152,-1.9116,-1.9045,-1.8948,-1.8841,-1.877,-1.8682,-1.861,-1.8593,-1.8728,-1.8781,-1.8835,-1.9045,-1.9221,-1.935,-1.9803,-2.038,-2.0977,-2.1184,-2.1245,-2.1367,-2.1397,-2.1397,-2.1397,-2.1397,-2.1349,-2.1397,-2.1359,-2.1387,-2.1387,-2.1387,-2.1359,-2.1387,-2.1397,-2.1397,-2.1397,-2.1397,-2.1655,-2.2289,-2.2402,-2.2488,-2.2654,-2.2804,-2.2927,-2.3038,-2.3187,-2.2928,-2.2405,-2.232,-2.2126,-2.144,-2.1474,-2.1726,-2.1932,-2.2037,-2.1783,-2.1104,-2.1099,-2.0914,-2.0209,-1.9901,-2.0195,-2.0623,-2.097,-2.1264,-2.1385,-2.1506,-2.1674,-2.1878,-2.2067,-2.2278,-2.254,-2.27,-2.2836,-2.2688,-2.2115,-2.1709,-2.1431,-2.0927,-2.0315,-2.8633,-2.8605,-2.8167,-2.8007,-2.7966,-2.7632,-2.7429,-2.7215,-2.6393,-2.5808,-2.529,-2.4316,-2.3683,-2.3349,-2.2826,-2.2553,-2.2515,-2.2149,-2.2214,-2.2665,-2.2665,-2.2553,-2.2478,-2.2138,-2.1625,-2.1049,-2.0913,-2.0606,-2.0046,-1.9806,-1.9553,-1.9207,-1.8949,-1.881,-1.8756,-1.8756,-1.8756,-1.8756,-1.8636,-1.8581,-1.8544,-1.8489,-1.8425,-1.8351,-1.849,-1.8536,-1.8507,-1.8835,-1.908,-1.9294,-1.979,-2.0303,-2.0673,-2.0683,-2.0731,-2.0731,-2.0693,-2.0693,-2.0741,-2.0702,-2.0731,-2.0731,-2.0731,-2.0731,-2.0731,-2.0731,-2.0731,-2.0731,-2.0693,-2.0731,-2.0731,-2.0693,-2.0964,-2.1377,-2.1645,-2.1845,-2.2025,-2.2252,-2.2327,-2.2402,-2.2553,-2.2218,-2.177,-2.1653,-2.1484,-2.0872,-2.086,-2.1083,-2.1273,-2.1411,-2.1021,-2.0665,-2.0565,-2.0145,-1.9415,-1.9368,-1.9565,-1.9939,-2.0346,-2.0648,-2.0847,-2.0981,-2.1153,-2.1385,-2.1602,-2.1864,-2.2123,-2.2217,-2.2305,-2.2004,-2.1845,-2.1476,-2.1081,-2.0445,-1.99,-2.7718,-2.7678,-2.7296,-2.7144,-2.7115,-2.6869,-2.6622,-2.6326,-2.5661,-2.5215,-2.4762,-2.3726,-2.3073,-2.2865,-2.2182,-2.1803,-2.1655,-2.131,-2.1118,-2.1272,-2.1415,-2.1558,-2.153,-2.1272,-2.0847,-2.0508,-2.0479,-2.0245,-1.982,-1.9611,-1.924,-1.876,-1.8555,-1.8267,-1.8255,-1.8089,-1.8153,-1.818,-1.8097,-1.8069,-1.8069,-1.805,-1.7966,-1.7834,-1.8186,-1.8297,-1.8207,-1.8478,-1.8846,-1.9276,-1.9598,-1.9816,-1.9902,-1.9854,-1.9912,-1.9951,-1.9902,-1.9902,-1.9902,-1.9951,-1.9942,-1.9942,-1.9942,-1.9863,-1.9942,-1.9981,-1.9942,-1.9942,-1.9932,-1.9902,-1.9902,-1.9942,-2.0059,-2.0264,-2.0848,-2.1233,-2.1425,-2.1617,-2.1683,-2.1759,-2.188,-2.1765,-2.1037,-2.109,-2.0793,-2.0357,-2.0248,-2.0421,-2.0614,-2.0694,-2.0497,-2.0289,-2.0099,-1.966,-1.9038,-1.8798,-1.8999,-1.9317,-1.9682,-1.9952,-2.0346,-2.0535,-2.0673,-2.0921,-2.1142,-2.141,-2.1626,-2.1698,-2.1878,-2.1871,-2.1589,-2.1179,-2.0692,-2.0161,-1.9685,-2.6846,-2.6816,-2.6415,-2.6229,-2.6177,-2.5843,-2.5611,-2.5474,-2.4967,-2.4493,-2.4033,-2.3433,-2.2717,-2.2117,-2.164,-2.1204,-2.0888,-2.0469,-2.0255,-2.0177,-2.002,-2.0167,-2.0333,-2.0294,-2.002,-1.9696,-1.9657,-1.9552,-1.9468,-1.9236,-1.9024,-1.8891,-1.8632,-1.8542,-1.8499,-1.8328,-1.8285,-1.8254,-1.8079,-1.7991,-1.7974,-1.7974,-1.7978,-1.7947,-1.8025,-1.8037,-1.8046,-1.8101,-1.8496,-1.9034,-1.9158,-1.9311,-1.942,-1.942,-1.9429,-1.942,-1.942,-1.946,-1.9429,-1.942,-1.946,-1.946,-1.9429,-1.9469,-1.9469,-1.9469,-1.946,-1.946,-1.946,-1.942,-1.9429,-1.942,-1.9499,-1.9618,-2.0206,-2.0731,-2.0799,-2.0876,-2.0944,-2.1108,-2.1213,-2.093,-2.0539,-2.0354,-2.0184,-1.9714,-1.966,-1.9868,-2.002,-2.015,-2.0068,-1.98,-1.9535,-1.9174,-1.8794,-1.8474,-1.846,-1.8721,-1.9028,-1.9279,-1.9721,-2.0169,-2.0271,-2.0435,-2.0635,-2.0883,-2.1068,-2.1204,-2.1399,-2.1554,-2.1276,-2.0831,-2.0579,-2.0152,-1.9648,-2.5904,-2.5779,-2.5454,-2.5285,-2.5126,-2.4765,-2.4562,-2.4433,-2.4069,-2.3786,-2.3406,-2.2804,-2.2301,-2.1758,-2.1163,-2.0645,-2.0284,-1.9799,-1.9537,-1.9341,-1.8984,-1.9024,-1.9301,-1.942,-1.9183,-1.8785,-1.8754,-1.8745,-1.8745,-1.8634,-1.8554,-1.8399,-1.8322,-1.825,-1.8086,-1.804,-1.7991,-1.7942,-1.7789,-1.7708,-1.7627,-1.7627,-1.7546,-1.7505,-1.7424,-1.7465,-1.7465,-1.7424,-1.7789,-1.8393,-1.8603,-1.8634,-1.8745,-1.8745,-1.8754,-1.8754,-1.8745,-1.8745,-1.8745,-1.8745,-1.8754,-1.8754,-1.8754,-1.8745,-1.8745,-1.8754,-1.8745,-1.8745,-1.8745,-1.8754,-1.8754,-1.8754,-1.8825,-1.8953,-1.9381,-1.9824,-2.0147,-2.0177,-2.0255,-2.044,-2.0556,-2.0387,-1.9743,-1.9743,-1.945,-1.9083,-1.8988,-1.9198,-1.9396,-1.9529,-1.9608,-1.9359,-1.9037,-1.8684,-1.8344,-1.8031,-1.7949,-1.8177,-1.8387,-1.8643,-1.916,-1.9682,-1.9849,-1.9952,-2.0131,-2.0334,-2.0523,-2.0673,-2.0822,-2.0851,-2.0692,-2.0594,-2.0346,-2.0098,-1.9625,-2.4935,-2.4722,-2.4466,-2.4241,-2.4036,-2.3744,-2.3527,-2.3363,-2.3057,-2.2906,-2.2722,-2.2059,-2.1654,-2.154,-2.0644,-2.0147,-1.9784,-1.9265,-1.8804,-1.844,-1.8063,-1.8063,-1.8287,-1.8505,-1.8313,-1.7991,-1.791,-1.787,-1.787,-1.7829,-1.7749,-1.7659,-1.7627,-1.7505,-1.7424,-1.7351,-1.7302,-1.731,-1.7229,-1.7098,-1.7017,-1.6976,-1.6894,-1.6779,-1.6738,-1.6697,-1.6689,-1.6697,-1.7017,-1.7749,-1.7838,-1.787,-1.787,-1.7878,-1.7878,-1.787,-1.787,-1.787,-1.787,-1.7861,-1.787,-1.7878,-1.787,-1.7878,-1.7878,-1.787,-1.787,-1.7942,-1.7919,-1.7959,-1.7991,-1.7959,-1.808,-1.8273,-1.8353,-1.8674,-1.9201,-1.9487,-1.9606,-1.9784,-2.0029,-1.9707,-1.9333,-1.9039,-1.8984,-1.8597,-1.849,-1.8563,-1.8764,-1.8954,-1.8998,-1.8911,-1.8564,-1.8189,-1.7868,-1.755,-1.7537,-1.7623,-1.7838,-1.8116,-1.864,-1.9066,-1.9303,-1.9486,-1.963,-1.9811,-2.0054,-2.0169,-2.0258,-2.0358,-2.0339,-2.028,-2.0154,-1.9922,-1.9525,-2.397,-2.3754,-2.3537,-2.3266,-2.3057,-2.2828,-2.2555,-2.2378,-2.2132,-2.19,-2.1686,-2.1337,-2.0873,-2.0395,-2.0027,-1.9661,-1.9186,-1.8532,-1.7846,-1.7172,-1.7057,-1.6894,-1.7049,-1.7375,-1.7514,-1.7302,-1.7066,-1.6984,-1.6984,-1.7017,-1.6976,-1.6935,-1.6894,-1.6894,-1.6812,-1.6689,-1.6607,-1.6607,-1.65,-1.6376,-1.6327,-1.6286,-1.6252,-1.6211,-1.6162,-1.6211,-1.6211,-1.6252,-1.6335,-1.6541,-1.6779,-1.6927,-1.7017,-1.7017,-1.7025,-1.7025,-1.7025,-1.6976,-1.6976,-1.7017,-1.6976,-1.7017,-1.7057,-1.6976,-1.6976,-1.7017,-1.7098,-1.7221,-1.7302,-1.7343,-1.7473,-1.7514,-1.7554,-1.7595,-1.7627,-1.7749,-1.8112,-1.8594,-1.8971,-1.9161,-1.9222,-1.9127,-1.8785,-1.8583,-1.8401,-1.8107,-1.801,-1.8003,-1.8134,-1.8337,-1.8375,-1.8372,-1.8146,-1.7832,-1.7677,-1.7326,-1.7134,-1.7136,-1.7312,-1.7523,-1.8018,-1.8425,-1.8629,-1.8854,-1.9066,-1.9303,-1.9539,-1.9591,-1.9656,-1.9837,-1.9978,-1.994,-1.9824,-1.9668,-1.9483,-2.2872,-2.2618,-2.2378,-2.2157,-2.1935,-2.1668,-2.1445,-2.1266,-2.1105,-2.0907,-2.0673,-2.0447,-2.0065,-1.9589,-1.9392,-1.9076,-1.8617,-1.7997,-1.7225,-1.6629,-1.6468,-1.6258,-1.5989,-1.6196,-1.636,-1.6533,-1.6492,-1.6368,-1.6278,-1.6237,-1.6188,-1.6105,-1.6105,-1.6064,-1.6105,-1.5982,-1.594,-1.5933,-1.5824,-1.5741,-1.5631,-1.5631,-1.5548,-1.5458,-1.545,-1.5458,-1.5409,-1.5409,-1.545,-1.5499,-1.5665,-1.5989,-1.6368,-1.6417,-1.6409,-1.6409,-1.6409,-1.6409,-1.6451,-1.6409,-1.6451,-1.6417,-1.6409,-1.6409,-1.6409,-1.6409,-1.6451,-1.6566,-1.6648,-1.6697,-1.6787,-1.6779,-1.682,-1.6894,-1.6935,-1.7017,-1.7302,-1.7829,-1.8322,-1.8474,-1.8514,-1.8461,-1.8297,-1.8109,-1.787,-1.7594,-1.7285,-1.7254,-1.7451,-1.7623,-1.7784,-1.7769,-1.7652,-1.7499,-1.7421,-1.7155,-1.6729,-1.673,-1.6797,-1.6994,-1.7312,-1.7661,-1.7952,-1.8251,-1.8572,-1.8774,-1.896,-1.904,-1.9158,-1.9317,-1.9436,-1.9514,-1.953,-1.942,-1.9258,-2.1713,-2.1454,-2.1266,-2.1033,-2.0763,-2.0501,-2.0275,-2.011,-2.0065,-1.9866,-1.9629,-1.9409,-1.9155,-1.8896,-1.8657,-1.8385,-1.7928,-1.753,-1.6798,-1.6166,-1.6086,-1.5848,-1.5545,-1.5374,-1.5407,-1.5872,-1.5812,-1.5707,-1.5567,-1.5526,-1.5484,-1.5352,-1.5311,-1.5311,-1.5269,-1.5276,-1.5228,-1.5186,-1.5151,-1.5075,-1.4957,-1.4964,-1.4831,-1.4734,-1.4692,-1.4748,-1.4789,-1.4768,-1.4768,-1.4747,-1.4711,-1.5176,-1.5666,-1.5895,-1.5873,-1.588,-1.5831,-1.579,-1.579,-1.5839,-1.5846,-1.5925,-1.5963,-1.6008,-1.6004,-1.603,-1.6087,-1.6118,-1.6152,-1.6118,-1.608,-1.6061,-1.6121,-1.6237,-1.6312,-1.6402,-1.6648,-1.7131,-1.7465,-1.7829,-1.7861,-1.7846,-1.7708,-1.7561,-1.7345,-1.706,-1.6741,-1.6578,-1.6769,-1.6934,-1.7132,-1.7329,-1.7244,-1.705,-1.6943,-1.677,-1.6367,-1.6311,-1.6316,-1.6477,-1.6648,-1.6881,-1.7234,-1.7772,-1.8084,-1.8263,-1.8425,-1.8506,-1.864,-1.8801,-1.8881,-1.8895,-1.9013,-1.9172,-1.9009,-2.0727,-2.0518,-2.0266,-2.0031,-1.982,-1.9546,-1.9279,-1.9096,-1.9058,-1.8773,-1.845,-1.835,-1.8071,-1.7699,-1.7606,-1.7289,-1.6923,-1.6648,-1.6339,-1.58,-1.5713,-1.5504,-1.5186,-1.495,-1.4874,-1.4792,-1.4887,-1.4937,-1.4859,-1.4859,-1.4817,-1.4817,-1.4776,-1.4734,-1.4608,-1.4566,-1.4524,-1.4391,-1.4363,-1.4292,-1.4291,-1.4289,-1.4296,-1.4191,-1.4211,-1.4291,-1.4445,-1.4542,-1.4636,-1.4814,-1.4847,-1.4916,-1.5014,-1.4978,-1.4965,-1.507,-1.5084,-1.5155,-1.5098,-1.5,-1.5106,-1.5255,-1.5383,-1.5518,-1.561,-1.5681,-1.5741,-1.5893,-1.5885,-1.5839,-1.5867,-1.5668,-1.5631,-1.5741,-1.5816,-1.5899,-1.6121,-1.6327,-1.6607,-1.6968,-1.7123,-1.7269,-1.7199,-1.7052,-1.6868,-1.6667,-1.6409,-1.6182,-1.6167,-1.6377,-1.6542,-1.6716,-1.6853,-1.6631,-1.6427,-1.6213,-1.5954,-1.5901,-1.5907,-1.5973,-1.6136,-1.621,-1.6542,-1.705,-1.7451,-1.7689,-1.7854,-1.7991,-1.81,-1.8236,-1.8275,-1.8275,-1.8371,-1.8494,-1.8667,-1.9546,-1.9317,-1.9088,-1.885,-1.8573,-1.8342,-1.8125,-1.8025,-1.8032,-1.7753,-1.7426,-1.7293,-1.7005,-1.6622,-1.6527,-1.6343,-1.6213,-1.6132,-1.5821,-1.5406,-1.5255,-1.5032,-1.4727,-1.4537,-1.4446,-1.4356,-1.4276,-1.4193,-1.4179,-1.4153,-1.413,-1.4026,-1.4026,-1.3977,-1.3935,-1.3899,-1.3828,-1.3737,-1.3623,-1.3651,-1.375,-1.3729,-1.3717,-1.3724,-1.3717,-1.3812,-1.3894,-1.3938,-1.3951,-1.4058,-1.4089,-1.4096,-1.411,-1.4116,-1.4254,-1.4603,-1.4763,-1.477,-1.4776,-1.4827,-1.4922,-1.5018,-1.5045,-1.5106,-1.5209,-1.5236,-1.5387,-1.5555,-1.5706,-1.5618,-1.5497,-1.5348,-1.5296,-1.5187,-1.5193,-1.5276,-1.5367,-1.5374,-1.5699,-1.6113,-1.636,-1.6542,-1.6748,-1.6589,-1.6416,-1.622,-1.6018,-1.5853,-1.5688,-1.5771,-1.5921,-1.6096,-1.6271,-1.6269,-1.6074,-1.5956,-1.5698,-1.5584,-1.5516,-1.5605,-1.5644,-1.576,-1.5933,-1.6267,-1.6655,-1.706,-1.7301,-1.7457,-1.759,-1.7645,-1.7645,-1.7661,-1.7717,-1.7826,-1.8018,-1.835,-1.811,-1.7885,-1.7652,-1.7358,-1.7138,-1.6998,-1.6998,-1.7005,-1.6763,-1.6393,-1.6346,-1.6062,-1.5683,-1.554,-1.5493,-1.5499,-1.5486,-1.5194,-1.4958,-1.486,-1.4606,-1.4283,-1.4072,-1.4002,-1.3847,-1.3685,-1.3647,-1.3803,-1.3719,-1.3582,-1.354,-1.3416,-1.3348,-1.3392,-1.3436,-1.3348,-1.3213,-1.3096,-1.3125,-1.3232,-1.3285,-1.3229,-1.3184,-1.3184,-1.3184,-1.3215,-1.322,-1.3273,-1.3326,-1.3344,-1.328,-1.3309,-1.3297,-1.3664,-1.4338,-1.4527,-1.4604,-1.4571,-1.4507,-1.4449,-1.4572,-1.4721,-1.4799,-1.4884,-1.4996,-1.5086,-1.5169,-1.5224,-1.5277,-1.51,-1.4968,-1.4833,-1.4697,-1.4544,-1.4531,-1.4615,-1.4664,-1.479,-1.5166,-1.5499,-1.5809,-1.6018,-1.6203,-1.6013,-1.5795,-1.5602,-1.5439,-1.53,-1.5182,-1.5284,-1.5497,-1.5658,-1.5809,-1.5786,-1.5811,-1.5568,-1.5344,-1.5284,-1.5268,-1.5287,-1.5341,-1.5508,-1.5643,-1.5961,-1.6353,-1.6655,-1.6899,-1.6994,-1.7022,-1.7022,-1.705,-1.7078,-1.7217,-1.7412,-1.7372,-1.7131,-1.6864,-1.6629,-1.6332,-1.6109,-1.5967,-1.5967,-1.5967,-1.5818,-1.5534,-1.548,-1.5248,-1.4873,-1.4592,-1.449,-1.449,-1.4484,-1.4459,-1.4291,-1.4297,-1.4136,-1.3898,-1.3661,-1.3496,-1.3316,-1.3049,-1.3275,-1.3483,-1.3477,-1.3413,-1.3344,-1.3276,-1.3297,-1.3028,-1.3016,-1.3011,-1.2807,-1.2756,-1.2739,-1.2734,-1.2786,-1.2682,-1.2539,-1.2464,-1.2501,-1.2579,-1.2606,-1.2667,-1.2848,-1.2838,-1.2855,-1.2876,-1.2876,-1.2871,-1.3126,-1.3362,-1.3598,-1.3601,-1.3683,-1.3808,-1.4001,-1.4136,-1.4412,-1.4575,-1.4779,-1.4927,-1.507,-1.4899,-1.4746,-1.4618,-1.4276,-1.4132,-1.403,-1.3985,-1.4014,-1.4046,-1.3942,-1.4033,-1.4201,-1.4573,-1.4985,-1.5255,-1.5493,-1.5636,-1.5385,-1.517,-1.5019,-1.4858,-1.4722,-1.4792,-1.4999,-1.5169,-1.531,-1.5444,-1.5489,-1.5406,-1.5139,-1.5078,-1.4988,-1.49,-1.4898,-1.4938,-1.5107,-1.5391,-1.5643,-1.5941,-1.6161,-1.6343,-1.64,-1.6428,-1.64,-1.641,-1.6609,-1.6835,-1.5812,-1.6048,-1.5818,-1.5581,-1.535,-1.5064,-1.4968,-1.4968,-1.4968,-1.4819,-1.4573,-1.4526,-1.434,-1.4016,-1.3877,-1.3781,-1.3678,-1.363,-1.3576,-1.348,-1.3485,-1.3389,-1.3258,-1.3137,-1.2986,-1.2841,-1.2702,-1.2632,-1.2952,-1.3003,-1.2956,-1.2837,-1.278,-1.2655,-1.2551,-1.2512,-1.2403,-1.2345,-1.2295,-1.2242,-1.214,-1.2219,-1.2247,-1.2104,-1.2099,-1.2114,-1.2129,-1.2181,-1.2212,-1.2322,-1.2219,-1.2127,-1.2073,-1.1975,-1.1922,-1.215,-1.2294,-1.2605,-1.2983,-1.3055,-1.3201,-1.3358,-1.3559,-1.3701,-1.3998,-1.425,-1.4394,-1.4388,-1.444,-1.4358,-1.4229,-1.4028,-1.3777,-1.3598,-1.3411,-1.3336,-1.3327,-1.3277,-1.3307,-1.3476,-1.3652,-1.4019,-1.4433,-1.4699,-1.4898,-1.4906,-1.4735,-1.4599,-1.4396,-1.4197,-1.4351,-1.4605,-1.474,-1.4835,-1.5016,-1.511,-1.5109,-1.4976,-1.4966,-1.4804,-1.4509,-1.4449,-1.4507,-1.4558,-1.4743,-1.499,-1.5216,-1.5507,-1.5758,-1.5797,-1.5797,-1.5797,-1.5797,-1.599,-1.6181,-1.4244,-1.4765,-1.4717,-1.4532,-1.4256,-1.4058,-1.3919,-1.3913,-1.3962,-1.3817,-1.3667,-1.357,-1.3431,-1.3244,-1.3152,-1.3001,-1.2807,-1.2807,-1.2759,-1.2662,-1.2619,-1.2613,-1.2608,-1.2597,-1.2549,-1.2467,-1.227,-1.2167,-1.2128,-1.221,-1.2222,-1.2215,-1.2291,-1.2212,-1.205,-1.1984,-1.1906,-1.1827,-1.1804,-1.1723,-1.1609,-1.1729,-1.1736,-1.1712,-1.1683,-1.1634,-1.1585,-1.158,-1.1585,-1.1536,-1.1389,-1.1296,-1.1292,-1.1198,-1.1145,-1.1287,-1.1376,-1.1526,-1.2012,-1.2308,-1.2608,-1.2807,-1.2953,-1.3076,-1.3335,-1.3528,-1.3619,-1.3624,-1.3752,-1.3742,-1.3673,-1.3526,-1.3303,-1.2989,-1.2761,-1.2668,-1.2553,-1.2574,-1.2607,-1.2759,-1.293,-1.3052,-1.3428,-1.3844,-1.4129,-1.433,-1.4311,-1.4183,-1.4,-1.3769,-1.3814,-1.4076,-1.4152,-1.4281,-1.4438,-1.4605,-1.4646,-1.4724,-1.4714,-1.4595,-1.4287,-1.4121,-1.4101,-1.4144,-1.4169,-1.4204,-1.4384,-1.4803,-1.5186,-1.5177,-1.5177,-1.5177,-1.5216,-1.54,-1.5614,-1.2958,-1.3007,-1.3426,-1.3468,-1.3244,-1.3001,-1.291,-1.2905,-1.2905,-1.2856,-1.2802,-1.2613,-1.2511,-1.2419,-1.2273,-1.2127,-1.2073,-1.2078,-1.2029,-1.2024,-1.2024,-1.1975,-1.1932,-1.1932,-1.1883,-1.1683,-1.159,-1.1492,-1.1385,-1.1371,-1.1627,-1.1925,-1.1814,-1.1933,-1.1831,-1.1568,-1.1385,-1.1298,-1.1264,-1.123,-1.1186,-1.1228,-1.114,-1.0949,-1.09,-1.0757,-1.0511,-1.056,-1.0609,-1.0605,-1.0511,-1.0511,-1.0462,-1.0359,-1.0355,-1.0458,-1.0458,-1.0605,-1.09,-1.1536,-1.198,-1.2127,-1.2273,-1.2467,-1.2662,-1.2813,-1.2861,-1.2807,-1.2851,-1.2894,-1.2796,-1.2698,-1.2551,-1.2365,-1.2177,-1.2098,-1.1971,-1.1848,-1.1927,-1.2098,-1.2203,-1.2326,-1.2448,-1.282,-1.3464,-1.3699,-1.3838,-1.3762,-1.3632,-1.3463,-1.3381,-1.3475,-1.3535,-1.3667,-1.3863,-1.3975,-1.4137,-1.4218,-1.4265,-1.4193,-1.4016,-1.3921,-1.3762,-1.3622,-1.3575,-1.3549,-1.3565,-1.397,-1.4285,-1.4476,-1.4558,-1.4558,-1.4647,-1.4843,-1.5079,-1.1829,-1.1829,-1.1824,-1.2068,-1.2419,-1.2175,-1.198,-1.1834,-1.1834,-1.1829,-1.178,-1.1683,-1.1688,-1.1639,-1.1585,-1.1389,-1.1292,-1.1247,-1.1198,-1.1051,-1.0998,-1.1002,-1.1002,-1.1047,-1.0949,-1.085,-1.085,-1.085,-1.0708,-1.0654,-1.0752,-1.0993,-1.1145,-1.1096,-1.0998,-1.0949,-1.0801,-1.0752,-1.0708,-1.0703,-1.0708,-1.0708,-1.0609,-1.031,-1.0314,-1.0167,-0.9969,-0.992,-0.9924,-0.9875,-0.9776,-0.9727,-0.9673,-0.9571,-0.9571,-0.9673,-0.9723,-0.9772,-0.9969,-1.0605,-1.1051,-1.1296,-1.1487,-1.1736,-1.1834,-1.1834,-1.1829,-1.1834,-1.1883,-1.1883,-1.1804,-1.1846,-1.1857,-1.1709,-1.1568,-1.1487,-1.1391,-1.1274,-1.1298,-1.1435,-1.15,-1.1542,-1.1671,-1.18,-1.2485,-1.3142,-1.3243,-1.3337,-1.3247,-1.3144,-1.302,-1.2955,-1.3016,-1.3107,-1.3293,-1.347,-1.3637,-1.3672,-1.3748,-1.362,-1.352,-1.3503,-1.3339,-1.3202,-1.301,-1.3025,-1.3068,-1.3185,-1.342,-1.3709,-1.3881,-1.3962,-1.4121,-1.427,-1.4508,-1.085,-1.0806,-1.0556,-1.0904,-1.1585,-1.134,-1.1145,-1.1002,-1.0904,-1.0801,-1.0708,-1.0703,-1.0703,-1.0703,-1.0708,-1.0609,-1.0462,-1.0462,-1.0314,-1.0265,-1.0216,-1.0167,-1.0171,-1.0167,-1.0162,-1.0064,-1.0015,-1.0019,-0.9862,-0.9916,-0.9912,-0.9961,-1.0113,-1.0113,-1.0364,-1.0117,-1.0019,-0.9965,-0.9916,-0.9916,-0.9916,-0.9916,-0.9867,-0.962,-0.962,-0.9571,-0.9422,-0.9373,-0.9377,-0.9327,-0.9229,-0.9133,-0.9031,-0.8981,-0.8928,-0.8981,-0.9084,-0.9183,-0.9426,-0.9871,-1.0216,-1.0462,-1.056,-1.0757,-1.0806,-1.0855,-1.09,-1.1002,-1.1002,-1.0949,-1.0949,-1.1116,-1.119,-1.1014,-1.0939,-1.0889,-1.0808,-1.0739,-1.0756,-1.0808,-1.0819,-1.0771,-1.0895,-1.1068,-1.1709,-1.24,-1.2783,-1.2873,-1.2836,-1.2732,-1.2632,-1.2577,-1.2542,-1.2632,-1.276,-1.282,-1.2884,-1.2989,-1.2998,-1.2998,-1.2928,-1.2935,-1.2805,-1.256,-1.2448,-1.2441,-1.2469,-1.251,-1.2735,-1.303,-1.3189,-1.331,-1.3519,-1.3679,-1.3881,-1.0019,-0.9969,-0.9723,-1.0068,-1.0703,-1.0556,-1.0408,-1.031,-1.0117,-0.992,-0.9723,-0.9673,-0.9673,-0.9673,-0.9673,-0.9575,-0.9575,-0.9624,-0.9575,-0.9575,-0.9624,-0.9628,-0.9628,-0.9575,-0.9525,-0.9286,-0.9282,-0.9274,-0.897,-0.9122,-0.9023,-0.9019,-0.9171,-0.9324,-0.9871,-0.9476,-0.913,-0.8924,-0.8924,-0.9023,-0.9023,-0.9069,-0.9072,-0.8977,-0.8928,-0.8878,-0.8779,-0.8676,-0.863,-0.8627,-0.8627,-0.8577,-0.8577,-0.8581,-0.8577,-0.8627,-0.868,-0.8726,-0.8825,-0.9324,-0.9476,-0.9673,-0.9821,-0.9871,-0.9969,-1.0019,-1.0068,-1.0212,-1.031,-1.031,-1.0359,-1.0408,-1.0391,-1.0396,-1.0281,-1.0262,-1.0238,-1.0162,-1.0154,-1.0072,-1.0055,-1.0047,-1.0168,-1.0419,-1.102,-1.1623,-1.2143,-1.2336,-1.2326,-1.2265,-1.2145,-1.2166,-1.2089,-1.2181,-1.2222,-1.2104,-1.2129,-1.2244,-1.2285,-1.2238,-1.2231,-1.2228,-1.2087,-1.187,-1.1868,-1.1899,-1.1805,-1.1737,-1.201,-1.2242,-1.25,-1.2693,-1.2899,-1.3072,-1.3255,-0.9171,-0.9175,-0.8928,-0.8928,-0.9225,-0.9525,-0.9525,-0.932,-0.9221,-0.9171,-0.9027,-0.8882,-0.8783,-0.8779,-0.8634,-0.8584,-0.8584,-0.8783,-0.8832,-0.8829,-0.8928,-0.9076,-0.9027,-0.8977,-0.8977,-0.8977,-0.8931,-0.8829,-0.8825,-0.8676,-0.8726,-0.8775,-0.8528,-0.8775,-0.9072,-0.8977,-0.8878,-0.8825,-0.8825,-0.8825,-0.8775,-0.8726,-0.8676,-0.8531,-0.8333,-0.8184,-0.8084,-0.7985,-0.7882,-0.7882,-0.7882,-0.7832,-0.7832,-0.7832,-0.7783,-0.7783,-0.7736,-0.7733,-0.7733,-0.7982,-0.8382,-0.873,-0.9027,-0.9076,-0.9225,-0.9221,-0.927,-0.9324,-0.9418,-0.9418,-0.932,-0.9525,-0.9567,-0.962,-0.9637,-0.97,-0.9679,-0.9603,-0.9528,-0.9362,-0.9268,-0.9425,-0.9551,-0.965,-1.0111,-1.0544,-1.102,-1.1499,-1.1586,-1.1612,-1.1587,-1.1632,-1.1665,-1.1727,-1.1754,-1.1623,-1.1555,-1.1626,-1.1596,-1.1471,-1.1477,-1.1484,-1.1434,-1.1278,-1.1314,-1.1375,-1.1209,-1.1141,-1.1232,-1.1436,-1.1771,-1.2118,-1.2422,-1.2523,-1.2552,-0.8457,-0.8414,-0.8221,-0.8089,-0.8174,-0.8585,-0.8634,-0.8425,-0.8375,-0.8326,-0.8226,-0.8031,-0.7982,-0.7935,-0.7839,-0.7739,-0.7736,-0.7885,-0.7985,-0.7982,-0.8131,-0.818,-0.823,-0.828,-0.818,-0.828,-0.828,-0.818,-0.8131,-0.823,-0.818,-0.8081,-0.8088,-0.8031,-0.823,-0.8329,-0.8435,-0.8336,-0.8287,-0.8233,-0.818,-0.818,-0.8131,-0.7982,-0.7786,-0.764,-0.749,-0.7288,-0.7185,-0.7138,-0.7089,-0.7089,-0.7039,-0.6989,-0.6939,-0.6939,-0.6936,-0.6936,-0.6986,-0.6986,-0.7385,-0.7783,-0.8127,-0.8276,-0.8379,-0.8375,-0.8478,-0.8528,-0.8478,-0.8478,-0.8528,-0.8737,-0.8737,-0.8836,-0.8859,-0.8928,-0.8946,-0.8873,-0.8865,-0.8722,-0.8659,-0.882,-0.8922,-0.8972,-0.92,-0.9506,-0.9854,-1.0328,-1.0761,-1.0875,-1.0983,-1.107,-1.1135,-1.12,-1.1207,-1.1147,-1.1111,-1.1074,-1.0941,-1.0796,-1.0706,-1.0706,-1.07,-1.07,-1.0648,-1.0615,-1.0558,-1.0545,-1.0728,-1.088,-1.1134,-1.1531,-1.1908,-1.2,-1.1989,-0.7795,-0.7766,-0.7642,-0.753,-0.7599,-0.7788,-0.7769,-0.7543,-0.7584,-0.7431,-0.7188,-0.7185,-0.7188,-0.7138,-0.7135,-0.7086,-0.7089,-0.7138,-0.7138,-0.7185,-0.7285,-0.7285,-0.7285,-0.7338,-0.7434,-0.7335,-0.7391,-0.755,-0.7297,-0.7569,-0.7513,-0.7387,-0.7525,-0.7525,-0.767,-0.7824,-0.7902,-0.7816,-0.7739,-0.7686,-0.7584,-0.7434,-0.7484,-0.7385,-0.7288,-0.7185,-0.7036,-0.6989,-0.6989,-0.6939,-0.6842,-0.6792,-0.6692,-0.6539,-0.6437,-0.6387,-0.6384,-0.6384,-0.6387,-0.6387,-0.6387,-0.6734,-0.6933,-0.7232,-0.7481,-0.758,-0.763,-0.7736,-0.7786,-0.7836,-0.7889,-0.7889,-0.7892,-0.7939,-0.7988,-0.8011,-0.8047,-0.808,-0.8139,-0.8116,-0.8066,-0.8106,-0.8184,-0.8251,-0.834,-0.85,-0.8803,-0.9065,-0.9545,-1.0072,-1.0226,-1.0514,-1.0597,-1.0658,-1.0647,-1.0603,-1.0538,-1.0431,-1.0256,-1.0117,-1.0017,-0.9884,-0.9889,-0.9889,-0.9895,-0.9873,-0.9873,-1.0042,-1.0248,-1.0458,-1.0599,-1.1023,-1.1464,-1.1506,-1.1547,-0.7135,-0.6941,-0.6744,-0.669,-0.6682,-0.6566,-0.6649,-0.6867,-0.6782,-0.6684,-0.6637,-0.6439,-0.6348,-0.6339,-0.6137,-0.6087,-0.6137,-0.6239,-0.6342,-0.6389,-0.6537,-0.6689,-0.6845,-0.6904,-0.6992,-0.7101,-0.7163,-0.711,-0.7295,-0.7352,-0.741,-0.7538,-0.7282,-0.7346,-0.7401,-0.7577,-0.7457,-0.7362,-0.7281,-0.7228,-0.7169,-0.7074,-0.7118,-0.7021,-0.6773,-0.6673,-0.6623,-0.6313,-0.6213,-0.6102,-0.5994,-0.5942,-0.5937,-0.5837,-0.5837,-0.5837,-0.5834,-0.5834,-0.5834,-0.5834,-0.5784,-0.5784,-0.5984,-0.6287,-0.6584,-0.6734,-0.6786,-0.6939,-0.6989,-0.6986,-0.6986,-0.6989,-0.7039,-0.7089,-0.7138,-0.7185,-0.7223,-0.735,-0.7413,-0.7443,-0.7412,-0.7439,-0.7482,-0.7548,-0.7624,-0.7627,-0.7753,-0.8017,-0.8456,-0.903,-0.9423,-0.9753,-0.9899,-0.9966,-1.0061,-1.001,-0.9917,-0.981,-0.9608,-0.9442,-0.9335,-0.9228,-0.9154,-0.9134,-0.9123,-0.9175,-0.9253,-0.9432,-0.9675,-0.9916,-1.0094,-1.0551,-1.0928,-1.0983,-1.1133,-0.6432,-0.619,-0.6122,-0.5966,-0.5744,-0.5549,-0.5603,-0.5748,-0.596,-0.605,-0.5956,-0.5703,-0.5578,-0.5491,-0.5386,-0.5336,-0.5336,-0.5436,-0.5589,-0.5741,-0.5849,-0.608,-0.6292,-0.6417,-0.6455,-0.6658,-0.6688,-0.6586,-0.6856,-0.6904,-0.6898,-0.684,-0.6959,-0.6962,-0.6893,-0.6821,-0.6772,-0.6795,-0.6847,-0.6941,-0.6881,-0.6777,-0.6683,-0.6621,-0.6315,-0.6264,-0.6162,-0.5697,-0.5549,-0.5451,-0.5453,-0.5197,-0.515,-0.5099,-0.5016,-0.4965,-0.4944,-0.492,-0.4897,-0.4937,-0.4935,-0.4987,-0.5041,-0.5085,-0.5486,-0.5734,-0.5987,-0.6187,-0.6137,-0.6084,-0.6084,-0.6087,-0.6187,-0.6289,-0.6339,-0.6389,-0.6489,-0.6637,-0.6712,-0.6717,-0.6714,-0.6762,-0.6768,-0.6836,-0.6894,-0.6866,-0.6968,-0.718,-0.7669,-0.8245,-0.8636,-0.8938,-0.9109,-0.9257,-0.9313,-0.9311,-0.9175,-0.9034,-0.8899,-0.8749,-0.8644,-0.8546,-0.8489,-0.8399,-0.8342,-0.844,-0.8579,-0.8789,-0.9036,-0.9279,-0.9501,-0.9872,-1.0231,-1.0569,-1.0761,-0.5686,-0.5432,-0.563,-0.5359,-0.4916,-0.479,-0.4595,-0.4375,-0.4996,-0.528,-0.5207,-0.4981,-0.484,-0.4855,-0.4796,-0.479,-0.4798,-0.4849,-0.4957,-0.5115,-0.5152,-0.534,-0.5585,-0.5707,-0.5839,-0.586,-0.5943,-0.6123,-0.6011,-0.6168,-0.6302,-0.5926,-0.611,-0.6185,-0.6195,-0.6136,-0.6117,-0.61,-0.6232,-0.6386,-0.6353,-0.6099,-0.59,-0.5884,-0.5826,-0.5778,-0.5673,-0.5521,-0.5369,-0.5206,-0.499,-0.4663,-0.4501,-0.4392,-0.4252,-0.4127,-0.4155,-0.4181,-0.4203,-0.4244,-0.418,-0.4172,-0.4051,-0.428,-0.4704,-0.5002,-0.5238,-0.5286,-0.5236,-0.5233,-0.5233,-0.5284,-0.5336,-0.5436,-0.5539,-0.5586,-0.5737,-0.5884,-0.6056,-0.6088,-0.6203,-0.6214,-0.6177,-0.6253,-0.6249,-0.6204,-0.6292,-0.6445,-0.6773,-0.7354,-0.7775,-0.8036,-0.8241,-0.8368,-0.8448,-0.8447,-0.8403,-0.8291,-0.8231,-0.8181,-0.816,-0.8004,-0.7825,-0.7813,-0.7832,-0.7811,-0.7923,-0.8175,-0.8417,-0.8623,-0.8851,-0.9122,-0.9478,-0.9926,-1.0362,-0.4841,-0.4592,-0.4748,-0.4704,-0.4534,-0.4296,-0.4121,-0.4012,-0.3772,-0.4024,-0.441,-0.439,-0.4323,-0.4241,-0.4236,-0.4236,-0.4294,-0.4171,-0.4357,-0.4402,-0.445,-0.4659,-0.4855,-0.5021,-0.5202,-0.5464,-0.5642,-0.5692,-0.58,-0.6025,-0.6134,-0.6134,-0.6067,-0.5886,-0.5722,-0.5722,-0.561,-0.549,-0.5435,-0.576,-0.5894,-0.5912,-0.5847,-0.5589,-0.5435,-0.518,-0.4967,-0.4695,-0.4583,-0.4418,-0.4417,-0.4203,-0.399,-0.3942,-0.3773,-0.3545,-0.349,-0.3579,-0.367,-0.3708,-0.3761,-0.398,-0.4036,-0.4096,-0.4226,-0.434,-0.4392,-0.4392,-0.4435,-0.4483,-0.4483,-0.4483,-0.4533,-0.4636,-0.4736,-0.4885,-0.4983,-0.5181,-0.5377,-0.5463,-0.5598,-0.559,-0.5562,-0.5603,-0.5608,-0.5623,-0.566,-0.5775,-0.5836,-0.6271,-0.6754,-0.705,-0.7323,-0.7448,-0.7536,-0.7658,-0.7661,-0.7745,-0.7712,-0.7705,-0.7646,-0.7465,-0.7296,-0.7334,-0.7394,-0.7382,-0.7446,-0.7592,-0.7837,-0.8103,-0.832,-0.8607,-0.887,-0.9243,-0.9745,-0.4047,-0.3747,-0.3704,-0.3699,-0.3699,-0.3477,-0.3422,-0.3365,-0.3027,-0.3164,-0.3489,-0.3516,-0.349,-0.3468,-0.3462,-0.3522,-0.3521,-0.3406,-0.3504,-0.3564,-0.3849,-0.4064,-0.4183,-0.4362,-0.4667,-0.4992,-0.506,-0.5156,-0.541,-0.5443,-0.5423,-0.5545,-0.5489,-0.5431,-0.5206,-0.5206,-0.515,-0.4977,-0.476,-0.4926,-0.5268,-0.527,-0.5222,-0.5005,-0.4895,-0.4622,-0.4358,-0.4086,-0.3869,-0.3707,-0.3549,-0.3441,-0.328,-0.3282,-0.3151,-0.3079,-0.3014,-0.3061,-0.3208,-0.3309,-0.3364,-0.3526,-0.3466,-0.3291,-0.3287,-0.338,-0.3816,-0.3859,-0.4147,-0.4185,-0.4183,-0.4234,-0.4234,-0.4284,-0.4336,-0.4384,-0.4433,-0.4531,-0.463,-0.4628,-0.4718,-0.4708,-0.4747,-0.4844,-0.4856,-0.4923,-0.4978,-0.5153,-0.5215,-0.5264,-0.5713,-0.6076,-0.6329,-0.6678,-0.6871,-0.6959,-0.699,-0.7088,-0.7187,-0.7085,-0.695,-0.6885,-0.6787,-0.6836,-0.6905,-0.7019,-0.7086,-0.7247,-0.7501,-0.7855,-0.8017,-0.8177,-0.8399,-0.8674,-0.9123,-0.3353,-0.2955,-0.2769,-0.2693,-0.2693,-0.2637,-0.2637,-0.2637,-0.2581,-0.2581,-0.2626,-0.2591,-0.2501,-0.2532,-0.2521,-0.2521,-0.2636,-0.2869,-0.2859,-0.2963,-0.3231,-0.3423,-0.3664,-0.3897,-0.4084,-0.4216,-0.434,-0.4401,-0.4468,-0.4482,-0.4536,-0.4424,-0.4369,-0.4367,-0.4313,-0.4313,-0.4257,-0.4145,-0.4089,-0.4145,-0.4308,-0.4424,-0.4409,-0.4414,-0.4313,-0.4145,-0.3867,-0.3586,-0.3304,-0.3132,-0.29,-0.273,-0.2618,-0.2614,-0.2492,-0.242,-0.2469,-0.2507,-0.2543,-0.2592,-0.2588,-0.2582,-0.252,-0.252,-0.2521,-0.2773,-0.3172,-0.3397,-0.3648,-0.3753,-0.3753,-0.3736,-0.3786,-0.3783,-0.3783,-0.3783,-0.3781,-0.3831,-0.3831,-0.3882,-0.393,-0.3929,-0.4054,-0.416,-0.4237,-0.4262,-0.4372,-0.4522,-0.4666,-0.4667,-0.4855,-0.5143,-0.5392,-0.5745,-0.6106,-0.6308,-0.6308,-0.634,-0.6387,-0.6343,-0.6319,-0.6312,-0.6294,-0.6368,-0.6436,-0.655,-0.6747,-0.6935,-0.7245,-0.7532,-0.7789,-0.7959,-0.8155,-0.8391,-0.8602,-0.2704,-0.2672,-0.2672,-0.2693,-0.2637,-0.2412,-0.23,-0.2244,-0.2075,-0.1963,-0.1961,-0.2016,-0.2171,-0.2666,-0.2668,-0.2606,-0.248,-0.2541,-0.2608,-0.278,-0.2814,-0.2887,-0.3007,-0.3222,-0.3183,-0.3415,-0.3642,-0.3755,-0.3755,-0.3755,-0.3755,-0.3754,-0.3754,-0.3642,-0.3417,-0.3418,-0.3418,-0.3363,-0.3251,-0.3253,-0.3363,-0.3531,-0.3868,-0.3811,-0.353,-0.3251,-0.2973,-0.2918,-0.2862,-0.2693,-0.2412,-0.2188,-0.2019,-0.1963,-0.1844,-0.1783,-0.1835,-0.1997,-0.204,-0.2094,-0.2091,-0.2315,-0.2314,-0.2373,-0.242,-0.2404,-0.2657,-0.2639,-0.2807,-0.2854,-0.2888,-0.2898,-0.2885,-0.2877,-0.2875,-0.2875,-0.2925,-0.3026,-0.3127,-0.3278,-0.3428,-0.3478,-0.3623,-0.3704,-0.3852,-0.3877,-0.3892,-0.4053,-0.4089,-0.4096,-0.4102,-0.4356,-0.4563,-0.4782,-0.5143,-0.5534,-0.5662,-0.5646,-0.5722,-0.5764,-0.5808,-0.5802,-0.5855,-0.5859,-0.5988,-0.6083,-0.6299,-0.6577,-0.6826,-0.7087,-0.7528,-0.7788,-0.7939,-0.8176,-0.8356]},{"header":{"parameterUnit":"m.s-1","parameterCategory":1,"la1":31.0,"la2":29.5877,"lo1":-88.7671,"lo2":-86.6584,"dy":0.0162,"dx":0.0185,"nx":115,"ny":88,"refTime":"2024-08-26T00:00:00:Z","depth":0,"parameterNumber":3,"parameterNumberName":"V-component_of_WINDS"},"data":[0.0,0.0,0.0,0.0,0.0,0.0,0.0,0.0,0.0,0.0,0.0,0.0,0.0,0.0,0.0,0.0,0.0,0.0,0.0,0.0,0.0,0.0,0.0,0.0,0.0,0.0,0.0,0.0,0.0,0.0,0.0,0.0,0.0,0.0,0.0,0.0,0.0,0.0,0.0,0.0,0.0,0.0,0.0,0.0,0.0,0.0,0.0,0.0,0.0,0.0,0.0,0.0,0.0,0.0,0.0,0.0,0.0,0.0,0.0,0.0,0.0,0.0,0.0,0.0,0.0,0.0,0.0,0.0,0.0,0.0,0.0,0.0,0.0,0.0,0.0,0.0,0.0,0.0,0.0,0.0,0.0,0.0,0.0,0.0,0.0,0.0,0.0,0.0,0.0,0.0,0.0,0.0,0.0,0.0,0.0,0.0,0.0,0.0,0.0,0.0,0.0,0.0,0.0,0.0,0.0,0.0,0.0,0.0,0.0,0.0,0.0,0.0,0.0,0.0,0.0,0.0,0.0,0.0,0.0,0.0,0.0,0.0,0.0,0.0,0.0,0.0,0.0,0.0,0.0,0.0,0.0,0.0,0.0,0.0,0.0,0.0,0.0,0.0,0.0,0.0,0.0,0.0,0.0,0.0,0.0,0.0,0.0,0.0,0.0,0.0,0.0,0.0,0.0,0.0,0.0,0.0,0.0,0.0,0.0,0.0,0.0,0.0,0.0,0.0,0.0,0.0,0.0,0.0,0.0,0.0,0.0,0.0,0.0,0.0,0.0,0.0,0.0,0.0,0.0,0.0,0.0,0.0,0.0,0.0,0.0,0.0,0.0,0.0,0.0,0.0,0.0,0.0,0.0,0.0,0.0,0.0,0.0,0.0,0.0,0.0,0.0,0.0,0.0,0.0,0.0,0.0,0.0,0.0,0.0,0.0,0.0,0.0,0.0,0.0,0.0,0.0,0.0,0.0,0.0,0.0,0.0,0.0,0.0,0.0,0.0,0.0,0.0,0.0,0.0,0.0,0.0,0.0,0.0,0.0,0.0,0.0,0.0,0.0,0.0,0.0,0.0,0.0,0.0,0.0,0.0,0.0,0.0,0.0,0.0,0.0,0.0,0.0,0.0,0.0,0.0,0.0,0.0,0.0,0.0,0.0,0.0,0.0,0.0,0.0,0.0,0.0,0.0,0.0,0.0,0.0,0.0,0.0,0.0,0.0,0.0,0.0,0.0,0.0,0.0,0.0,0.0,0.0,0.0,0.0,0.0,0.0,0.0,0.0,0.0,0.0,0.0,0.0,0.0,0.0,0.0,0.0,0.0,0.0,0.0,0.0,0.0,0.0,0.0,0.0,0.0,0.0,0.0,0.0,0.0,0.0,0.0,0.0,0.0,0.0,0.0,0.0,0.0,0.0,0.0,0.0,0.0,0.0,0.0,0.0,0.0,0.0,0.0,0.0,0.0,0.0,0.0,0.0,0.0,0.0,0.0,0.0,0.0,0.0,0.0,0.0,0.0,0.0,0.0,0.0,0.0,0.0,0.0,0.0,0.0,0.0,0.0,0.0,0.0,0.0,0.0,0.0,0.0,0.0,0.0,0.0,0.0,0.0,0.0,0.0,0.0,0.0,0.0,0.0,0.0,0.0,0.0,0.0,0.0,0.0,0.0,0.0,0.0,0.0,0.0,0.0,0.0,0.0,0.0,0.0,0.0,0.0,0.0,0.0,0.0,0.0,0.0,0.0,0.0,0.0,0.0,0.0,0.0,0.0,0.0,0.0,0.0,0.0,0.0,0.0,0.0,0.0,0.0,0.0,0.0,0.0,0.0,0.0,0.0,0.0,0.0,0.0,0.0,0.0,0.0,0.0,0.0,0.0,0.0,0.0,0.0,0.0,0.0,0.0,0.0,0.0,0.0,0.0,0.0,0.0,0.0,0.0,0.0,0.0,0.0,0.0,0.0,0.0,0.0,0.0,0.0,0.0,0.0,0.0,0.0,0.0,0.0,0.0,0.0,0.0,0.0,0.0,0.0,0.0,0.0,0.0,0.0,0.0,0.0,0.0,0.0,0.0,0.0,0.0,0.0,0.0,0.0,0.0,0.0,0.0,0.0,0.0,0.0,0.0,0.0,0.0,0.0,0.0,0.0,0.0,0.0,0.0,0.0,0.0,0.0,0.0,0.0,0.0,0.0,0.0,0.0,0.0,0.0,0.0,0.0,0.0,0.0,0.0,0.0,0.0,0.0,0.0,0.0,0.0,0.0,0.0,0.0,0.0,0.0,0.0,0.0,0.0,0.0,0.0,0.0,0.0,0.0,0.0,0.0,0.0,0.0,0.0,0.0,0.0,0.0,0.0,0.0,0.0,0.0,0.0,0.0,0.0,0.0,0.0,0.0,0.0,0.0,0.0,0.0,0.0,0.0,0.0,0.0,0.0,0.0,0.0,0.0,0.0,0.0,0.0,0.0,0.0,0.0,0.0,0.0,0.0,0.0,0.0,0.0,0.0,0.0,0.0,0.0,0.0,0.0,0.0,0.0,0.0,0.0,0.0,0.0,0.0,0.0,0.0,0.0,0.0,0.0,0.0,0.0,0.0,0.0,0.0,0.0,0.0,0.0,0.0,0.0,0.0,0.0,0.0,0.0,0.0,0.0,0.0,0.0,0.0,0.0,0.0,0.0,0.0,0.0,0.0,0.0,0.0,0.0,0.0,0.0,0.0,0.0,0.0,0.0,0.0,0.0,0.0,0.0,0.0,0.0,0.0,0.0,0.0,0.0,0.0,0.0,0.0,0.0,0.0,0.0,0.0,0.0,0.0,0.0,0.0,0.0,0.0,0.0,0.0,0.0,0.0,0.0,0.0,0.0,0.0,0.0,0.0,0.0,0.0,0.0,0.0,0.0,0.0,0.0,0.0,0.0,0.0,0.0,0.0,0.0,0.0,0.0,0.0,0.0,0.0,0.0,0.0,0.0,0.0,0.0,0.0,0.0,0.0,0.0,0.0,0.0,0.0,0.0,0.0,0.0,0.0,0.0,0.0,0.0,0.0,0.0,0.0,0.0,0.0,0.0,0.0,0.0,0.0,0.0,0.0,0.0,0.0,0.0,0.0,0.0,0.0,0.0,0.0,0.0,0.0,0.0,0.0,0.0,0.0,0.0,0.0,0.0,0.0,0.0,0.0,0.0,0.0,0.0,0.0,0.0,0.0,0.0,0.0,0.0,0.0,0.0,0.0,0.0,0.0,0.0,0.0,0.0,0.0,0.0,0.0,0.0,0.0,0.0,0.0,0.0,0.0,0.0,0.0,0.0,0.0,0.0,0.0,0.0,0.0,0.0,0.0,0.0,0.0,0.0,0.0,0.0,0.0,0.0,0.0,0.0,0.0,0.0,0.0,0.0,0.0,0.0,0.0,0.0,0.0,0.0,0.0,0.0,0.0,0.0,0.0,0.0,0.0,0.0,0.0,0.0,0.0,0.0,0.0,0.0,0.0,0.0,0.0,0.0,0.0,0.0,0.0,0.0,0.0,0.0,0.0,0.0,0.0,0.0,0.0,0.0,0.0,0.0,0.0,0.0,0.0,0.0,0.0,0.0,0.0,0.0,0.0,0.0,0.0,0.0,0.0,0.0,0.0,0.0,0.0,0.0,0.0,0.0,0.0,0.0,0.0,0.0,0.0,0.0,0.0,0.0,0.0,0.0,0.0,0.0,0.0,0.0,0.0,0.0,0.0,0.0,0.0,0.0,0.0,0.0,0.0,0.0,0.0,0.0,0.0,0.0,0.0,0.0,0.0,0.0,0.0,0.0,0.0,0.0,0.0,0.0,0.0,0.0,0.0,0.0,0.0,0.0,0.0,0.0,0.0,0.0,0.0,0.0,0.0,0.0,0.0,0.0,0.0,0.0,0.0,0.0,0.0,0.0,0.0,0.0,0.0,0.0,0.0,0.0,0.0,0.0,0.0,0.0,0.0,0.0,0.0,0.0,0.0,0.0,0.0,0.0,0.0,0.0,0.0,0.0,0.0,0.0,0.0,0.0,0.0,0.0,0.0,0.0,0.0,0.0,0.0,0.0,0.0,0.0,0.0,0.0,0.0,0.0,0.0,0.0,0.0,0.0,0.0,0.0,0.0,0.0,0.0,0.0,0.0,0.0,0.0,0.0,0.0,0.0,0.0,0.0,0.0,0.0,0.0,0.0,0.0,0.0,0.0,0.0,0.0,0.0,0.0,0.0,0.0,0.0,0.0,0.0,0.0,0.0,0.0,0.0,0.0,0.0,0.0,0.0,0.0,2.9312,0.0,0.0,0.0,0.0,0.0,0.0,0.0,0.0,0.0,0.0,0.0,0.0,0.0,0.0,0.0,0.0,0.0,0.0,0.0,0.0,0.0,0.0,0.0,0.0,0.0,0.0,0.0,0.0,0.0,0.0,0.0,0.0,0.0,0.0,0.0,0.0,0.0,0.0,0.0,0.0,0.0,0.0,0.0,0.0,0.0,0.0,0.0,0.0,0.0,0.0,0.0,0.0,0.0,0.0,0.0,0.0,0.0,0.0,0.0,0.0,0.0,0.0,0.0,0.0,0.0,0.0,0.0,0.0,0.0,0.0,0.0,0.0,0.0,0.0,0.0,0.0,0.0,0.0,0.0,0.0,0.0,0.0,0.0,0.0,0.0,0.0,0.0,0.0,0.0,0.0,0.0,0.0,0.0,0.0,0.0,0.0,0.0,0.0,0.0,0.0,0.0,0.0,0.0,0.0,0.0,0.0,0.0,0.0,0.0,0.0,3.1845,3.127,3.0969,3.0153,2.8736,0.0,0.0,0.0,0.0,0.0,0.0,0.0,0.0,0.0,0.0,0.0,0.0,0.0,0.0,0.0,0.0,0.0,0.0,0.0,0.0,0.0,0.0,0.0,0.0,0.0,0.0,0.0,0.0,0.0,0.0,0.0,0.0,0.0,0.0,0.0,0.0,0.0,0.0,0.0,0.0,0.0,0.0,0.0,0.0,0.0,0.0,0.0,0.0,0.0,0.0,0.0,0.0,0.0,0.0,0.0,0.0,0.0,0.0,0.0,0.0,0.0,0.0,0.0,0.0,0.0,0.0,0.0,0.0,0.0,0.0,0.0,0.0,0.0,0.0,0.0,0.0,0.0,0.0,0.0,0.0,0.0,0.0,0.0,0.0,0.0,0.0,0.0,0.0,0.0,0.0,0.0,0.0,0.0,0.0,0.0,0.0,0.0,0.0,0.0,0.0,0.0,0.0,0.0,0.0,0.0,0.0,0.0,0.0,0.0,0.0,0.0,0.0,3.1046,3.0096,2.7628,0.0,0.0,0.0,0.0,0.0,0.0,0.0,0.0,0.0,0.0,0.0,0.0,0.0,0.0,0.0,0.0,0.0,0.0,0.0,0.0,0.0,0.0,0.0,0.0,0.0,0.0,0.0,0.0,0.0,0.0,0.0,0.0,0.0,0.0,0.0,0.0,0.0,0.0,0.0,0.0,0.0,0.0,0.0,0.0,0.0,0.0,0.0,0.0,0.0,0.0,0.0,0.0,0.0,0.0,0.0,0.0,0.0,0.0,0.0,0.0,0.0,0.0,0.0,0.0,0.0,0.0,0.0,0.0,0.0,0.0,0.0,0.0,0.0,0.0,0.0,0.0,0.0,0.0,0.0,0.0,0.0,0.0,0.0,0.0,0.0,0.0,0.0,0.0,0.0,0.0,0.0,0.0,0.0,0.0,0.0,0.0,0.0,0.0,0.0,0.0,0.0,0.0,0.0,0.0,0.0,0.0,0.0,0.0,0.0,0.0,3.0287,3.0252,2.9657,0.0,2.6722,0.0,0.0,0.0,0.0,0.0,0.0,0.0,0.0,0.0,0.0,0.0,0.0,0.0,0.0,0.0,0.0,0.0,0.0,0.0,0.0,0.0,0.0,0.0,0.0,0.0,0.0,0.0,0.0,0.0,0.0,0.0,0.0,0.0,0.0,0.0,0.0,0.0,0.0,0.0,0.0,0.0,0.0,0.0,0.0,0.0,0.0,0.0,0.0,0.0,0.0,0.0,0.0,0.0,0.0,0.0,0.0,0.0,0.0,0.0,0.0,0.0,0.0,0.0,0.0,0.0,0.0,0.0,0.0,0.0,0.0,0.0,0.0,0.0,0.0,0.0,0.0,0.0,0.0,0.0,0.0,0.0,0.0,0.0,0.0,0.0,0.0,0.0,0.0,0.0,0.0,0.0,0.0,0.0,0.0,0.0,0.0,0.0,0.0,0.0,0.0,0.0,0.0,0.0,0.0,0.0,0.0,0.0,0.0,0.0,0.0,0.0,2.7837,2.6881,2.5948,0.0,0.0,0.0,0.0,0.0,0.0,0.0,0.0,0.0,0.0,0.0,0.0,0.0,0.0,0.0,0.0,0.0,0.0,0.0,0.0,0.0,0.0,0.0,0.0,0.0,0.0,0.0,0.0,0.0,0.0,0.0,0.0,0.0,0.0,0.0,0.0,0.0,0.0,0.0,0.0,0.0,0.0,0.0,0.0,0.0,0.0,0.0,0.0,0.0,0.0,0.0,0.0,0.0,0.0,0.0,0.0,0.0,0.0,0.0,0.0,0.0,0.0,0.0,0.0,0.0,0.0,0.0,0.0,0.0,0.0,0.0,0.0,0.0,0.0,0.0,0.0,0.0,0.0,0.0,0.0,0.0,0.0,0.0,0.0,0.0,0.0,0.0,0.0,0.0,0.0,0.0,0.0,0.0,0.0,0.0,0.0,0.0,0.0,0.0,0.0,0.0,0.0,0.0,0.0,0.0,0.0,0.0,0.0,0.0,0.0,2.7158,0.0,2.5543,2.4421,2.3708,2.337,0.0,0.0,0.0,0.0,0.0,0.0,0.0,0.0,0.0,0.0,0.0,0.0,0.0,0.0,0.0,0.0,0.0,0.0,0.0,0.0,0.0,0.0,0.0,0.0,0.0,0.0,0.0,0.0,0.0,0.0,0.0,0.0,0.0,0.0,0.0,0.0,0.0,0.0,0.0,0.0,0.0,0.0,0.0,0.0,0.0,0.0,0.0,0.0,0.0,0.0,0.0,0.0,0.0,0.0,0.0,0.0,0.0,0.0,0.0,0.0,0.0,0.0,0.0,0.0,0.0,0.0,0.0,0.0,0.0,0.0,0.0,0.0,0.0,0.0,0.0,0.0,0.0,0.0,0.0,0.0,0.0,0.0,0.0,0.0,0.0,0.0,0.0,0.0,0.0,0.0,0.0,0.0,0.0,0.0,0.0,0.0,0.0,0.0,0.0,0.0,0.0,0.0,0.0,0.0,0.0,0.0,0.0,0.0,0.0,2.5272,2.4362,2.3784,2.2753,2.2045,0.0,0.0,0.0,0.0,0.0,0.0,0.0,0.0,0.0,0.0,0.0,0.0,0.0,0.0,0.0,0.0,0.0,0.0,0.0,0.0,0.0,0.0,0.0,0.0,0.0,0.0,0.0,0.0,0.0,0.0,0.0,0.0,0.0,0.0,0.0,0.0,0.0,0.0,0.0,0.0,0.0,0.0,0.0,0.0,0.0,0.0,0.0,0.0,0.0,0.0,0.0,0.0,0.0,0.0,0.0,0.0,0.0,0.0,0.0,0.0,0.0,0.0,0.0,0.0,0.0,0.0,0.0,0.0,0.0,0.0,0.0,0.0,0.0,0.0,0.0,0.0,0.0,0.0,0.0,0.0,0.0,0.0,0.0,0.0,0.0,0.0,0.0,0.0,0.0,0.0,0.0,0.0,0.0,0.0,0.0,0.0,0.0,0.0,0.0,0.0,0.0,0.0,0.0,0.0,0.0,0.0,0.0,0.0,0.0,2.4798,2.319,2.2123,0.0,2.0481,1.9712,0.0,0.0,0.0,0.0,0.0,0.0,0.0,0.0,0.0,0.0,0.0,0.0,0.0,0.0,0.0,0.0,0.0,0.0,0.0,0.0,0.0,0.0,0.0,0.0,0.0,0.0,0.0,0.0,0.0,0.0,0.0,0.0,0.0,0.0,0.0,0.0,0.0,0.0,0.0,0.0,0.0,0.0,0.0,0.0,0.0,0.0,0.0,0.0,0.0,0.0,0.0,0.0,0.0,0.0,0.0,0.0,0.0,0.0,0.0,0.0,0.0,0.0,0.0,0.0,0.0,0.0,0.0,0.0,0.0,0.0,0.0,0.0,0.0,0.0,0.0,0.0,0.0,0.0,0.0,0.0,0.0,0.0,0.0,0.0,0.0,0.0,0.0,0.0,0.0,0.0,0.0,0.0,0.0,0.0,0.0,0.0,0.0,0.0,0.0,0.0,0.0,0.0,0.0,0.0,0.0,0.0,0.0,0.0,0.0,2.2579,0.0,2.0139,0.0,1.8458,1.7569,0.0,0.0,0.0,0.0,0.0,0.0,0.0,0.0,0.0,0.0,0.0,0.0,0.0,0.0,0.0,0.0,0.0,0.0,0.0,0.0,0.0,0.0,0.0,0.0,0.0,0.0,0.0,0.0,0.0,0.0,0.0,0.0,0.0,0.0,0.0,0.0,0.0,0.0,0.0,0.0,0.0,0.0,0.0,0.0,0.0,0.0,0.0,0.0,0.0,0.0,0.0,0.0,0.0,0.0,0.0,0.0,0.0,0.0,0.0,0.0,0.0,0.0,0.0,0.0,0.0,0.0,0.0,0.0,0.0,0.0,0.0,0.0,0.0,0.0,0.0,0.0,0.0,0.0,0.0,0.0,0.0,0.0,0.0,0.0,0.0,0.0,0.0,0.0,0.0,0.0,0.0,0.0,0.0,0.0,0.0,0.0,0.0,0.0,0.0,0.0,0.0,0.0,0.0,0.0,0.0,0.0,0.0,0.0,2.1948,1.9711,1.9219,1.8559,1.7723,1.6766,1.5819,0.0,0.0,0.0,0.0,0.0,0.0,0.0,0.0,0.0,0.0,0.0,0.0,0.0,0.0,0.0,0.0,0.0,0.0,0.0,0.0,0.0,0.0,0.0,0.0,0.0,0.0,0.0,0.0,0.0,0.0,0.0,0.0,0.0,0.0,0.0,0.0,0.0,0.0,0.0,0.0,0.0,0.0,0.0,0.0,0.0,0.0,0.0,0.0,0.0,0.0,0.0,0.0,0.0,0.0,0.0,0.0,0.0,0.0,0.0,0.0,0.0,0.0,0.0,0.0,0.0,0.0,0.0,0.0,0.0,0.0,0.0,0.0,0.0,0.0,0.0,0.0,0.0,0.0,0.0,0.0,0.0,0.0,0.0,0.0,0.0,0.0,0.0,0.0,0.0,0.0,0.0,0.0,0.0,0.0,0.0,0.0,0.0,0.0,0.0,0.0,0.0,0.0,0.0,0.0,0.0,0.0,0.0,0.0,0.0,1.8619,1.7833,1.7058,1.6347,1.518,1.417,0.0,0.0,0.0,0.0,0.0,0.0,0.0,0.0,0.0,0.0,0.0,0.0,0.0,0.0,0.0,0.0,0.0,0.0,0.0,0.0,0.0,0.0,0.0,0.0,0.0,0.0,0.0,0.0,0.0,0.0,0.0,0.0,0.0,0.0,0.0,0.0,0.0,0.0,0.0,0.0,0.0,0.0,0.0,0.0,0.0,0.0,0.0,0.0,0.0,0.0,0.0,0.0,0.0,0.0,0.0,0.0,0.0,0.0,0.0,0.0,0.0,0.0,0.0,0.0,0.0,0.0,0.0,0.0,0.0,0.0,0.0,0.0,0.0,0.0,0.0,0.0,0.0,0.0,0.0,0.0,0.0,0.0,0.0,0.0,0.0,0.0,0.0,0.0,0.0,0.0,0.0,0.0,0.0,0.0,0.0,0.0,0.0,0.0,0.0,0.0,0.0,0.0,0.0,0.0,0.0,0.0,0.0,0.0,0.0,1.6764,1.6164,1.5538,1.4866,1.3783,1.2824,1.1947,0.0,0.0,0.0,0.0,0.0,0.0,0.0,0.0,0.0,0.0,0.0,0.0,0.0,0.0,0.0,0.0,0.0,0.0,0.0,0.0,0.0,0.0,0.0,0.0,0.0,0.0,0.0,0.0,0.0,0.0,0.0,0.0,0.0,0.0,0.0,0.0,0.0,0.0,0.0,0.0,0.0,0.0,0.0,0.0,0.0,0.0,0.0,0.0,0.0,0.0,0.0,0.0,0.0,0.0,0.0,0.0,0.0,0.0,0.0,0.0,0.0,0.0,0.0,0.0,0.0,0.0,0.0,0.0,0.0,0.0,0.0,0.0,0.0,0.0,0.0,0.0,0.0,0.0,0.0,0.0,0.0,0.0,0.0,0.0,0.0,0.0,0.0,0.0,0.0,0.0,0.0,0.0,0.0,0.0,0.0,0.0,0.0,0.0,0.0,0.0,0.0,0.0,0.0,0.0,0.0,0.0,0.0,0.0,1.4349,1.4265,1.3928,1.3311,1.26,1.1754,0.0,0.0,0.0,0.0,0.0,0.0,0.0,0.0,0.0,0.0,0.0,0.0,0.0,0.0,0.0,0.0,0.0,0.0,0.0,0.0,0.0,0.0,0.0,0.0,0.0,0.0,0.0,0.0,0.0,0.0,0.0,0.0,0.0,0.0,0.0,0.0,0.0,0.0,0.0,0.0,0.0,0.0,0.0,0.0,0.0,0.0,0.0,0.0,0.0,0.0,0.0,0.0,0.0,0.0,0.0,0.0,0.0,0.0,0.0,0.0,0.0,0.0,0.0,0.0,0.0,0.0,0.0,0.0,0.0,0.0,0.0,0.0,0.0,0.0,0.0,0.0,0.0,0.0,0.0,0.0,0.0,0.0,0.0,0.0,0.0,0.0,0.0,0.0,0.0,0.0,0.0,0.0,0.0,0.0,0.0,0.0,0.0,0.0,0.0,0.0,0.0,0.0,0.0,0.0,0.0,0.0,0.0,0.0,0.0,1.3154,1.2479,1.2137,1.2132,1.1414,1.0603,0.0,0.0,0.0,0.0,0.0,0.0,0.0,0.0,0.0,0.0,0.0,0.0,0.0,0.0,0.0,0.0,0.0,0.0,0.0,0.0,0.0,0.0,0.0,0.0,0.0,0.0,0.0,0.0,0.0,0.0,0.0,0.0,0.0,0.0,0.0,0.0,0.0,0.0,0.0,0.0,0.0,0.0,0.0,0.0,0.0,0.0,0.0,0.0,0.0,0.0,0.0,0.0,0.0,0.0,0.0,0.0,0.0,0.0,0.0,0.0,0.0,0.0,0.0,0.0,0.0,0.0,0.0,0.0,0.0,0.0,0.0,0.0,0.0,0.0,0.0,0.0,0.0,0.0,0.0,0.0,0.0,0.0,0.0,0.0,0.0,0.0,0.0,0.0,0.0,0.0,0.0,0.0,0.0,0.0,0.0,0.0,0.0,0.0,0.0,0.0,0.0,0.0,0.0,0.0,0.0,0.0,0.0,0.0,1.3458,1.2137,1.1499,1.1068,1.0809,1.0339,0.9702,0.0,0.0,0.0,0.0,0.0,0.0,0.0,0.0,0.0,0.0,0.0,0.0,0.0,0.0,0.0,0.0,0.0,0.0,0.0,0.0,0.0,0.0,0.0,0.0,0.0,0.0,0.0,0.0,0.0,0.0,0.0,0.0,0.0,0.0,0.0,0.0,0.0,0.0,0.0,0.0,0.0,0.0,0.0,0.0,0.0,0.0,0.0,0.0,0.0,0.0,0.0,0.0,0.0,0.0,0.0,0.0,0.0,0.0,0.0,0.0,0.0,0.0,0.0,0.0,0.0,0.0,0.0,0.0,0.0,0.0,0.0,0.0,0.0,0.0,0.0,0.0,0.0,0.0,0.0,0.0,0.0,0.0,0.0,0.0,0.0,0.0,0.0,0.0,0.0,0.0,0.0,0.0,0.0,0.0,0.0,0.0,0.0,0.0,0.0,0.0,0.0,0.0,0.0,0.0,0.0,0.0,0.0,0.0,1.3118,1.1322,1.1025,1.0496,0.9566,0.9345,0.895,0.0,0.0,0.0,0.0,0.0,0.0,0.0,0.0,0.0,0.0,0.0,0.0,0.0,0.0,0.0,0.0,0.0,0.0,0.0,0.0,0.0,0.0,0.0,0.0,0.0,0.0,0.0,0.0,0.0,0.0,0.0,0.0,0.0,0.0,0.0,0.0,0.0,0.0,0.0,0.0,0.0,0.0,0.0,0.0,0.0,0.0,0.0,0.0,0.0,0.0,0.0,0.0,0.0,0.0,0.0,0.0,0.0,0.0,0.0,0.0,0.0,0.0,0.0,0.0,0.0,0.0,0.0,0.0,0.0,0.0,0.0,0.0,0.0,0.0,0.0,0.0,0.0,0.0,0.0,0.0,0.0,0.0,0.0,0.0,0.0,0.0,0.0,0.0,0.0,0.0,0.0,0.0,0.0,0.0,0.0,0.0,0.0,0.0,0.0,0.0,0.0,0.0,0.0,0.0,0.0,0.0,0.0,0.0,1.2528,1.1111,1.0636,1.0038,0.9152,0.8942,0.8493,0.0,0.0,0.0,0.0,0.0,0.0,0.0,0.0,0.0,0.0,0.0,0.0,0.0,0.0,0.0,0.0,0.0,0.0,0.0,0.0,0.0,0.0,0.0,0.0,0.0,0.0,0.0,0.0,0.0,0.0,0.0,0.0,0.0,0.0,0.0,0.0,0.0,0.0,0.0,0.0,0.0,0.0,0.0,0.0,0.0,0.0,0.0,0.0,1.6435,0.0,0.0,0.0,0.0,0.0,0.0,0.0,0.0,0.0,0.0,0.0,0.0,0.0,0.0,0.0,0.0,0.0,0.0,0.0,0.0,0.0,0.0,0.0,0.0,0.0,0.0,0.0,0.0,0.0,0.0,0.0,0.0,0.0,0.0,0.0,0.0,0.0,0.0,0.0,0.0,0.0,0.0,0.0,0.0,0.0,0.0,0.0,0.0,0.0,0.0,0.0,0.0,0.0,0.0,0.0,0.0,0.0,0.0,0.0,1.2272,1.102,1.054,0.9876,0.9043,0.8455,0.7869,0.0,0.0,0.0,0.0,0.0,0.0,0.0,0.0,0.0,0.0,0.0,0.0,0.0,0.0,0.0,0.0,0.0,0.0,0.0,0.0,0.0,0.0,0.0,0.0,0.0,0.0,0.0,0.0,0.0,0.0,0.0,0.0,0.0,0.0,0.0,0.0,0.0,0.0,0.0,0.0,0.0,0.0,0.0,0.0,0.0,0.0,0.0,0.0,0.0,0.0,0.0,0.0,0.0,0.0,0.0,0.0,0.0,0.0,0.0,0.0,0.0,0.0,0.0,0.0,0.0,0.0,0.0,0.0,0.0,0.0,0.0,0.0,0.0,0.0,0.0,0.0,0.0,0.0,0.0,0.0,0.0,0.0,0.0,0.0,0.0,0.0,0.0,0.0,0.0,0.0,0.0,0.0,0.0,0.0,0.0,0.0,0.0,0.0,0.0,0.0,0.0,0.0,0.0,0.0,0.0,0.0,0.0,1.3451,1.2211,1.1096,1.0535,0.9858,0.8954,0.7987,0.7223,0.6723,0.0,0.0,0.0,0.0,0.0,0.0,0.0,0.0,0.0,0.0,0.0,0.0,0.0,0.0,0.0,0.0,0.0,0.0,0.0,0.0,0.0,0.0,0.0,0.0,0.0,0.0,0.0,0.0,0.0,0.0,0.0,0.0,0.0,0.0,0.0,0.0,0.0,0.0,1.5693,1.4998,0.0,0.0,0.0,0.0,0.0,0.0,0.0,0.0,1.3549,0.0,0.0,0.0,0.0,0.0,0.0,0.0,0.0,0.0,0.0,0.0,0.0,0.0,0.0,0.0,0.0,0.0,0.0,0.0,0.0,0.0,0.0,0.0,0.0,0.0,0.0,0.0,0.0,0.0,0.0,0.0,0.0,0.0,0.0,0.0,0.0,0.0,0.0,0.0,0.0,0.0,0.0,0.0,0.0,0.0,0.0,0.0,0.0,0.0,0.0,0.0,0.0,0.0,0.0,0.0,0.0,1.5039,1.3717,1.2475,1.1293,1.0627,0.98,0.8764,0.7736,0.6889,0.6317,0.0,0.0,0.0,0.0,0.0,0.0,0.0,0.0,0.0,0.0,0.0,0.0,0.0,0.0,0.0,0.0,0.0,0.0,0.0,0.0,0.0,0.0,0.0,0.0,0.0,0.0,0.0,0.0,0.0,0.0,0.0,0.0,0.0,0.0,0.0,0.0,0.0,0.0,0.0,1.4079,1.3975,0.0,0.0,0.0,0.0,0.0,0.0,0.0,0.0,1.2295,0.0,0.0,0.0,0.0,0.0,0.0,0.0,0.0,0.0,0.0,0.0,0.0,0.0,0.0,0.0,0.0,0.0,0.0,0.0,0.0,0.0,0.0,0.0,0.0,0.0,0.0,0.0,0.0,0.0,0.0,0.0,0.0,0.0,0.0,0.0,0.0,0.0,0.0,0.0,0.0,0.0,0.0,0.0,0.0,0.0,0.0,0.0,0.0,0.0,0.0,0.0,0.0,0.0,0.0,0.0,1.4748,1.3419,1.2356,1.1685,1.0781,0.9903,0.902,0.7894,0.7064,0.0,0.0,0.0,0.0,0.0,0.0,0.0,0.0,0.0,0.0,0.0,0.0,0.0,0.0,0.0,0.0,0.0,0.0,0.0,0.0,0.0,0.0,0.0,0.0,0.0,0.0,0.0,0.0,0.0,0.0,0.0,0.0,0.0,0.0,0.0,0.0,0.0,0.0,0.0,0.0,1.3237,1.3167,1.3172,0.0,0.0,0.0,0.0,0.0,0.0,1.07,1.0807,0.0,0.0,0.0,0.0,0.0,0.0,0.0,0.0,0.0,0.0,0.0,0.0,0.0,0.0,0.0,0.0,0.0,0.0,0.0,0.0,0.0,0.0,0.0,0.0,0.0,0.0,0.0,0.0,0.0,0.0,0.0,0.0,0.0,0.0,0.0,0.0,0.0,0.0,0.0,0.0,0.0,0.0,0.0,0.0,0.0,0.0,0.0,0.0,0.0,0.0,0.0,0.0,0.0,0.0,0.0,1.4415,1.3093,1.2292,1.2015,1.1016,1.0128,0.9423,0.8249,0.7403,0.0,0.0,0.0,0.0,0.0,0.0,0.0,0.0,0.0,0.0,0.0,0.0,0.0,0.0,0.0,0.0,0.0,0.0,0.0,0.0,0.0,0.0,0.0,0.0,0.0,0.0,0.0,0.0,0.0,0.0,0.0,0.0,0.0,0.0,0.0,0.0,0.0,0.0,0.0,0.0,0.0,1.262,1.2382,1.2305,0.0,0.0,0.0,0.0,0.9916,0.9809,0.0,0.0,0.0,0.0,0.0,0.0,0.0,0.0,0.0,0.0,0.0,0.0,0.0,0.0,0.0,0.0,0.0,0.0,0.0,0.0,0.0,0.0,0.0,0.0,0.0,0.0,0.0,0.0,0.0,0.0,0.0,0.0,0.0,0.0,0.0,0.0,0.0,0.0,0.0,0.0,0.0,0.0,0.0,0.0,0.0,0.0,0.0,0.0,0.0,0.0,0.0,0.0,0.0,0.0,0.0,0.0,1.4227,1.3333,1.2607,1.2157,1.1456,1.0704,0.9856,0.8665,0.7774,0.0,0.0,0.0,0.0,0.0,0.0,0.0,0.0,0.0,0.0,0.0,0.0,0.0,0.0,0.0,0.0,0.0,0.0,0.0,0.0,0.0,0.0,0.0,0.0,0.0,0.0,0.0,0.0,0.0,0.0,0.0,0.0,0.0,0.0,0.0,0.0,0.0,0.0,0.0,0.0,0.0,1.2602,1.2556,1.2268,1.1818,0.0,0.0,0.0,0.9695,0.9473,0.0,0.0,0.0,0.0,0.0,0.0,0.0,0.0,0.0,0.0,0.0,0.0,0.0,0.0,0.0,0.0,0.0,0.0,0.0,0.0,0.0,0.0,0.0,0.0,0.0,0.0,0.0,0.0,0.0,0.0,0.0,0.0,0.0,0.0,0.0,0.0,0.0,0.0,0.0,0.0,0.0,0.0,0.0,0.0,0.0,0.0,0.0,0.0,0.0,0.0,0.0,0.0,0.0,0.0,0.0,1.4109,1.4019,1.3249,1.2763,1.2516,1.1853,1.1151,1.0406,0.9377,0.8504,0.0,0.0,0.0,0.0,0.0,0.0,0.0,0.0,0.0,0.0,0.0,0.0,0.0,0.0,0.0,0.0,0.0,0.0,0.0,0.0,0.0,0.0,0.0,0.0,0.0,0.0,0.0,0.0,0.0,0.0,0.0,0.0,0.0,0.0,0.0,0.0,0.0,0.0,0.0,0.0,0.0,0.0,1.2452,1.2268,0.0,0.0,0.0,1.0318,0.9707,0.0,0.0,0.0,0.0,0.0,0.0,0.0,0.0,0.0,0.0,0.0,0.0,0.0,0.0,0.0,0.0,0.0,0.0,0.0,0.0,0.0,0.0,0.0,0.0,0.0,0.0,0.0,0.0,0.0,0.0,0.0,0.0,0.0,0.0,0.0,0.0,0.0,0.0,0.0,0.0,0.0,0.0,0.0,0.0,0.0,0.0,0.0,0.0,0.0,0.0,0.0,0.0,0.0,0.0,0.0,0.0,0.0,1.37,1.3085,1.2783,1.2821,1.2188,1.1632,1.1111,1.0126,0.0,0.0,0.0,0.0,0.0,0.0,0.0,0.0,0.0,0.0,0.0,0.0,0.0,0.0,0.0,0.0,0.0,0.0,0.0,0.0,0.0,0.0,0.0,0.0,0.0,0.0,0.0,1.4341,0.0,0.0,0.0,0.0,0.0,0.0,0.0,0.0,0.0,0.0,0.0,0.0,0.0,0.0,1.2716,1.2599,1.2482,1.2187,0.0,0.0,1.0562,0.9801,0.929,0.8783,0.0,0.0,0.0,0.0,0.0,0.0,0.0,0.0,0.0,0.0,0.0,0.0,0.0,0.0,0.0,0.0,0.0,0.0,0.0,0.0,0.0,0.0,0.0,0.0,0.0,0.0,0.0,0.0,0.0,0.0,0.0,0.0,0.0,0.0,0.0,0.0,0.0,0.0,0.0,0.0,0.0,0.0,0.0,0.0,0.0,0.0,0.0,0.0,0.0,0.0,0.0,0.0,0.0,0.0,0.0,1.3228,1.2818,1.2714,1.2861,1.2466,1.215,1.1935,1.0956,1.0137,0.0,0.0,0.0,0.0,0.0,0.0,0.0,0.0,0.0,0.0,0.0,0.0,0.0,0.0,0.0,0.0,0.0,0.0,0.0,0.0,0.0,0.0,0.0,0.0,0.0,0.0,0.0,0.0,0.0,0.0,0.0,0.0,0.0,0.0,0.0,0.0,0.0,0.0,0.0,0.0,0.0,1.3236,1.3382,1.2936,1.2445,0.0,0.0,1.0582,0.997,0.9357,0.8789,0.8172,0.0,0.0,0.0,0.0,0.0,0.0,0.0,0.0,0.0,0.0,0.0,0.0,0.0,0.0,0.0,0.0,0.0,0.0,0.0,0.0,0.0,0.0,0.0,0.0,0.0,0.0,0.0,0.0,0.0,0.0,0.0,0.0,0.0,0.0,0.0,0.0,0.0,0.0,0.0,0.0,0.0,0.0,0.0,0.0,0.0,0.0,0.0,0.0,0.0,0.0,0.0,0.0,0.0,1.3127,1.3382,1.2973,1.29,1.3083,1.2936,1.2709,1.2372,1.1639,1.0993,0.0,0.0,0.0,0.0,0.0,0.0,0.0,0.0,0.0,0.0,0.0,0.0,0.0,0.0,0.0,0.0,0.0,0.0,0.0,0.0,0.0,0.0,0.0,0.0,0.0,0.0,0.0,0.0,1.5199,1.567,1.637,0.0,0.0,0.0,0.0,0.0,0.0,0.0,0.0,0.0,0.0,1.4042,1.3985,1.3615,0.0,0.0,1.1706,1.0828,0.986,0.9326,0.8648,0.7681,0.7137,0.0,0.0,0.0,0.0,0.0,0.0,0.0,0.0,0.0,0.0,0.0,0.0,0.0,0.0,0.0,0.0,0.0,0.0,0.0,0.0,0.0,0.0,0.0,0.0,0.0,0.0,0.0,0.0,0.0,0.0,0.0,0.0,0.0,0.0,0.0,0.0,0.0,0.0,0.0,0.0,0.0,0.0,0.0,0.0,0.0,0.0,0.0,0.0,0.0,0.0,0.0,0.0,1.32,1.3572,1.3273,1.3193,1.3492,1.3346,1.3156,1.2856,1.2175,1.1683,0.0,0.0,0.0,0.0,0.0,0.0,0.0,0.0,0.0,0.0,0.0,0.0,0.0,0.0,0.0,0.0,0.0,0.0,0.0,0.0,0.0,0.0,0.0,0.0,0.0,0.0,0.0,0.0,1.5326,1.587,1.63,0.0,0.0,0.0,0.0,0.0,0.0,0.0,0.0,0.0,0.0,1.4966,1.476,1.433,1.376,1.2893,1.204,1.1113,1.0016,0.9332,0.8577,0.7561,0.0,0.0,0.0,0.0,0.0,0.0,0.0,0.0,0.0,0.0,0.0,0.0,0.0,0.0,0.0,0.0,0.0,0.0,0.0,0.0,0.0,0.0,0.0,0.0,0.0,0.0,0.0,0.0,0.0,0.0,0.704,0.0,0.0,0.0,0.0,0.0,0.0,0.0,0.0,0.0,0.0,0.0,0.0,0.0,0.0,0.0,0.0,0.0,0.0,0.0,0.0,0.0,0.0,0.0,1.379,1.3608,1.3666,1.4057,1.371,1.3492,1.3448,1.257,1.209,1.2084,0.0,0.0,0.0,0.0,0.0,0.0,0.0,0.0,0.0,0.0,0.0,0.0,0.0,0.0,0.0,0.0,0.0,0.0,0.0,0.0,0.0,0.0,0.0,0.0,0.0,0.0,1.5119,1.6018,1.6423,0.0,0.0,0.0,0.0,0.0,0.0,0.0,0.0,0.0,0.0,1.5974,1.5903,1.5762,1.5117,1.4266,1.3309,1.2348,1.1409,1.0619,0.9523,0.8504,0.0,0.0,0.0,0.0,0.0,0.0,0.0,0.0,0.0,0.0,0.0,0.0,0.0,0.0,0.0,0.0,0.0,0.0,0.0,0.0,0.0,0.0,0.0,0.0,0.0,0.0,0.0,0.9242,0.8995,0.0,0.0,0.0,0.0,0.0,0.0,0.0,0.0,0.0,0.0,0.0,1.6824,1.7535,0.0,0.0,0.0,0.0,0.0,0.0,0.0,0.0,0.0,0.0,0.0,0.0,1.3783,1.4145,1.4036,1.4065,1.4425,1.4217,1.4109,1.4065,1.3319,1.2752,1.2391,0.0,0.0,0.0,0.0,0.0,0.0,0.0,0.0,0.0,0.0,0.0,0.0,0.0,0.0,0.0,0.0,0.0,0.0,0.0,0.0,0.0,0.0,0.0,0.0,0.0,1.4677,0.0,0.0,0.0,0.0,0.0,0.0,0.0,0.0,0.0,0.0,0.0,1.6315,1.6862,1.6915,1.6777,1.6394,1.5745,1.4951,0.0,0.0,0.0,0.0,0.0,0.0,0.0,0.0,0.0,0.0,0.0,0.0,0.0,0.0,0.8326,0.7743,0.7629,0.7596,0.74,0.0,0.0,0.0,0.0,0.0,0.0,0.0,0.0,0.0,0.0,0.0,0.0,0.0,0.0,1.1461,0.0,1.0864,0.0,0.0,0.0,0.0,0.0,0.0,0.0,0.0,1.6395,1.7525,1.8751,1.9574,2.0186,0.0,2.0709,2.0186,0.0,0.0,0.0,0.0,0.0,0.0,0.0,0.0,1.4469,1.4748,1.474,1.4804,1.5098,1.4955,1.4812,1.4669,1.3979,1.3381,1.2967,1.292,1.2575,0.0,0.0,0.0,0.0,0.0,0.0,0.0,0.0,0.0,0.0,0.0,0.0,0.0,0.0,0.0,0.0,0.0,0.0,0.0,0.0,0.0,0.0,0.0,1.5106,0.0,0.0,0.0,0.0,0.0,0.0,0.0,0.0,0.0,1.6856,1.7237,1.7753,1.8199,1.8083,1.7764,1.7206,0.0,0.0,0.0,0.0,0.0,0.0,0.0,1.0389,0.982,0.9448,0.9233,0.918,0.929,0.9335,0.9259,0.0,0.0,0.8625,0.8468,0.8404,0.8269,0.8204,0.8269,0.8683,0.8967,0.9314,0.0,0.0,0.0,0.0,0.0,0.0,0.0,0.0,1.3743,1.371,0.0,1.3311,0.0,0.0,0.0,0.0,0.0,0.0,0.0,0.0,1.8268,1.964,2.0904,2.1735,2.2483,2.3001,2.282,2.2734,2.2547,1.9955,0.0,0.0,0.0,0.0,0.0,0.0,1.5346,1.5576,1.5736,1.5947,1.6132,1.5939,1.5613,1.5199,1.4537,1.4057,1.3859,1.3736,1.3663,1.3604,1.2894,0.0,0.0,0.0,0.0,0.0,0.0,0.0,0.0,0.0,0.0,0.0,0.0,0.0,0.0,0.0,0.0,0.0,0.0,0.0,0.0,1.5507,0.0,0.0,0.0,0.0,0.0,0.0,0.0,0.0,0.0,0.0,1.8427,1.8958,1.9548,1.9843,0.0,0.0,0.0,0.0,1.6088,1.5336,1.4461,1.3739,1.3339,1.2278,1.1452,1.1211,0.0,0.0,1.0587,1.0511,1.0435,1.0593,1.0735,1.0516,0.9594,0.9364,0.9332,0.932,0.9148,0.9218,0.9709,0.9932,1.0212,1.9016,0.0,0.0,0.0,0.0,1.5897,1.6111,1.6413,1.6461,1.6349,1.6173,1.5779,0.0,0.0,0.0,0.0,0.0,0.0,1.7831,1.919,2.0207,2.1364,2.2606,2.3287,2.3776,2.4091,2.4082,2.407,2.3925,2.2371,2.0663,1.8981,0.0,0.0,0.0,0.0,1.649,1.6629,1.6698,1.6837,1.7028,1.6742,1.6286,1.5652,1.5221,1.4982,1.495,1.4853,1.4702,1.4467,1.4245,0.0,0.0,0.0,0.0,0.0,0.0,0.0,0.0,0.0,0.0,0.0,0.0,0.0,0.0,0.0,0.0,0.0,0.0,0.0,1.6271,1.655,1.6886,0.0,0.0,0.0,0.0,0.0,0.0,0.0,0.0,0.0,2.1321,2.0764,2.0296,0.0,0.0,1.9255,1.836,1.7659,1.6973,1.622,0.0,0.0,0.0,1.3953,1.3317,1.2842,1.2256,1.1792,1.1699,1.1755,1.1772,1.1636,1.1667,1.1622,1.1334,1.0667,1.0161,1.004,1.0034,1.0155,1.0453,1.0832,1.1209,2.1747,2.0038,1.8967,1.8526,1.8526,1.8598,1.8754,1.8936,1.8995,1.8874,1.8537,1.8197,1.7848,1.7451,1.7191,0.0,0.0,0.0,1.969,2.0817,2.1659,2.2611,2.3717,2.4274,2.4647,2.4945,2.5028,2.4886,2.4602,2.3757,2.2404,2.0588,0.0,0.0,1.7799,1.7755,1.7721,1.7789,1.7867,1.791,1.7954,1.7526,1.7129,1.6683,1.6095,1.5799,1.579,1.5741,1.5616,1.5413,1.5383,1.5007,0.0,0.0,0.0,0.0,0.0,0.0,0.0,0.0,0.0,0.0,0.0,1.4391,0.0,0.0,0.0,0.0,1.6624,1.7276,1.7789,1.8211,0.0,0.0,0.0,0.0,0.0,0.0,0.0,2.1237,2.2237,2.2858,2.2748,2.2334,2.1848,2.1208,2.0572,1.9913,1.9231,0.0,1.7792,1.7352,1.6777,1.6286,1.5927,1.5294,1.4616,1.3934,1.3469,1.3112,1.2908,1.2901,1.286,1.2606,1.2505,1.2436,1.2398,1.1778,1.1233,1.1059,1.1021,1.1083,1.1341,1.1709,1.2034,2.4051,2.3529,2.2016,2.1303,2.1214,2.1371,2.1327,2.1092,2.1262,2.1066,2.0615,2.045,2.0265,2.0051,1.9778,0.0,0.0,2.0594,2.1296,2.1924,2.2761,2.361,2.4492,2.4898,2.5264,2.5641,2.5604,2.5324,2.484,2.4366,2.3479,2.2176,2.0941,1.9876,1.9021,1.9034,1.9034,1.8967,1.9088,1.9098,1.8875,1.8385,1.8104,1.8085,1.708,1.6548,1.65,1.6412,1.6367,1.6367,1.6327,1.6176,1.5953,0.0,0.0,0.0,0.0,0.0,0.0,0.0,0.0,0.0,0.0,0.0,0.0,0.0,0.0,0.0,1.8503,0.0,1.9551,2.0261,0.0,0.0,0.0,2.1104,2.1344,2.1876,2.2355,2.2674,0.0,0.0,0.0,0.0,2.3699,2.2863,2.1581,2.0667,2.0423,1.9356,1.86,1.8529,1.7959,1.7463,1.7083,1.6272,1.5424,1.478,1.4441,1.4221,1.4084,1.3921,1.3757,1.348,1.3216,1.3042,1.2928,1.2697,1.2482,1.2243,1.2019,1.1957,1.2243,1.2467,1.2621,2.5134,2.4985,2.4818,2.4022,2.293,2.297,2.2833,2.2559,2.248,2.226,2.1939,2.1749,2.1614,2.1545,2.1354,2.1354,2.1507,2.2188,2.2776,2.339,2.4011,2.4647,2.5312,2.5558,2.5711,2.5804,2.5502,2.5244,2.4982,2.4087,2.3434,2.2899,2.2135,2.1229,2.0215,2.0107,2.0096,2.0172,1.9966,1.9781,1.9638,1.9363,1.9144,1.899,1.8279,1.7766,1.7388,1.7173,1.7066,1.7066,1.7026,1.7121,1.7308,1.6858,0.0,0.0,0.0,0.0,0.0,0.0,0.0,0.0,0.0,1.6865,1.7482,0.0,1.8402,0.0,2.0498,2.1433,2.1924,2.2219,0.0,0.0,2.2981,2.3187,2.3575,2.3867,2.4176,2.4589,2.5003,2.4989,2.4422,2.4378,2.4033,2.3121,2.206,2.1152,2.05,2.0041,1.9573,1.9166,1.8877,1.8398,1.7586,1.66,1.586,1.5654,1.5275,1.4934,1.4904,1.468,1.444,1.4359,1.4031,1.3799,1.3709,1.3489,1.3268,1.3147,1.285,1.259,1.2683,1.2805,1.2928,2.5999,2.5999,2.6135,2.5692,2.4862,2.4669,2.4272,2.3805,2.3677,2.3377,2.2964,2.2927,2.2953,2.3054,2.2905,2.2931,2.3043,2.3559,2.3986,2.4384,2.4862,2.5382,2.5863,2.598,2.5961,2.5769,2.5627,2.5273,2.4688,2.4154,2.3698,2.3294,2.2825,2.2285,2.1651,2.121,2.1031,2.1083,2.0709,2.0463,2.0356,1.9987,1.9824,1.977,1.9105,1.8701,1.8592,1.8233,1.8086,1.8135,1.8146,1.8235,1.8412,1.821,1.8018,0.0,0.0,0.0,0.0,0.0,0.0,0.0,0.0,0.0,0.0,0.0,2.0499,0.0,2.265,0.0,2.3924,2.4263,2.4619,2.4874,2.4888,2.5021,2.5275,2.5381,2.5569,2.5861,2.6013,2.5797,2.5029,2.4739,2.4246,2.3156,2.2499,2.185,2.1199,2.0727,2.0334,2.0063,1.9737,1.9111,1.7972,1.6979,1.6277,1.6049,1.5743,1.5469,1.5439,1.5264,1.5108,1.4931,1.4666,1.4398,1.433,1.4121,1.3923,1.3782,1.361,1.3346,1.3094,1.3133,1.3194,2.6715,2.6727,2.6768,2.6757,2.6715,2.6257,2.5558,2.4803,2.4737,2.4368,2.3703,2.3934,2.4152,2.4298,2.4334,2.4345,2.4358,2.4695,2.4933,2.5194,2.5523,2.5898,2.6305,2.6208,2.5999,2.5665,2.5704,2.5211,2.4253,2.4274,2.4055,2.3475,2.33,2.3125,2.2987,2.2297,2.1894,2.1745,2.1463,2.1198,2.1031,2.056,2.0366,2.0474,1.9852,1.9588,1.9814,1.9432,1.9269,1.9396,1.9347,1.9411,1.9516,1.9437,1.9526,0.0,1.9825,0.0,0.0,0.0,0.0,0.0,0.0,0.0,0.0,2.1913,2.295,2.4083,2.4858,2.5393,2.5761,2.6291,2.665,2.6688,2.6633,2.6586,2.662,2.6552,2.6598,2.6782,2.6782,2.6396,2.5351,2.502,2.4444,2.3256,2.2861,2.2509,2.2095,2.1486,2.1063,2.0967,2.0352,1.9359,1.8183,1.7323,1.6681,1.6263,1.6077,1.5972,1.5846,1.5788,1.5672,1.5391,1.5176,1.5029,1.4863,1.4715,1.4538,1.4369,1.4309,1.407,1.358,1.3489,1.3511,2.7307,2.736,2.7545,2.765,2.7603,2.7064,2.6267,2.5244,2.4967,2.4654,2.4357,2.4671,2.4814,2.4874,2.5028,2.5099,2.5099,2.5324,2.5629,2.599,2.6173,2.6474,2.6816,2.6357,2.6077,2.5945,2.5122,2.4586,2.4338,2.4116,2.3948,2.3802,2.3708,2.3653,0.0,0.0,0.0,0.0,2.2242,2.213,2.1726,2.1494,2.1336,2.121,2.1055,0.0,2.0538,2.0411,2.0384,2.0414,2.027,0.0,0.0,0.0,0.0,0.0,0.0,0.0,0.0,0.0,0.0,0.0,2.3885,2.3971,2.3225,2.4607,2.5716,2.6117,2.6823,2.7393,2.7722,2.7848,2.8012,2.8151,2.7908,2.7696,2.7696,2.7443,2.7289,2.7323,2.7323,2.6894,2.5748,2.5478,2.4884,2.3563,2.315,2.2934,2.2739,2.2258,2.1737,2.1175,2.007,1.8978,1.8137,1.7427,1.6917,1.6694,1.6552,1.6467,1.64,1.62,1.6028,1.5912,1.573,1.5556,1.5498,1.5293,1.5059,1.5039,1.4921,1.4645,1.401,1.389,1.389,2.8007,0.0,2.8151,2.8203,0.0,2.7436,2.6821,2.6259,2.5592,2.5236,2.5064,2.5206,2.5347,2.5453,2.5664,2.5746,2.5769,2.6025,2.6255,2.6474,2.6735,2.6952,2.7121,2.6607,2.6214,2.5929,2.5138,2.4598,2.4355,2.436,2.4345,2.4374,2.4305,2.4292,2.4292,2.4292,2.3826,2.2914,2.2975,2.2793,2.242,2.2137,2.2044,2.199,0.0,0.0,0.0,0.0,0.0,0.0,0.0,0.0,0.0,0.0,0.0,2.3526,2.3794,2.3984,2.4029,2.4343,2.4734,2.5202,2.6567,2.6927,2.5897,2.6729,2.7494,2.7962,2.8324,2.8643,2.8912,2.8867,2.8835,2.8912,2.861,2.8371,2.8384,2.817,2.8052,2.8033,2.7941,2.7438,2.6245,2.5949,2.5292,2.3995,2.3599,2.339,2.3163,2.2616,2.1885,2.1032,2.008,1.9118,1.8409,1.7693,1.7245,1.7145,1.7032,1.6909,1.6825,1.6645,1.6513,1.6371,1.6239,1.6095,1.5923,1.5749,1.5604,1.5478,1.5391,1.5176,1.4666,1.4419,1.421,2.8618,2.8657,2.8657,2.8697,2.8652,2.7736,2.7287,2.7079,0.0,0.0,0.0,2.5781,2.5886,2.6037,2.6245,2.6371,2.6393,2.6679,2.6816,2.6918,2.7235,2.7436,2.7451,2.6869,2.6369,2.5954,2.5378,2.4872,2.4492,2.4765,2.492,2.4948,2.4977,2.4991,2.5033,2.5146,2.4808,2.4121,2.3813,2.3514,2.3198,2.2902,2.2786,2.2895,2.2925,2.3122,2.3509,2.3433,2.3433,2.3539,2.3522,2.3627,2.3888,2.4137,2.4441,2.4811,2.5078,2.5315,2.5536,2.5827,2.6412,2.7315,2.8699,2.9169,2.8313,2.8458,2.8828,2.9393,2.9435,2.9512,2.9665,2.9557,2.9435,2.9435,2.9153,2.8994,2.8962,2.8862,2.878,2.8716,2.8592,2.8016,2.6846,2.643,2.5747,2.4547,2.4112,2.3848,2.3407,2.2646,2.174,2.0817,2.0047,1.9396,1.8686,1.8081,1.7656,1.7579,1.7479,1.7351,1.719,1.7095,1.6994,1.6825,1.6712,1.657,1.6332,1.6228,1.6124,1.5875,1.5788,1.5672,1.5381,1.502,1.4656,2.9131,2.9275,2.9263,2.938,2.9435,2.84,2.7521,2.6747,2.6348,2.6226,2.6277,2.6474,2.6543,2.6589,2.6807,2.7011,2.7134,2.7201,2.7369,0.0,2.7723,2.7875,2.8103,2.7046,2.6559,2.6566,2.554,2.503,2.509,2.5231,2.5398,2.555,2.5702,2.5811,2.5921,2.5948,2.5934,2.5892,2.5175,2.4593,2.4292,2.4105,2.4047,2.4076,2.4163,2.431,2.4513,2.4485,2.4485,2.4513,2.4412,2.4526,2.4951,2.5231,2.5591,2.6,2.631,2.6714,2.7286,2.748,2.8181,2.9488,2.9853,2.9783,2.9272,2.97,3.0013,3.0019,2.9974,3.0019,3.0019,3.0005,2.9974,2.9988,2.9792,2.9654,2.9639,2.9512,2.9369,2.9216,2.9184,2.8557,2.727,2.6933,2.6305,2.5072,2.452,2.4218,2.361,2.2575,2.1579,2.0725,1.9987,1.9265,1.8662,1.8383,1.8166,1.7881,1.7843,1.7772,1.7617,1.7523,1.744,1.7385,1.7151,1.6983,1.686,1.6684,1.6495,1.6306,1.6192,1.598,1.5817,1.5604,1.5323,2.9857,2.9934,2.9934,3.0037,3.0152,2.9151,2.8357,2.7742,2.727,2.7019,2.6918,2.7053,2.7134,2.7167,2.7323,2.7536,2.7689,2.7789,2.7987,2.8216,2.83,2.8481,2.8611,2.7585,2.7129,2.7195,2.6048,2.5564,2.5702,2.5811,2.5987,2.6136,2.6244,2.6445,2.6671,2.6698,2.6788,2.6982,2.6068,2.5467,2.5204,2.5147,2.5119,2.5134,2.5287,2.5425,2.5536,2.5563,2.5577,2.5563,2.5577,2.5728,2.6014,2.631,2.6642,2.6997,2.7528,2.7999,2.8375,2.914,2.9851,3.0548,3.0923,3.1004,3.0688,3.069,3.0702,3.0657,3.0627,3.0671,3.0627,3.0536,3.0506,3.0462,3.0326,3.0251,3.0221,3.0083,2.996,2.9839,2.9685,2.9052,2.7727,2.7367,2.6734,2.5406,2.4893,2.4507,2.4092,2.2974,2.1854,2.1099,2.0369,1.9655,1.8961,1.8694,1.8583,1.841,1.8317,1.8236,1.8111,1.8002,1.7909,1.7744,1.7567,1.7457,1.7318,1.7117,1.692,1.6751,1.6609,1.6438,1.622,1.58,1.5287,3.0558,3.0596,3.0596,3.0683,3.0662,2.9787,2.9201,2.8837,2.8272,2.7908,2.7736,2.7703,2.7676,2.7769,2.7921,2.8072,2.8203,2.8398,2.856,2.8766,2.8912,2.9103,2.9181,2.819,2.7763,2.7767,2.6678,2.6165,2.6299,2.6445,2.659,2.6747,2.6852,2.7049,2.7335,2.7386,2.7499,2.7675,2.6993,2.6467,2.6174,2.6135,2.6108,2.6174,2.6295,2.6457,2.659,2.659,2.6602,2.6602,2.6695,2.6826,2.6997,2.7244,2.7558,2.7991,2.8586,2.9113,2.957,3.0647,3.1317,3.1332,3.1789,3.2038,3.1838,3.1567,3.1322,3.122,3.119,3.1176,3.1161,3.1058,3.0969,3.0969,3.0851,3.0747,3.0762,3.0583,3.0447,3.0403,3.019,2.9595,2.8594,2.7964,2.7114,2.5827,2.5175,2.4865,2.4587,2.3441,2.2332,2.1659,2.0807,1.9966,1.9391,1.9107,1.8972,1.8931,1.8801,1.8694,1.8583,1.8503,1.8394,1.8166,1.8045,1.7909,1.77,1.7534,1.7368,1.7151,1.6994,1.6786,1.6357,1.581,1.5177,3.1048,3.1198,3.1222,3.1103,3.0936,3.0314,2.98,2.9422,2.8915,2.8817,2.8862,2.843,2.8346,2.849,2.8522,2.8592,2.8739,2.8912,2.9117,2.9247,2.9432,2.9727,2.9877,2.8724,2.8297,2.8394,2.7265,2.6724,2.691,2.7052,2.7229,2.7473,2.7509,2.76,2.7765,2.7875,2.7999,2.8137,2.8162,2.789,2.7269,2.7086,2.7086,2.7244,2.7258,2.7346,2.7458,2.7499,2.7499,2.7484,2.7499,2.761,2.785,2.791,2.8307,2.9137,2.9325,2.9889,3.1048,3.1863,3.2262,3.2293,3.2308,3.237,3.2342,3.2287,3.2035,3.1638,3.1495,3.1495,3.1466,3.1466,3.1437,3.1437,3.1336,3.1219,3.1219,3.1087,3.0955,3.0747,3.0717,3.0336,2.9391,2.8656,2.7612,2.6075,2.5577,2.53,2.5065,2.3892,2.2884,2.2379,2.1211,2.0064,1.9656,1.9565,1.9434,1.9239,1.916,1.9093,1.8972,1.8866,1.8744,1.8652,1.8503,1.8313,1.8111,1.792,1.7733,1.7501,1.7285,1.7014,1.6318,1.5813,1.5386,3.1606,3.1763,3.1776,3.1825,3.1765,3.1439,3.0966,3.0474,3.0002,2.9722,2.954,2.9404,2.9324,2.9194,2.9194,2.9275,2.939,2.9605,2.9761,2.9915,3.0113,3.0296,3.0377,2.9275,2.8862,2.8926,2.7812,2.7335,2.7463,2.769,2.789,2.8063,2.8063,2.8137,2.8259,2.8365,2.8455,2.8614,2.8748,2.8668,2.8414,2.8033,2.79,2.798,2.8005,2.8005,2.8063,2.8063,2.8063,2.8088,2.8079,2.8162,2.8341,2.8725,2.9138,2.9645,3.0431,3.129,3.2237,3.2563,3.2691,3.2691,3.2718,3.2703,3.2703,3.2691,3.2566,3.2358,3.2163,3.2035,3.2035,3.1936,3.1923,3.191,3.1811,3.1726,3.1697,3.1553,3.1394,3.1336,3.1263,3.088,2.9971,2.885,2.767,2.6497,2.6041,2.5865,2.5563,2.435,2.3466,2.2999,2.1753,2.0639,2.0169,2.0003,1.9875,1.9734,1.9604,1.95,1.9408,1.933,1.9225,1.9093,1.8893,1.8718,1.8556,1.8302,1.8111,1.782,1.7251,1.6819,1.6396,1.5737,1.5153,3.2264,3.2345,3.2417,3.2525,3.2698,3.2437,3.2019,3.1434,3.0995,3.0515,3.0113,3.0267,3.0251,3.0052,2.9943,2.9929,3.0038,3.0251,3.0403,3.0523,3.0747,3.0911,3.0925,3.0093,2.9593,2.9385,2.8579,2.8082,2.8079,2.8235,2.8429,2.8565,2.8589,2.8621,2.8724,2.8803,2.8943,2.9082,2.919,2.9275,2.9259,2.8959,2.87,2.8612,2.8573,2.8589,2.8589,2.8589,2.8589,2.8589,2.8589,2.8645,2.8803,2.9427,3.0031,3.0633,3.1719,3.2604,3.3107,3.3112,3.3139,3.3123,3.3123,3.3123,3.3112,3.3123,3.3139,3.3096,3.292,3.2726,3.2551,3.2456,3.2401,3.2373,3.2247,3.2178,3.2135,3.2007,3.1894,3.1894,3.1781,3.1279,3.0259,2.9077,2.7966,2.6965,2.6578,2.6377,2.601,2.4994,2.4098,2.3668,2.2519,2.1484,2.0737,2.0447,2.0334,2.0182,2.0042,1.9927,1.9811,1.9785,1.9694,1.9512,1.9316,1.9131,1.8972,1.8759,1.8518,1.8155,1.7561,1.6852,1.6494,1.5694,1.5037,3.2952,3.2974,3.3164,3.3353,3.3514,3.3109,3.2634,3.2195,3.1768,3.1283,3.0835,3.0896,3.1058,3.1161,3.0777,3.0582,3.0598,3.0851,3.097,3.1029,3.1306,3.1523,3.1637,3.1157,3.0669,3.0197,2.9551,2.9033,2.8668,2.8661,2.8818,2.9052,2.9075,2.9075,2.9098,2.9236,2.935,2.9448,2.9614,2.971,2.9744,2.9744,2.9499,2.9144,2.9075,2.9075,2.9075,2.9091,2.9052,2.9068,2.9122,2.9153,2.9339,2.9997,3.1054,3.2373,3.3189,3.3578,3.3642,3.3658,3.3642,3.3658,3.3617,3.3642,3.3633,3.3617,3.3617,3.3658,3.3591,3.3398,3.3016,3.2881,3.2854,3.287,3.2687,3.2617,3.2574,3.2465,3.2398,3.2342,3.2231,3.1546,3.0105,2.9507,2.8604,2.7576,2.7067,2.6858,2.645,2.5776,2.5032,2.4272,2.3427,2.2459,2.1303,2.0896,2.0772,2.0623,2.0523,2.0359,2.0271,2.0195,2.0054,1.9939,1.972,1.9565,1.942,1.921,1.896,1.8555,1.7915,1.7283,1.6684,1.5959,1.5296,3.3507,3.3736,3.3908,3.4074,3.4113,3.4153,3.3839,3.334,3.2992,3.248,3.1916,3.1704,3.1697,3.1726,3.1752,3.1552,3.1219,3.1509,3.1625,3.1697,3.1951,3.2104,3.2099,3.172,3.1438,3.113,3.0348,2.9682,2.9261,2.9198,2.9335,2.9499,2.9544,2.9544,2.9566,2.9671,2.9776,2.9842,3.0033,3.0167,3.0172,3.022,3.0156,3.0,2.97,2.9544,2.956,2.956,2.9544,2.956,2.9961,3.028,3.0438,3.1459,3.2547,3.3475,3.382,3.3949,3.3949,3.3949,3.3949,3.3949,3.3949,3.3933,3.3949,3.3949,3.3949,3.3949,3.3949,3.3822,3.3668,3.3466,3.3282,3.3256,3.316,3.3065,3.3038,3.3011,3.2947,3.2839,3.2617,3.1871,3.0692,3.0068,2.9327,2.8011,2.76,2.7361,2.6975,2.6363,2.565,2.4749,2.3902,2.3035,2.2222,2.1602,2.1288,2.1142,2.1019,2.0871,2.0785,2.0648,2.0523,2.0346,2.0169,1.9991,1.9849,1.9539,1.9317,1.905,1.838,1.7495,1.6905,1.6158,1.5439,3.421,3.4481,3.4668,3.4721,3.4739,3.5019,3.4845,3.4301,3.3892,3.3382,3.2835,3.2425,3.2259,3.233,3.2578,3.248,3.212,3.2203,3.2274,3.2274,3.2563,3.2699,3.2664,3.2499,3.2285,3.1974,3.1212,3.051,3.009,3.0071,3.0069,3.0017,3.0006,3.0027,3.0049,3.0108,3.0189,3.0253,3.0401,3.0522,3.0564,3.0626,3.0651,3.0663,3.0599,3.0385,3.0065,3.0027,3.0158,3.0408,3.0865,3.1338,3.1883,3.2765,3.3647,3.426,3.4374,3.4349,3.4349,3.4374,3.4374,3.4349,3.4374,3.4333,3.4349,3.4349,3.4349,3.4349,3.4349,3.4374,3.43,3.4126,3.3873,3.3761,3.3607,3.3529,3.3503,3.3503,3.3414,3.3256,3.3038,3.2248,3.1057,3.0572,2.971,2.8363,2.8088,2.784,2.7475,2.7076,2.6332,2.5262,2.4549,2.3762,2.2988,2.2356,2.1935,2.1746,2.1482,2.1375,2.1253,2.1104,2.0957,2.0784,2.0623,2.046,2.0207,1.9888,1.9695,1.9529,1.8633,1.7642,1.7003,1.6337,1.5705,3.5001,3.5213,3.535,3.54,3.5447,3.564,3.5453,3.5033,3.4545,3.4095,3.3594,3.3099,3.2924,3.2884,3.3156,3.3282,3.3187,3.3007,3.2841,3.2857,3.3171,3.3293,3.3319,3.3501,3.3239,3.2665,3.2232,3.1707,3.1153,3.1231,3.1063,3.0594,3.07,3.0791,3.0609,3.0763,3.0738,3.0871,3.0983,3.0961,3.0925,3.1116,3.119,3.1248,3.1786,3.1692,3.0696,3.0659,3.0974,3.1525,3.1707,3.2315,3.3468,3.3832,3.417,3.4743,3.4875,3.4899,3.4859,3.4875,3.4875,3.4851,3.4875,3.4875,3.4851,3.4851,3.4875,3.4851,3.4875,3.4875,3.4875,3.4828,3.4594,3.4201,3.4075,3.4025,3.3933,3.3899,3.3813,3.3607,3.3487,3.2796,3.1508,3.0901,3.023,2.9049,2.8477,2.8308,2.8048,2.7877,2.724,2.6036,2.5218,2.4604,2.3797,2.3075,2.2678,2.2333,2.2044,2.1807,2.1722,2.1589,2.1434,2.1264,2.1093,2.0909,2.0623,2.0346,2.0195,1.9851,1.8807,1.8026,1.7524,1.6932,1.6123,3.5671,3.5767,3.6068,3.6148,3.6211,3.6415,3.643,3.629,3.5876,3.5365,3.4804,3.4358,3.3906,3.3576,3.372,3.3848,3.3864,3.3908,3.3764,3.3507,3.3745,3.3864,3.3899,3.4109,3.3958,3.3489,3.3303,3.2941,3.2464,3.2475,3.2472,3.2412,3.2433,3.2492,3.2446,3.2513,3.2534,3.2575,3.2655,3.2716,3.2757,3.2853,3.2893,3.2948,3.3186,3.3111,3.2788,3.2575,3.2631,3.285,3.3285,3.3918,3.4653,3.4825,3.4925,3.5125,3.5175,3.5175,3.5175,3.5175,3.5182,3.5175,3.5198,3.5158,3.5158,3.5158,3.5198,3.5158,3.5175,3.5175,3.5175,3.5175,3.4994,3.457,3.4497,3.4464,3.4308,3.4209,3.4151,3.4075,3.3975,3.3205,3.1998,3.1437,3.0735,2.9375,2.8889,2.87,2.8518,2.8462,2.7818,2.6413,2.594,2.5258,2.4244,2.356,2.3282,2.2904,2.2586,2.231,2.2194,2.2077,2.1912,2.1736,2.1544,2.1326,2.1019,2.0847,2.0698,2.025,1.9394,1.8789,1.8304,1.7599,1.6747,3.6321,3.6367,3.6708,3.6831,3.6861,3.7088,3.7238,3.7202,3.6832,3.6434,3.6034,3.5379,3.4865,3.4455,3.4405,3.4399,3.4423,3.4683,3.4618,3.4325,3.4325,3.4399,3.4448,3.4667,3.4691,3.4518,3.4464,3.4125,3.3527,3.3624,3.3613,3.352,3.3577,3.3588,3.3663,3.3663,3.3663,3.3663,3.3707,3.3782,3.3802,3.3877,3.3934,3.3974,3.4232,3.4407,3.4444,3.4511,3.4421,3.4189,3.4626,3.5165,3.5538,3.5554,3.5549,3.5549,3.5571,3.5571,3.5566,3.5588,3.5549,3.5549,3.5549,3.5549,3.5549,3.5549,3.5549,3.5549,3.5571,3.5549,3.5549,3.5571,3.5412,3.5142,3.4977,3.4875,3.4739,3.4594,3.4546,3.4497,3.4399,3.3567,3.2504,3.1876,3.1187,2.9877,2.9312,2.9152,2.9013,2.8936,2.796,2.7053,2.644,2.5553,2.4462,2.4024,2.3839,2.3501,2.315,2.2881,2.27,2.2549,2.2388,2.2194,2.1983,2.1722,2.1458,2.1361,2.1213,2.0564,2.0017,1.9465,1.894,1.8128,1.7298,3.6951,3.6981,3.7312,3.7447,3.7492,3.7669,3.7844,3.786,3.7512,3.7295,3.7059,3.6362,3.5785,3.5547,3.5241,3.5063,3.4994,3.5205,3.5321,3.5228,3.5118,3.5008,3.5048,3.5228,3.5391,3.552,3.556,3.5243,3.4677,3.4751,3.4533,3.4196,3.4263,3.4174,3.4424,3.4291,3.4412,3.4464,3.4397,3.4434,3.4434,3.4399,3.4421,3.4534,3.5122,3.5526,3.5638,3.607,3.6011,3.5227,3.563,3.5933,3.5997,3.6002,3.6014,3.5993,3.5997,3.5997,3.5997,3.5993,3.5975,3.5975,3.5975,3.6019,3.5975,3.5954,3.5975,3.5975,3.5958,3.5997,3.5997,3.5975,3.591,3.5817,3.5481,3.5251,3.5135,3.5018,3.4954,3.4906,3.4761,3.4164,3.2705,3.2321,3.1489,3.0324,2.9738,2.9643,2.9509,2.9214,2.8538,2.7797,2.7039,2.6149,2.515,2.4498,2.4317,2.4015,2.3717,2.3465,2.315,2.2957,2.2859,2.2632,2.2426,2.217,2.1959,2.1888,2.1736,2.1353,2.0803,2.0186,1.9507,1.876,1.8038,3.7637,3.7682,3.7988,3.8164,3.8177,3.8403,3.8511,3.8579,3.863,3.8354,3.7998,3.7867,3.7161,3.6269,3.6283,3.5996,3.5638,3.5723,3.58,3.5844,3.5932,3.5827,3.5756,3.5778,3.5932,3.6088,3.611,3.6011,3.5856,3.5893,3.5873,3.5811,3.5792,3.5905,3.6015,3.5971,3.608,3.6118,3.6162,3.6184,3.6149,3.6149,3.6256,3.6293,3.6451,3.6576,3.6593,3.6805,3.6696,3.6177,3.6222,3.6318,3.6237,3.6237,3.6255,3.6237,3.6237,3.6216,3.6255,3.6237,3.6216,3.6216,3.6255,3.6233,3.6233,3.6233,3.6216,3.6216,3.6216,3.6237,3.6255,3.6237,3.6195,3.6131,3.5805,3.5549,3.5487,3.5441,3.5379,3.5304,3.5218,3.4407,3.3272,3.2652,3.2067,3.0723,3.013,3.0017,2.9892,2.9733,2.9198,2.841,2.7641,2.6819,2.5986,2.5253,2.4778,2.4508,2.4245,2.4021,2.3659,2.3304,2.3216,2.3098,2.2867,2.264,2.2495,2.2394,2.2208,2.203,2.1509,2.0877,2.0355,1.9675,1.8932,3.8315,3.8399,3.8639,3.875,3.8876,3.9061,3.9212,3.9292,3.947,3.9391,3.905,3.8907,3.8432,3.7686,3.7597,3.7149,3.65,3.6655,3.6551,3.628,3.6468,3.6447,3.6301,3.6237,3.6364,3.6571,3.6609,3.6591,3.6591,3.667,3.671,3.6701,3.6849,3.6906,3.6878,3.6987,3.6989,3.6992,3.7087,3.7126,3.7164,3.7164,3.7203,3.7222,3.726,3.7241,3.7241,3.726,3.7087,3.6791,3.6708,3.667,3.6591,3.6591,3.6609,3.6609,3.6591,3.6591,3.6591,3.6591,3.6609,3.6609,3.6609,3.6591,3.6591,3.6609,3.6591,3.6591,3.6591,3.6609,3.6609,3.6609,3.655,3.6506,3.6259,3.6041,3.5883,3.5844,3.58,3.5672,3.5515,3.4958,3.3434,3.3184,3.229,3.1141,3.0535,3.0426,3.03,3.0145,2.9837,2.9041,2.8223,2.7377,2.6567,2.581,2.5222,2.4962,2.4735,2.4517,2.4141,2.3717,2.3603,2.3516,2.3312,2.3135,2.2994,2.2859,2.2723,2.2457,2.2044,2.1654,2.1161,2.0721,1.9927,3.8952,3.9088,3.9249,3.9365,3.9513,3.9713,3.9841,3.9961,4.0138,4.0179,4.0059,3.9692,3.947,3.9465,3.8927,3.8394,3.7703,3.7707,3.7306,3.6986,3.6933,3.6933,3.6779,3.6713,3.6831,3.6989,3.7029,3.7048,3.7048,3.7068,3.7106,3.7127,3.7164,3.7222,3.726,3.7316,3.7317,3.7334,3.7372,3.7411,3.7448,3.7466,3.7503,3.7576,3.7594,3.7613,3.7595,3.7613,3.7448,3.7106,3.7085,3.7048,3.7048,3.7066,3.7066,3.7048,3.7048,3.7048,3.7048,3.7031,3.7048,3.7066,3.7048,3.7066,3.7066,3.7048,3.7048,3.6992,3.7046,3.7027,3.6989,3.7027,3.6968,3.6851,3.6811,3.665,3.6398,3.6268,3.6204,3.6062,3.5949,3.5189,3.4257,3.3481,3.2882,3.1729,3.1157,3.0818,3.0695,3.0555,3.0183,2.9613,2.8792,2.7941,2.7124,2.6327,2.5818,2.5404,2.5182,2.4934,2.4569,2.424,2.4051,2.3903,2.376,2.361,2.3429,2.3304,2.3201,2.3061,2.2738,2.2424,2.209,2.1693,2.1076,3.9599,3.9729,3.9858,3.9995,4.0138,4.0246,4.0377,4.0476,4.0655,4.0758,4.0784,4.077,4.0527,4.0135,4.0058,3.9651,3.8905,3.8529,3.7946,3.7463,3.7429,3.7503,3.7411,3.7261,3.7239,3.7317,3.7447,3.7484,3.7484,3.7448,3.7466,3.7485,3.7503,3.7503,3.754,3.7595,3.7631,3.7631,3.7721,3.7775,3.7775,3.7793,3.7828,3.7846,3.7846,3.7846,3.7846,3.7828,3.7793,3.7703,3.7576,3.7467,3.7448,3.7448,3.7466,3.7466,3.7466,3.7466,3.7466,3.7448,3.7466,3.7448,3.7429,3.7466,3.7466,3.7448,3.7411,3.7354,3.7317,3.7298,3.7259,3.7239,3.722,3.7201,3.7164,3.7106,3.693,3.669,3.6541,3.6419,3.6343,3.5973,3.496,3.4137,3.3368,3.2415,3.1752,3.1261,3.1095,3.0975,3.0657,3.0202,2.9539,2.8746,2.8084,2.7196,2.6321,2.5828,2.5546,2.5378,2.5029,2.4731,2.4553,2.4405,2.424,2.4051,2.3861,2.3818,2.3739,2.3588,2.3443,2.3193,2.2906,2.2576,2.2167,4.0221,4.0387,4.0476,4.0597,4.0717,4.086,4.0977,4.1071,4.1198,4.1255,4.1351,4.1463,4.1367,4.1184,4.1234,4.0908,4.0152,3.9491,3.8917,3.8474,3.8331,3.8187,3.7898,3.781,3.7739,3.7685,3.7703,3.7757,3.7775,3.7792,3.7792,3.7827,3.7827,3.7845,3.7827,3.788,3.7897,3.7879,3.7967,3.8002,3.8089,3.8089,3.8123,3.8139,3.8121,3.8139,3.8138,3.8138,3.8121,3.8122,3.8054,3.7898,3.7757,3.7757,3.7739,3.7739,3.7739,3.7739,3.7721,3.7739,3.7721,3.7757,3.7739,3.7739,3.7739,3.7739,3.7721,3.7649,3.7613,3.7613,3.7594,3.7576,3.7558,3.7503,3.7485,3.7448,3.7317,3.7068,3.6849,3.6751,3.6731,3.6232,3.5526,3.4787,3.3876,3.2917,3.2085,3.1614,3.1483,3.1387,3.1274,3.0855,3.0268,2.9633,2.9066,2.8131,2.6902,2.6325,2.5864,2.5735,2.5546,2.5282,2.5052,2.4835,2.4645,2.4467,2.4323,2.4261,2.4193,2.4015,2.3894,2.3831,2.3691,2.3402,2.2951,4.0836,4.0995,4.1071,4.1169,4.1305,4.1458,4.1569,4.1692,4.1714,4.1766,4.1856,4.198,4.2032,4.2192,4.2277,4.1906,4.1232,4.068,4.0058,3.9516,3.9443,3.9224,3.8841,3.8657,3.8496,3.8201,3.8057,3.8037,3.8052,3.8069,3.8086,3.8118,3.8135,3.8135,3.8152,3.817,3.8168,3.8185,3.8219,3.8271,3.8338,3.8356,3.8387,3.8382,3.8399,3.8544,3.8654,3.8725,3.8725,3.8796,3.883,3.8651,3.8412,3.8022,3.7968,3.7986,3.7985,3.8003,3.8003,3.8003,3.8021,3.8094,3.8184,3.8292,3.84,3.858,3.8598,3.8437,3.8401,3.8204,3.8114,3.7952,3.7863,3.7792,3.7739,3.7721,3.7613,3.7374,3.7241,3.7068,3.7031,3.6691,3.6106,3.5416,3.4411,3.3482,3.268,3.2017,3.1873,3.1764,3.1635,3.1506,3.095,2.9983,2.9347,2.8612,2.7443,2.6747,2.6239,2.6115,2.6007,2.5809,2.5551,2.5204,2.5005,2.4851,2.4731,2.467,2.4569,2.4446,2.4385,2.4349,2.4281,2.4156,2.3737,4.1346,4.1493,4.1552,4.1644,4.1788,4.1917,4.2061,4.2145,4.2184,4.229,4.2432,4.2454,4.2573,4.2729,4.2768,4.2391,4.1886,4.1597,4.1215,4.063,4.0538,4.0388,4.0216,3.9721,3.952,3.9301,3.8909,3.8534,3.8334,3.8334,3.835,3.835,3.8366,3.8382,3.843,3.8446,3.8462,3.8491,3.8544,3.8611,3.8737,3.8863,3.8881,3.8857,3.8912,3.9132,3.9554,3.9685,3.9942,4.0563,4.0655,4.0567,4.0156,3.9146,3.8607,3.8503,3.854,3.8596,3.8576,3.8447,3.872,3.9102,3.9304,3.9649,4.0012,4.0194,3.9961,3.9837,3.9441,3.908,3.9027,3.8538,3.8089,3.8002,3.7949,3.7915,3.7863,3.7775,3.7631,3.7449,3.7356,3.7246,3.6675,3.6054,3.5168,3.4267,3.3458,3.2634,3.2161,3.2055,3.1948,3.1857,3.1696,3.0552,2.9483,2.8729,2.7843,2.7129,2.6671,2.6518,2.6396,2.6259,2.6028,2.5698,2.5451,2.5262,2.5146,2.5048,2.497,2.4871,2.4866,2.4866,2.4771,2.4655,2.4549,4.1917,4.2023,4.2127,4.2213,4.2335,4.2436,4.2571,4.2593,4.2611,4.2728,4.2862,4.2937,4.3031,4.316,4.3196,4.2995,4.2793,4.272,4.2315,4.176,4.1629,4.144,4.13,4.0767,4.0654,4.0541,4.0175,3.9396,3.8695,3.8621,3.8692,3.8667,3.8667,3.8664,3.868,3.8713,3.878,3.8792,3.8873,3.9091,3.9512,3.9871,4.0122,4.0141,4.0122,4.0399,4.064,4.0769,4.0951,4.1265,4.1357,4.1376,4.1123,4.0708,3.9976,3.985,3.9749,3.9768,3.9786,3.9788,4.0044,4.0301,4.0374,4.0538,4.0813,4.0886,4.1017,4.0787,4.0519,3.9904,3.9469,3.9087,3.8708,3.831,3.8203,3.817,3.8154,3.8172,3.8019,3.7845,3.7739,3.7596,3.7397,3.6719,3.5918,3.5084,3.4252,3.3423,3.2615,3.2335,3.2284,3.2197,3.2021,3.1253,3.0231,2.954,2.8613,2.7828,2.7216,2.7029,2.6758,2.6622,2.6451,2.6224,2.5956,2.5715,2.553,2.54,2.5355,2.5317,2.5317,2.5282,2.5243,2.5166,2.5029,4.2454,4.2536,4.2652,4.2749,4.2827,4.2957,4.3013,4.3013,4.3031,4.3105,4.3268,4.3286,4.3392,4.3531,4.3582,4.3599,4.3617,4.358,4.3207,4.2834,4.2703,4.2419,4.2075,4.1755,4.1696,4.1686,4.1349,4.0785,3.9804,3.9564,3.9446,3.9605,3.9523,3.9464,3.9593,3.9723,3.9464,3.9489,3.9569,3.995,4.0573,4.1192,4.164,4.1655,4.1655,4.1655,4.1911,4.193,4.2098,4.2265,4.2321,4.228,4.2209,4.2172,4.2054,4.1788,4.1454,4.124,4.1148,4.1109,4.1088,4.1438,4.1427,4.1503,4.1742,4.191,4.1732,4.1535,4.1266,4.0996,4.052,3.9902,3.941,3.8919,3.8643,3.8481,3.8449,3.8451,3.8403,3.8256,3.8122,3.7931,3.7737,3.7488,3.6719,3.5897,3.5043,3.4174,3.3379,3.2745,3.259,3.2489,3.2282,3.1794,3.115,3.0699,2.9747,2.8782,2.815,2.7758,2.7367,2.6978,2.6793,2.6623,2.6434,2.617,2.5956,2.5775,2.5735,2.5717,2.5717,2.5698,2.568,2.5586,2.5454,4.2863,4.2939,4.3087,4.3178,4.3249,4.3375,4.3427,4.3427,4.3427,4.3461,4.3563,4.3562,4.3664,4.3814,4.3929,4.3942,4.3942,4.3923,4.3849,4.3658,4.3677,4.3667,4.358,4.2999,4.2805,4.2719,4.2188,4.1626,4.1189,4.1171,4.113,4.107,4.101,4.1229,4.1007,4.097,4.1423,4.1404,4.14,4.1507,4.1651,4.182,4.1973,4.1996,4.2079,4.2374,4.2982,4.3076,4.3282,4.3901,4.4046,4.4102,4.4177,4.4177,4.4158,4.3614,4.2704,4.1542,4.1705,4.1802,4.2028,4.2458,4.2557,4.2918,4.309,4.3227,4.3197,4.3457,4.2814,4.2226,4.1712,4.088,4.0185,3.962,3.9222,3.89,3.8723,3.8698,3.8686,3.8624,3.8465,3.8285,3.8115,3.7871,3.7517,3.669,3.5848,3.4957,3.4069,3.3361,3.2838,3.2722,3.2622,3.2189,3.193,3.1495,3.0816,2.9792,2.9275,2.8639,2.8023,2.7581,2.7159,2.6976,2.6792,2.6623,2.64,2.6243,2.6154,2.6118,2.61,2.6118,2.6134,2.6008,2.5862,4.3442,4.3355,4.3461,4.3546,4.3649,4.3749,4.3781,4.3781,4.3781,4.3812,4.3873,4.3889,4.3971,4.4116,4.418,4.4211,4.4222,4.4237,4.4233,4.4262,4.4281,4.431,4.4227,4.3998,4.384,4.3699,4.3577,4.3516,4.3035,4.2202,4.1726,4.1824,4.1801,4.1717,4.2033,4.1902,4.1873,4.2013,4.2353,4.2693,4.2865,4.3147,4.3423,4.3463,4.3444,4.3683,4.3922,4.4111,4.4224,4.4619,4.4627,4.4672,4.4667,4.4693,4.4687,4.4565,4.3958,4.3422,4.3311,4.3207,4.3347,4.3523,4.3666,4.3785,4.406,4.402,4.3974,4.3955,4.363,4.3225,4.2835,4.2079,4.1174,4.0493,3.9937,3.9427,3.912,3.8972,3.8921,3.8862,3.8822,3.8649,3.8476,3.8291,3.7942,3.7245,3.6472,3.5684,3.4648,3.3651,3.3203,3.29,3.2818,3.2647,3.2478,3.2219,3.1766,3.0963,3.0685,2.9938,2.8863,2.8281,2.7943,2.7453,2.7154,2.6974,2.6825,2.6657,2.6487,2.6487,2.6487,2.6487,2.6487,2.6416,2.6277,4.4002,4.3809,4.3825,4.3908,4.4039,4.4082,4.4147,4.4128,4.4113,4.4158,4.4185,4.4214,4.4277,4.4354,4.4401,4.4426,4.4482,4.4482,4.4496,4.4524,4.4556,4.4537,4.4519,4.4481,4.4495,4.4578,4.4431,4.4438,4.4105,4.3474,4.2801,4.26,4.2862,4.2763,4.2728,4.2848,4.293,4.3013,4.3485,4.375,4.3901,4.4354,4.4575,4.4682,4.477,4.4783,4.4796,4.4777,4.4796,4.4808,4.4846,4.4889,4.487,4.4914,4.4907,4.4852,4.4587,4.4569,4.444,4.438,4.4519,4.4482,4.444,4.4322,4.4306,4.4248,4.4199,4.4218,4.4117,4.3752,4.3364,4.3062,4.2354,4.1511,4.0784,4.0179,3.9662,3.943,3.9235,3.9124,3.9068,3.9007,3.8859,3.8691,3.8297,3.77,3.7038,3.6355,3.5314,3.4187,3.3662,3.3363,3.314,3.3042,3.291,3.2707,3.2325,3.2032,3.1735,3.1209,3.0123,2.9358,2.8912,2.8369,2.7809,2.7506,2.7412,2.7122,2.6842,2.6825,2.6825,2.6825,2.6825,2.6742,2.664,4.4458,4.4444,4.4258,4.4225,4.4354,4.4426,4.4473,4.4454,4.4454,4.4468,4.4463,4.4537,4.4546,4.4592,4.4632,4.4672,4.4667,4.4685,4.4699,4.468,4.468,4.4693,4.4725,4.4725,4.4738,4.477,4.4815,4.484,4.4827,4.4568,4.4361,4.4504,4.4089,4.434,4.4347,4.4134,4.4222,4.4284,4.4555,4.4624,4.4655,4.4826,4.4888,4.4955,4.4967,4.5022,4.508,4.5068,4.5057,4.5038,4.508,4.508,4.5091,4.5095,4.5076,4.5072,4.5072,4.5038,4.4967,4.4808,4.4712,4.4672,4.4632,4.4578,4.4524,4.4501,4.4487,4.4482,4.4449,4.4416,4.4079,4.3741,4.3235,4.2597,4.1777,4.1006,4.0413,3.9838,3.9631,3.9416,3.9301,3.9242,3.9183,3.9022,3.8826,3.8287,3.7509,3.6808,3.5981,3.4958,3.4299,3.3884,3.3607,3.3406,3.3262,3.3024,3.2806,3.2601,3.2324,3.1972,3.1388,3.0724,3.0024,2.9464,2.8947,2.8485,2.8044,2.7866,2.7662,2.7297,2.7165,2.7165,2.7117,2.7055,2.6925,4.4732,4.4732,4.4713,4.4648,4.4592,4.4659,4.4712,4.4751,4.4751,4.4732,4.4745,4.477,4.4789,4.4802,4.4796,4.4846,4.487,4.4902,4.4914,4.495,4.4943,4.4962,4.4962,4.4931,4.4955,4.4979,4.4979,4.4979,4.5033,4.5026,4.5003,4.4924,4.4907,4.4919,4.4943,4.4955,4.4991,4.5003,4.5033,4.5014,4.5033,4.5033,4.5057,4.5106,4.5125,4.5159,4.5203,4.5213,4.5233,4.5243,4.5265,4.5275,4.5267,4.5269,4.5269,4.5267,4.5256,4.5246,4.5203,4.5038,4.495,4.4889,4.4821,4.4776,4.4751,4.4751,4.4732,4.4751,4.4738,4.4738,4.4637,4.4404,4.4057,4.351,4.28,4.1952,4.1249,4.0653,4.0058,3.9877,3.9615,3.9439,3.9401,3.9363,3.9151,3.8853,3.8055,3.7275,3.6519,3.5871,3.5292,3.4649,3.4355,3.3923,3.3746,3.3549,3.3334,3.3109,3.2886,3.258,3.2241,3.1909,3.1236,3.0636,3.0102,2.969,2.9266,2.8848,2.8373,2.7799,2.7539,2.7476,2.7417,2.734,2.7214,4.4979,4.501,4.5049,4.4986,4.4796,4.4858,4.4907,4.4962,4.4986,4.4991,4.5033,4.5014,4.5014,4.5014,4.5033,4.5057,4.5091,4.5091,4.5125,4.5136,4.5148,4.5159,4.5178,4.5159,4.514,4.5162,4.5173,4.5192,4.5186,4.5194,4.5175,4.5164,4.5151,4.5151,4.5114,4.517,4.5192,4.5184,4.5194,4.5194,4.5194,4.5194,4.5205,4.5258,4.5258,4.5269,4.53,4.531,4.5329,4.5339,4.536,4.5399,4.54,4.5409,4.54,4.5409,4.5409,4.5389,4.5319,4.5224,4.5148,4.5091,4.5068,4.5022,4.501,4.4998,4.4967,4.4962,4.4962,4.4955,4.4955,4.4793,4.4674,4.4175,4.367,4.2877,4.2172,4.1524,4.0854,4.0335,4.0028,3.9677,3.9623,3.9575,3.937,3.9178,3.8767,3.8058,3.741,3.6846,3.6427,3.5763,3.5174,3.4706,3.4243,3.3949,3.3674,3.3508,3.3316,3.3211,3.2924,3.2627,3.23,3.1683,3.1202,3.0889,3.0478,3.0017,2.9114,2.8103,2.7964,2.7906,2.7719,2.7662,2.7539,4.5192,4.5203,4.5256,4.5181,4.5014,4.5049,4.5084,4.5106,4.517,4.5213,4.5256,4.5267,4.5267,4.5267,4.5267,4.5288,4.5288,4.5277,4.5288,4.5288,4.5277,4.5297,4.5297,4.5288,4.5298,4.5388,4.5369,4.533,4.5352,4.5341,4.5361,4.5342,4.5331,4.532,4.5224,4.5309,4.538,4.5381,4.5381,4.5361,4.5361,4.5332,4.5351,4.539,4.54,4.541,4.5429,4.5429,4.5457,4.5438,4.5438,4.5448,4.5448,4.5467,4.5448,4.5438,4.5448,4.5419,4.54,4.532,4.5309,4.5267,4.5235,4.5224,4.5203,4.5192,4.5181,4.5129,4.5106,4.5106,4.5095,4.5084,4.5007,4.4806,4.4311,4.3794,4.3057,4.2533,4.1892,4.0967,4.0328,3.9927,3.9856,3.9751,3.9568,3.9395,3.9259,3.883,3.8218,3.7888,3.7517,3.6893,3.6261,3.5755,3.5246,3.4418,3.4015,3.387,3.3752,3.3623,3.3605,3.3482,3.3096,3.2614,3.2386,3.2146,3.168,3.1185,3.0199,2.9282,2.8577,2.8342,2.8142,2.7954,2.7868,4.5331,4.5351,4.54,4.54,4.5341,4.5298,4.5298,4.5301,4.5321,4.5331,4.538,4.5429,4.5448,4.5429,4.5477,4.5486,4.5486,4.5448,4.5438,4.5419,4.54,4.537,4.538,4.539,4.539,4.539,4.5419,4.5419,4.54,4.5429,4.5419,4.541,4.5457,4.541,4.5351,4.539,4.541,4.54,4.54,4.54,4.541,4.5419,4.5429,4.5476,4.5513,4.554,4.5558,4.5575,4.5573,4.5573,4.5573,4.5582,4.5582,4.5582,4.559,4.559,4.5618,4.5599,4.5599,4.5556,4.5504,4.5438,4.538,4.537,4.5341,4.5321,4.5311,4.532,4.5281,4.5281,4.5301,4.5298,4.525,4.5258,4.4855,4.4442,4.3887,4.3543,4.298,4.1796,4.0957,4.042,4.0169,4.0005,3.981,3.9698,3.9568,3.9452,3.8958,3.8889,3.8652,3.8047,3.7423,3.6912,3.6309,3.5509,3.4915,3.4747,3.4407,3.4037,3.4055,3.4074,3.3926,3.3463,3.3451,3.3389,3.2785,3.2127,3.1391,3.0588,2.9979,2.9165,2.8739,2.846,2.8191,4.5907,4.5955,4.6327,4.6469,4.6355,4.5764,4.5477,4.5456,4.5465,4.5475,4.5493,4.5547,4.5556,4.5584,4.562,4.5637,4.5618,4.5593,4.5575,4.5556,4.553,4.5521,4.5512,4.5503,4.5521,4.5503,4.5503,4.5521,4.553,4.5512,4.5521,4.5538,4.5577,4.5547,4.5512,4.5494,4.5514,4.5532,4.5541,4.5531,4.5521,4.5521,4.553,4.5556,4.561,4.5654,4.5679,4.5692,4.5688,4.5715,4.5723,4.5723,4.5731,4.5739,4.5746,4.5746,4.5727,4.5727,4.5719,4.5719,4.5657,4.559,4.551,4.5484,4.5485,4.5465,4.5466,4.5457,4.5466,4.5466,4.5457,4.5477,4.5477,4.5458,4.5314,4.4882,4.4719,4.4355,4.3819,4.2632,4.1628,4.1055,4.0453,4.0262,4.005,3.9979,3.9895,3.9755,3.964,3.9548,3.9437,3.8925,3.8358,3.781,3.7237,3.6602,3.6061,3.5664,3.5235,3.4769,3.4347,3.4347,3.4328,3.4328,3.416,3.3925,3.3615,3.3066,3.2535,3.2051,3.155,3.0636,2.9567,2.915,2.8943,4.6896,4.7039,4.791,4.8224,4.7976,4.654,4.5811,4.569,4.5624,4.5629,4.5708,4.5688,4.5708,4.5715,4.5696,4.5704,4.5723,4.5715,4.5715,4.5688,4.5673,4.5673,4.5673,4.5684,4.5648,4.5665,4.5695,4.5728,4.575,4.6161,4.613,4.5992,4.6208,4.6208,4.6144,4.6138,4.5986,4.5783,4.5637,4.5627,4.5624,4.5648,4.564,4.5657,4.5692,4.5688,4.5712,4.5739,4.5739,4.5746,4.5781,4.5788,4.5803,4.5805,4.58,4.5807,4.5787,4.5787,4.5807,4.5807,4.5807,4.5737,4.5708,4.5661,4.5621,4.5605,4.5596,4.5618,4.561,4.5601,4.5612,4.5612,4.5631,4.5603,4.5594,4.5432,4.5346,4.4963,4.4456,4.3527,4.2483,4.17,4.0908,4.0556,4.0538,4.0205,4.012,4.0061,3.995,3.984,3.972,3.9584,3.9036,3.8594,3.807,3.7596,3.7208,3.6833,3.6212,3.5724,3.5224,3.4755,3.4773,3.4773,3.465,3.4433,3.4148,3.4038,3.3915,3.3422,3.2864,3.1899,3.0765,3.027,2.9982,4.704,4.7148,4.7985,4.8368,4.8309,4.7852,4.7308,4.6646,4.6066,4.5745,4.5771,4.5819,4.5891,4.5833,4.5841,4.5848,4.5841,4.5847,4.5852,4.5826,4.5786,4.5783,4.58,4.585,4.5758,4.58,4.587,4.6194,4.6719,4.7086,4.7452,4.759,4.7314,4.7383,4.7394,4.7505,4.6753,4.6155,4.597,4.5958,4.5908,4.5963,4.5916,4.5951,4.6008,4.6023,4.603,4.6014,4.6028,4.5964,4.5919,4.5906,4.5867,4.588,4.588,4.588,4.5861,4.5861,4.5861,4.5861,4.5867,4.5867,4.5841,4.5821,4.5759,4.5737,4.5749,4.5746,4.5739,4.5719,4.5719,4.5739,4.5731,4.5723,4.5715,4.5688,4.5603,4.5444,4.49,4.4182,4.3137,4.2459,4.1638,4.1229,4.1135,4.0658,4.0356,4.0304,4.0214,4.0109,4.0019,3.9859,3.9702,3.9242,3.9077,3.8707,3.8348,3.7932,3.7318,3.6675,3.6097,3.5681,3.5398,3.5161,3.4962,3.4848,3.4685,3.4597,3.4448,3.4441,3.3941,3.2962,3.2076,3.1561,3.1115,4.7654,4.7824,4.8974,4.9485,4.9453,4.918,4.8702,4.8115,4.7262,4.6739,4.6416,4.6448,4.6266,4.5962,4.5935,4.5941,4.5941,4.5929,4.5931,4.5932,4.5977,4.6183,4.6234,4.6394,4.6665,4.6636,4.6849,4.7238,4.7654,4.7982,4.8319,4.8287,4.8369,4.8388,4.828,4.8152,4.7804,4.7228,4.6866,4.6793,4.6742,4.6738,4.681,4.674,4.6783,4.679,4.6803,4.6823,4.688,4.6931,4.695,4.6979,4.7023,4.7029,4.6743,4.6749,4.6554,4.6321,4.6108,4.6005,4.5986,4.6,4.6033,4.5969,4.5923,4.5873,4.5861,4.5834,4.5841,4.5828,4.5828,4.5848,4.5834,4.584,4.5833,4.5826,4.5812,4.5771,4.5247,4.4614,4.3943,4.3303,4.2729,4.2263,4.1759,4.1308,4.0816,4.0462,4.0392,4.0298,4.0196,4.011,4.0051,3.9897,3.9744,3.9543,3.9154,3.8746,3.8356,3.7709,3.7072,3.6653,3.6406,3.5845,3.5257,3.5153,3.5059,3.4927,3.4783,3.478,3.4699,3.4006,3.3206,3.2648,3.2277,4.8496,4.8623,5.0389,5.0989,5.1053,5.0319,5.0004,5.0004,4.9082,4.8208,4.7548,4.7395,4.7037,4.6682,4.6609,4.6551,4.6629,4.6623,4.6671,4.6241,4.6571,4.6865,4.719,4.7333,4.7553,4.816,4.8406,4.8128,4.8516,4.8909,4.9109,4.8703,4.8877,4.9045,4.9123,4.9091,4.8935,4.88,4.8566,4.8507,4.8255,4.8367,4.849,4.8354,4.8322,4.8367,4.8379,4.8456,4.8532,4.851,4.8494,4.8428,4.8404,4.8375,4.7996,4.7771,4.7494,4.7198,4.6863,4.6741,4.661,4.6512,4.6307,4.6581,4.6717,4.6136,4.5972,4.5947,4.5953,4.5933,4.5933,4.5927,4.5941,4.5929,4.5937,4.5911,4.5893,4.5854,4.5615,4.5099,4.4846,4.4214,4.3608,4.3123,4.2768,4.2143,4.1479,4.0981,4.0749,4.0668,4.0471,4.04,4.0279,4.0233,4.0176,3.9957,3.9746,3.9431,3.9144,3.8695,3.7981,3.7655,3.7413,3.6757,3.6073,3.5598,3.5373,3.5236,3.5058,3.4908,3.4851,3.4801,3.4321,3.3644,3.337,4.8607,4.8808,5.0461,5.119,5.1186,5.103,5.0947,5.0975,5.0758,4.974,4.857,4.8356,4.8205,4.7879,4.782,4.782,4.7874,4.7669,4.7986,4.7904,4.786,4.784,4.8213,4.8275,4.8472,4.8423,4.858,4.9006,4.9466,4.997,5.0409,5.0409,5.0319,5.0203,5.0222,5.0222,5.0215,5.013,5.0136,4.9588,4.8884,4.8587,4.8496,4.8586,4.8643,4.8769,4.8791,4.8759,4.8711,4.8667,4.8647,4.8647,4.8665,4.8727,4.8623,4.8425,4.839,4.8168,4.7965,4.7786,4.7782,4.7901,4.7936,4.8029,4.7704,4.6674,4.6139,4.6139,4.6056,4.6032,4.6032,4.6032,4.6027,4.6037,4.6026,4.5991,4.5961,4.5919,4.5858,4.5729,4.5595,4.5124,4.4497,4.4039,4.3704,4.3072,4.2279,4.1751,4.1525,4.1343,4.0911,4.0762,4.0495,4.0433,4.0417,4.0334,4.0115,4.0079,3.9906,3.941,3.8884,3.8402,3.7977,3.7512,3.6963,3.6487,3.5996,3.5526,3.5353,3.5273,3.5162,3.5173,3.4926,3.4344,3.4266,4.8699,4.8978,5.0587,5.1292,5.1292,5.1328,5.1351,5.1335,5.1336,5.0819,4.9898,4.9504,4.9134,4.8822,4.8744,4.8838,4.8818,4.8709,4.8585,4.8678,4.8911,4.8913,4.9041,4.9241,4.9605,4.9573,4.9704,5.0106,5.0414,5.0724,5.106,5.1145,5.1152,5.1138,5.1142,5.1142,5.1147,5.1106,5.1185,5.0581,4.9604,4.9623,4.9687,4.9709,4.9701,4.9707,4.981,4.9833,4.985,4.9882,4.9972,4.9999,5.0049,5.0068,4.9744,4.9455,4.9283,4.9163,4.8938,4.8853,4.8869,4.8896,4.8803,4.858,4.8522,4.7595,4.717,4.7068,4.624,4.6099,4.608,4.6075,4.6075,4.6071,4.6085,4.6061,4.6037,4.6008,4.5978,4.5959,4.5852,4.5754,4.5161,4.4679,4.4344,4.4062,4.3269,4.2737,4.2474,4.2114,4.1641,4.1274,4.1117,4.0726,4.0515,4.05,4.0416,4.0458,4.05,4.0181,3.9669,3.9046,3.8488,3.8281,3.7951,3.7414,3.6884,3.6435,3.6064,3.5989,3.5793,3.5596,3.5324,3.5116,3.4962,4.8713,4.9189,5.0725,5.1394,5.1394,5.1397,5.1397,5.1397,5.14,5.14,5.1183,5.05,4.98,4.9349,4.9134,4.9134,4.9265,4.9565,4.939,4.9325,4.9289,4.9726,5.0042,5.022,5.048,5.0743,5.0889,5.0943,5.1074,5.123,5.1206,5.1215,5.122,5.1201,5.1225,5.1225,5.123,5.1239,5.1243,5.1239,5.1167,5.1215,5.104,5.1099,5.1225,5.1239,5.128,5.1281,5.1261,5.1213,5.107,5.1021,5.1026,5.0948,5.072,5.0391,5.0252,4.9917,4.9564,4.9463,4.9385,4.9268,4.9115,4.9115,4.9134,4.8827,4.8392,4.7829,4.7007,4.6391,4.6391,4.6177,4.6173,4.6134,4.6134,4.6134,4.6115,4.6111,4.6111,4.6106,4.6083,4.6063,4.5758,4.5278,4.5035,4.4778,4.4394,4.3948,4.3481,4.3048,4.2615,4.2266,4.2019,4.1538,4.0855,4.0686,4.0686,4.0602,4.0614,4.0621,4.0467,3.9855,3.9462,3.9371,3.8984,3.8371,3.8019,3.7648,3.7271,3.6815,3.6642,3.6466,3.6222,3.5988,3.5657,4.8557,4.9948,5.0985,5.1394,5.1397,5.1389,5.1394,5.1396,5.1384,5.1388,5.1349,5.1308,5.1008,5.0868,5.0907,5.0792,5.0486,5.06,5.0831,5.092,5.0527,5.0836,5.0986,5.0855,5.1131,5.1253,5.1277,5.1288,5.1288,5.1288,5.1288,5.1269,5.1269,5.1277,5.1273,5.1292,5.1292,5.1316,5.1323,5.1342,5.1316,5.1304,5.13,5.1284,5.1285,5.1323,5.1359,5.1382,5.1385,5.1394,5.1389,5.1399,5.1386,5.1388,5.1197,5.1063,5.0963,5.084,5.0525,5.0484,5.0425,5.0494,5.0474,5.055,5.0391,5.004,4.9655,4.9324,4.8493,4.7512,4.7216,4.655,4.6336,4.6219,4.618,4.618,4.6177,4.617,4.6164,4.6153,4.6123,4.6119,4.6029,4.5788,4.5756,4.546,4.5047,4.4641,4.45,4.4048,4.3596,4.3258,4.2961,4.1974,4.1145,4.0995,4.0938,4.0822,4.0713,4.0687,4.0681,4.0642,4.0378,4.0101,3.9767,3.9238,3.8947,3.8782,3.8223,3.7778,3.7633,3.7441,3.7149,3.6878,3.6557]}]]